[[{"header":{"parameterUnit":"m.s-1","parameterCategory":1,"la1":30.6,"la2":29.2853,"lo1":-89.7004,"lo2":-87.6739,"dy":0.0162,"dx":0.0183,"nx":112,"ny":82,"refTime":"2026-04-11T00:00:00:Z","depth":0,"parameterNumber":2,"parameterNumberName":"U-component_of_WINDS"},"data":[0.0,0.0,0.0,0.0,0.0,0.0,0.0,0.0,0.0,0.0,0.0,0.0,0.0,0.0,0.0,0.0,0.0,0.0,0.0,0.0,0.0,0.0,0.0,0.0,0.0,0.0,0.0,0.0,0.0,0.0,0.0,0.0,0.0,0.0,0.0,0.0,0.0,0.0,0.0,0.0,0.0,0.0,0.0,0.0,0.0,0.0,0.0,0.0,0.0,0.0,0.0,0.0,0.0,0.0,0.0,0.0,0.0,0.0,0.0,0.0,0.0,0.0,0.0,0.0,0.0,0.0,0.0,0.0,0.0,0.0,0.0,0.0,0.0,0.0,0.0,0.0,0.0,0.0,0.0,0.0,0.0,0.0,0.0,0.0,0.0,0.0,0.0,0.0,0.0,0.0,-3.4882,-3.8577,-4.2277,-4.3855,-4.2316,-3.9854,-3.7315,-3.4744,0.0,0.0,0.0,0.0,0.0,0.0,0.0,0.0,0.0,0.0,0.0,0.0,0.0,0.0,0.0,0.0,0.0,0.0,0.0,0.0,0.0,0.0,0.0,0.0,0.0,0.0,0.0,0.0,0.0,0.0,0.0,0.0,0.0,0.0,0.0,0.0,0.0,0.0,0.0,0.0,0.0,0.0,0.0,0.0,0.0,0.0,0.0,0.0,0.0,0.0,0.0,0.0,0.0,0.0,0.0,0.0,0.0,0.0,0.0,0.0,0.0,0.0,0.0,0.0,0.0,0.0,0.0,0.0,0.0,0.0,0.0,0.0,0.0,0.0,0.0,0.0,0.0,0.0,0.0,0.0,0.0,0.0,0.0,0.0,0.0,0.0,0.0,0.0,0.0,0.0,0.0,0.0,0.0,0.0,0.0,0.0,0.0,0.0,0.0,0.0,0.0,0.0,0.0,0.0,-3.7894,-4.2808,-4.4594,-4.5017,-4.4008,-4.1593,-3.9008,-3.6469,0.0,0.0,0.0,0.0,0.0,0.0,0.0,0.0,0.0,0.0,0.0,0.0,0.0,0.0,0.0,0.0,0.0,0.0,0.0,0.0,0.0,0.0,0.0,0.0,0.0,0.0,0.0,0.0,0.0,0.0,0.0,0.0,0.0,0.0,0.0,0.0,0.0,0.0,0.0,0.0,0.0,0.0,0.0,0.0,0.0,0.0,0.0,0.0,0.0,0.0,0.0,0.0,0.0,0.0,0.0,0.0,0.0,0.0,0.0,0.0,0.0,0.0,0.0,0.0,0.0,0.0,0.0,0.0,0.0,0.0,0.0,0.0,0.0,0.0,0.0,0.0,0.0,0.0,0.0,0.0,0.0,0.0,0.0,0.0,0.0,0.0,0.0,0.0,0.0,0.0,0.0,0.0,0.0,0.0,0.0,0.0,0.0,0.0,0.0,0.0,0.0,0.0,0.0,-3.7808,-4.166,-4.4047,-4.5509,-4.5586,-4.3816,-4.1708,-3.9238,-3.6231,-3.2122,0.0,0.0,0.0,0.0,0.0,0.0,0.0,0.0,0.0,0.0,0.0,0.0,0.0,0.0,0.0,0.0,0.0,0.0,0.0,0.0,0.0,0.0,0.0,0.0,0.0,0.0,0.0,0.0,0.0,0.0,0.0,0.0,0.0,0.0,0.0,0.0,0.0,0.0,0.0,0.0,0.0,0.0,0.0,0.0,0.0,0.0,0.0,0.0,0.0,0.0,0.0,0.0,0.0,0.0,0.0,0.0,0.0,0.0,0.0,0.0,0.0,0.0,0.0,0.0,0.0,0.0,0.0,0.0,0.0,0.0,0.0,0.0,0.0,0.0,0.0,0.0,0.0,0.0,0.0,0.0,0.0,0.0,0.0,0.0,0.0,0.0,0.0,0.0,0.0,0.0,0.0,0.0,0.0,0.0,0.0,0.0,0.0,0.0,0.0,0.0,0.0,0.0,-4.1993,-4.4701,-4.4893,-4.6124,-4.597,-4.3585,-4.1439,-3.8777,-3.5423,-3.1962,0.0,0.0,0.0,0.0,0.0,0.0,0.0,0.0,0.0,0.0,0.0,0.0,0.0,0.0,0.0,0.0,0.0,0.0,0.0,0.0,0.0,0.0,0.0,0.0,0.0,0.0,0.0,0.0,0.0,0.0,0.0,0.0,0.0,0.0,0.0,0.0,0.0,0.0,0.0,0.0,0.0,0.0,0.0,0.0,0.0,0.0,0.0,0.0,0.0,0.0,0.0,0.0,0.0,0.0,0.0,0.0,0.0,0.0,0.0,0.0,0.0,0.0,0.0,0.0,0.0,0.0,0.0,0.0,0.0,0.0,0.0,0.0,0.0,0.0,0.0,0.0,0.0,0.0,0.0,0.0,0.0,0.0,0.0,0.0,0.0,0.0,0.0,0.0,0.0,0.0,0.0,0.0,0.0,0.0,0.0,0.0,0.0,0.0,0.0,0.0,0.0,0.0,-4.3242,-4.5817,-4.6624,-4.6808,-4.6163,-4.4355,-4.1247,-3.7938,-3.4513,-3.1089,0.0,0.0,0.0,0.0,0.0,0.0,0.0,0.0,0.0,0.0,0.0,0.0,0.0,0.0,0.0,0.0,0.0,0.0,0.0,0.0,0.0,0.0,0.0,0.0,0.0,0.0,0.0,0.0,0.0,0.0,0.0,0.0,0.0,0.0,0.0,0.0,0.0,0.0,0.0,0.0,0.0,0.0,0.0,0.0,0.0,0.0,0.0,0.0,0.0,0.0,0.0,0.0,0.0,0.0,0.0,0.0,0.0,0.0,0.0,0.0,0.0,0.0,0.0,0.0,0.0,0.0,0.0,0.0,0.0,0.0,0.0,0.0,0.0,0.0,0.0,0.0,0.0,0.0,0.0,0.0,0.0,0.0,0.0,0.0,0.0,0.0,0.0,0.0,0.0,0.0,0.0,0.0,0.0,0.0,0.0,0.0,0.0,0.0,0.0,0.0,0.0,0.0,-4.4072,-4.6712,-4.6023,-4.6887,-4.6417,-4.3726,-4.1377,-3.863,-3.5238,0.0,0.0,0.0,0.0,0.0,0.0,0.0,0.0,0.0,0.0,0.0,0.0,0.0,0.0,0.0,0.0,0.0,0.0,0.0,0.0,0.0,0.0,0.0,0.0,0.0,0.0,0.0,0.0,0.0,0.0,0.0,0.0,0.0,0.0,0.0,0.0,0.0,0.0,0.0,0.0,0.0,0.0,0.0,0.0,0.0,0.0,0.0,0.0,0.0,0.0,0.0,0.0,0.0,0.0,0.0,0.0,0.0,0.0,0.0,0.0,0.0,0.0,0.0,0.0,0.0,0.0,0.0,0.0,0.0,0.0,0.0,0.0,0.0,0.0,0.0,0.0,0.0,0.0,0.0,0.0,0.0,0.0,0.0,0.0,0.0,0.0,0.0,0.0,0.0,0.0,0.0,0.0,0.0,0.0,0.0,0.0,0.0,0.0,0.0,0.0,0.0,0.0,-3.9252,-4.4064,-4.6786,-4.572,-4.6685,-4.6299,-4.3578,-4.1352,-3.8661,-3.5315,0.0,0.0,0.0,0.0,0.0,0.0,0.0,0.0,0.0,0.0,0.0,0.0,0.0,0.0,0.0,0.0,0.0,0.0,0.0,0.0,0.0,0.0,0.0,0.0,0.0,0.0,0.0,0.0,0.0,0.0,0.0,0.0,0.0,0.0,0.0,0.0,0.0,0.0,0.0,0.0,0.0,0.0,0.0,0.0,0.0,0.0,0.0,0.0,0.0,0.0,0.0,0.0,0.0,0.0,0.0,0.0,0.0,0.0,0.0,0.0,0.0,0.0,0.0,0.0,0.0,0.0,0.0,0.0,0.0,0.0,0.0,0.0,0.0,0.0,0.0,0.0,0.0,0.0,0.0,0.0,0.0,0.0,0.0,0.0,0.0,0.0,0.0,0.0,0.0,0.0,0.0,0.0,0.0,0.0,0.0,0.0,0.0,0.0,0.0,0.0,0.0,0.0,-3.899,-4.315,-4.5872,-4.6051,-4.6195,-4.5704,-4.4192,-4.1157,-3.7853,0.0,0.0,0.0,0.0,0.0,0.0,0.0,0.0,0.0,0.0,0.0,0.0,0.0,0.0,0.0,0.0,0.0,0.0,0.0,0.0,0.0,0.0,0.0,0.0,0.0,0.0,0.0,0.0,0.0,0.0,0.0,0.0,0.0,0.0,0.0,0.0,0.0,0.0,0.0,0.0,0.0,0.0,0.0,0.0,0.0,0.0,0.0,0.0,0.0,0.0,0.0,0.0,0.0,0.0,0.0,0.0,0.0,0.0,0.0,0.0,0.0,0.0,0.0,0.0,0.0,0.0,0.0,0.0,0.0,0.0,0.0,0.0,0.0,0.0,0.0,0.0,0.0,0.0,0.0,0.0,0.0,0.0,0.0,0.0,0.0,0.0,0.0,0.0,0.0,0.0,0.0,0.0,0.0,0.0,0.0,0.0,0.0,0.0,0.0,0.0,0.0,0.0,0.0,-3.8758,-4.2918,-4.542,-4.4958,-4.5609,-4.5202,-4.3074,-4.1103,-3.8516,-3.5109,0.0,0.0,0.0,0.0,0.0,0.0,0.0,0.0,0.0,0.0,0.0,0.0,0.0,0.0,0.0,0.0,0.0,0.0,0.0,0.0,0.0,0.0,0.0,0.0,0.0,0.0,0.0,0.0,0.0,0.0,0.0,0.0,0.0,0.0,0.0,0.0,0.0,0.0,0.0,0.0,0.0,0.0,0.0,0.0,0.0,0.0,0.0,0.0,0.0,0.0,0.0,0.0,0.0,0.0,0.0,0.0,0.0,0.0,0.0,0.0,0.0,0.0,0.0,0.0,0.0,0.0,0.0,0.0,0.0,0.0,0.0,0.0,0.0,0.0,0.0,0.0,0.0,0.0,0.0,0.0,0.0,0.0,0.0,0.0,0.0,0.0,0.0,0.0,0.0,0.0,0.0,0.0,0.0,0.0,0.0,0.0,0.0,0.0,0.0,0.0,0.0,0.0,-3.8469,-4.2016,-4.4203,-4.417,-4.4515,-4.403,-4.2346,-4.0572,-3.8099,-3.4721,0.0,0.0,0.0,0.0,0.0,0.0,0.0,0.0,0.0,0.0,0.0,0.0,0.0,0.0,0.0,0.0,0.0,0.0,0.0,0.0,0.0,0.0,0.0,0.0,0.0,0.0,0.0,0.0,0.0,0.0,0.0,0.0,0.0,0.0,0.0,0.0,0.0,0.0,0.0,0.0,0.0,0.0,0.0,0.0,0.0,0.0,0.0,0.0,0.0,0.0,0.0,0.0,0.0,0.0,0.0,0.0,0.0,0.0,0.0,0.0,0.0,0.0,0.0,0.0,0.0,0.0,0.0,0.0,0.0,0.0,0.0,0.0,0.0,0.0,0.0,0.0,0.0,0.0,0.0,0.0,0.0,0.0,0.0,0.0,0.0,0.0,0.0,0.0,0.0,0.0,0.0,0.0,0.0,0.0,0.0,0.0,0.0,0.0,0.0,0.0,0.0,0.0,-3.8175,-4.0818,-4.2684,-4.3697,-4.3175,-4.2543,-4.1924,-3.9762,-3.7057,-3.379,0.0,0.0,0.0,0.0,0.0,0.0,0.0,0.0,0.0,0.0,0.0,0.0,0.0,0.0,0.0,0.0,0.0,0.0,0.0,0.0,0.0,0.0,0.0,0.0,0.0,0.0,0.0,0.0,0.0,0.0,0.0,0.0,0.0,0.0,0.0,0.0,0.0,0.0,0.0,0.0,0.0,0.0,0.0,0.0,0.0,0.0,0.0,0.0,0.0,0.0,0.0,0.0,0.0,0.0,0.0,0.0,0.0,0.0,0.0,0.0,-3.1642,-3.0644,0.0,0.0,0.0,0.0,0.0,0.0,0.0,0.0,0.0,0.0,0.0,0.0,0.0,0.0,0.0,0.0,0.0,0.0,0.0,0.0,0.0,0.0,0.0,0.0,0.0,0.0,0.0,0.0,0.0,0.0,0.0,0.0,0.0,0.0,0.0,0.0,0.0,0.0,0.0,0.0,-3.8175,-4.0818,-4.265,-4.356,-4.3109,-4.2411,-4.1645,-3.9498,-3.7054,-3.4394,-3.0487,0.0,0.0,0.0,0.0,0.0,0.0,0.0,0.0,0.0,0.0,0.0,0.0,0.0,0.0,0.0,0.0,0.0,0.0,0.0,0.0,0.0,0.0,0.0,0.0,0.0,0.0,0.0,0.0,0.0,0.0,0.0,0.0,0.0,0.0,0.0,0.0,0.0,0.0,0.0,0.0,0.0,0.0,0.0,0.0,0.0,0.0,0.0,0.0,0.0,0.0,0.0,0.0,0.0,0.0,0.0,0.0,0.0,0.0,0.0,-3.5459,-3.3529,0.0,0.0,0.0,0.0,0.0,0.0,0.0,0.0,0.0,0.0,0.0,0.0,0.0,0.0,0.0,0.0,0.0,0.0,0.0,0.0,0.0,0.0,0.0,0.0,0.0,0.0,0.0,0.0,0.0,0.0,0.0,0.0,0.0,0.0,0.0,0.0,0.0,0.0,0.0,0.0,-3.8138,-4.0487,-4.2193,-4.3419,-4.2582,-4.1594,-4.0791,-3.8571,-3.6181,-3.3685,-3.0043,0.0,0.0,0.0,0.0,0.0,0.0,0.0,0.0,0.0,0.0,0.0,0.0,0.0,0.0,0.0,0.0,0.0,0.0,0.0,0.0,0.0,0.0,0.0,0.0,0.0,0.0,0.0,0.0,0.0,0.0,0.0,0.0,0.0,0.0,0.0,0.0,0.0,0.0,0.0,0.0,0.0,0.0,0.0,0.0,0.0,0.0,0.0,0.0,0.0,0.0,0.0,0.0,0.0,-4.2159,-4.291,-4.4305,-4.3644,-4.3718,-4.4158,-4.0834,-3.8242,-3.6389,-3.6892,0.0,0.0,0.0,0.0,0.0,0.0,0.0,0.0,0.0,0.0,0.0,0.0,0.0,0.0,0.0,0.0,0.0,0.0,0.0,0.0,0.0,0.0,-3.6964,-3.711,-3.7624,-3.7199,-3.3807,0.0,0.0,0.0,0.0,0.0,0.0,0.0,0.0,0.0,0.0,0.0,-3.8102,-4.0215,-4.1809,-4.313,-4.1992,-4.0781,-3.9974,-3.7823,-3.5495,-3.317,-3.0136,-2.7651,0.0,0.0,0.0,0.0,0.0,0.0,0.0,0.0,0.0,0.0,0.0,0.0,0.0,0.0,0.0,0.0,0.0,0.0,0.0,0.0,0.0,0.0,0.0,0.0,0.0,0.0,0.0,0.0,0.0,0.0,0.0,0.0,-3.0968,-3.1066,0.0,0.0,0.0,0.0,0.0,0.0,0.0,0.0,0.0,0.0,0.0,0.0,0.0,-4.1075,-4.2707,-4.4195,-4.5406,-4.6305,-4.6305,-4.6782,-4.7682,-4.7572,-4.7572,-4.7645,-4.7131,0.0,-4.1238,-3.9968,0.0,0.0,0.0,0.0,0.0,0.0,0.0,0.0,0.0,0.0,0.0,0.0,0.0,0.0,0.0,0.0,0.0,0.0,0.0,0.0,0.0,0.0,-3.9606,-4.0304,-4.0545,-4.0471,-3.9921,-3.7624,-3.5202,-3.3623,-3.2008,-3.043,0.0,0.0,0.0,0.0,0.0,0.0,-3.8175,-4.0708,-4.2213,-4.2433,-4.1662,-4.0781,-3.9974,-3.8337,-3.656,-3.4821,-3.2339,-2.9891,-2.7578,-2.5191,0.0,0.0,0.0,0.0,0.0,0.0,0.0,0.0,0.0,0.0,0.0,0.0,0.0,0.0,0.0,0.0,0.0,0.0,0.0,0.0,0.0,0.0,0.0,0.0,0.0,0.0,0.0,0.0,0.0,-3.0956,-3.2228,-3.2706,-3.3073,-3.3146,0.0,0.0,0.0,0.0,0.0,0.0,0.0,0.0,0.0,-4.0157,-4.2966,-4.5259,-4.6838,-4.8967,-5.0435,-5.1206,-5.1206,-5.161,-5.238,-5.238,-5.216,-5.172,-5.172,-5.0215,-4.7498,-4.4488,-4.2066,-4.0047,0.0,0.0,0.0,0.0,-3.8123,-3.849,-3.893,-3.8563,-3.7771,-3.6964,0.0,0.0,0.0,0.0,0.0,0.0,0.0,-3.5899,-3.8264,-4.0393,-4.1882,-4.1809,-4.247,-4.3003,-4.2512,-4.0886,-3.893,-3.6949,-3.4871,-3.2913,-3.1298,-2.9035,0.0,0.0,0.0,-3.4761,-3.8836,-4.0708,-4.1809,-4.2249,-4.1185,-4.0267,-3.9937,-3.8836,-3.7477,-3.5826,-3.344,-3.1201,-2.9219,-2.6833,-2.4961,0.0,0.0,0.0,0.0,0.0,0.0,0.0,0.0,0.0,0.0,0.0,0.0,0.0,0.0,0.0,0.0,0.0,0.0,0.0,0.0,0.0,0.0,0.0,0.0,0.0,0.0,0.0,0.0,-3.2963,-3.4064,-3.4688,-3.5275,-3.5495,0.0,0.0,0.0,0.0,0.0,0.0,-3.9292,-4.0487,-4.2066,-4.4085,-4.6672,-4.893,-5.0729,-5.2784,-5.4106,-5.4693,-5.4693,-5.5023,-5.5596,-5.5596,-5.5244,-5.4693,-5.4473,-5.3702,-5.2307,-4.8673,-4.5847,-4.3718,-4.2727,-4.1589,-4.0708,-4.1882,-4.2323,-4.2416,-4.324,-4.2856,-4.1902,-4.1332,-3.935,-3.711,-3.6435,0.0,0.0,0.0,0.0,-3.9108,-4.0708,-4.2616,-4.3938,-4.3351,-4.3975,-4.4526,-4.3797,-4.2704,-4.1339,-3.9536,-3.7342,-3.5279,-3.3684,-3.1613,0.0,-3.286,-3.4032,-3.5901,-3.936,-4.0716,-4.1486,-4.1922,-4.0728,-3.9827,-3.9606,-3.9056,-3.8028,-3.6413,-3.4344,-3.2399,-3.0577,-2.8411,-2.6539,-2.5144,0.0,0.0,0.0,0.0,0.0,0.0,0.0,0.0,0.0,0.0,0.0,0.0,0.0,0.0,0.0,0.0,0.0,0.0,0.0,0.0,0.0,0.0,0.0,0.0,0.0,0.0,0.0,0.0,0.0,-3.7309,-3.935,0.0,0.0,0.0,0.0,-4.0655,-4.0838,-4.1866,-4.4214,-4.4415,-4.592,-4.904,-5.0105,-5.1756,-5.4142,-5.5023,-5.55,-5.5559,-5.5559,-5.5537,-5.5596,-5.5596,-5.5596,-5.55,-5.473,-5.4363,-5.4106,-5.1573,-4.9554,-4.7829,-4.6287,-4.5626,-4.5553,-4.5626,-4.5663,-4.5773,-4.6562,-4.5828,-4.4507,-4.4488,-4.2323,-3.9717,-3.968,-3.8521,0.0,0.0,-4.1442,-4.2433,-4.4048,-4.5112,-4.5773,-4.5736,-4.5186,-4.4655,-4.44,-4.2812,-4.1233,-4.0617,-3.9114,-3.7469,-3.5919,0.0,-3.3603,-3.4557,-3.6015,-3.7656,-3.9402,-4.0971,-4.1698,-4.1052,-4.0329,-3.957,-3.8836,-3.8726,-3.8028,-3.6413,-3.5408,-3.3793,-3.1433,-2.9769,-2.8473,-2.7651,-2.5328,0.0,0.0,0.0,0.0,0.0,0.0,0.0,0.0,0.0,0.0,0.0,0.0,0.0,0.0,0.0,0.0,0.0,0.0,0.0,0.0,0.0,0.0,0.0,0.0,0.0,0.0,0.0,0.0,-4.0451,-4.2249,0.0,-4.2599,-4.2563,-4.3223,-4.4838,-4.5425,-4.6361,-4.7755,-4.9334,-5.0692,-5.183,-5.3702,-5.506,-5.5941,-5.6748,-5.7152,-5.7152,-5.7152,-5.7152,-5.7152,-5.7152,-5.6859,-5.6345,-5.6088,-5.5354,-5.4326,-5.3482,-5.1867,-4.9811,-4.871,-4.7939,-4.7498,-4.8049,-4.8288,-4.8325,-4.86,-4.7976,-4.6764,-4.5205,-4.3938,-4.291,-4.2359,-4.1825,-4.1662,-4.2971,-4.3504,-4.3871,-4.4892,-4.5709,-4.6035,-4.4979,-4.4907,-4.474,-4.3382,-4.2031,-4.1114,-4.1238,-3.9993,-3.8664,-3.7775,-3.6854,-3.6571,-3.7436,-3.8015,-3.8972,-4.0619,-4.0836,-4.0817,-4.0722,-3.9772,-3.9019,-3.8726,-3.8689,-3.8028,-3.6413,-3.5481,-3.3903,-3.1507,-3.0356,-2.9145,-2.7835,-2.5925,-2.4527,0.0,0.0,0.0,0.0,0.0,0.0,0.0,0.0,0.0,0.0,0.0,0.0,0.0,0.0,0.0,0.0,0.0,0.0,0.0,0.0,0.0,0.0,0.0,0.0,0.0,-3.9423,-4.1699,-4.3314,-4.4929,-4.5902,-4.5902,-4.5902,-4.6471,-4.7829,-4.8453,-4.9224,-5.0345,-5.194,-5.3041,-5.3592,-5.5427,-5.6528,-5.6822,-5.7593,-5.7997,-5.7997,-5.7997,-5.7973,-5.7927,-5.7904,-5.7587,-5.7052,-5.6795,-5.5916,-5.4657,-5.44,-5.3155,-5.1433,-5.1002,-5.0472,-5.0031,-5.0582,-5.0639,-5.0381,-5.0124,-4.9627,-4.8857,-4.6948,-4.6361,-4.6214,-4.5369,-4.5112,-4.5205,-4.5644,-4.5583,-4.5481,-4.5864,-4.6203,-4.6148,-4.4818,-4.471,-4.4396,-4.2537,-4.1094,-4.0222,-4.0472,-4.0044,-3.9552,-3.9277,-3.9002,-3.8903,-3.9207,-3.9459,-4.0016,-4.1088,-4.0554,-4.0146,-4.0384,-3.9249,-3.8517,-3.8517,-3.8517,-3.7823,-3.623,-3.5338,-3.3766,-3.1367,-3.049,-2.9454,-2.8102,-2.6158,-2.4725,-2.3774,0.0,0.0,0.0,0.0,0.0,0.0,0.0,0.0,0.0,0.0,0.0,0.0,0.0,0.0,0.0,0.0,0.0,0.0,0.0,0.0,0.0,0.0,0.0,-3.8542,-4.1552,-4.4158,-4.5773,-4.7425,-4.8416,-4.8453,-4.8489,-4.8893,-4.9721,-4.9794,-5.0455,-5.194,-5.205,-5.2747,-5.4289,-5.5133,-5.5941,-5.6748,-5.7593,-5.7997,-5.7997,-5.7997,-5.7927,-5.781,-5.7631,-5.7559,-5.7522,-5.6757,-5.5955,-5.5153,-5.4351,-5.3549,-5.2842,-5.3082,-5.3203,-5.3203,-5.3203,-5.2653,-5.1846,-5.1075,-5.0819,-5.0635,-4.9848,-4.9591,-4.9407,-4.8507,-4.825,-4.8212,-4.7959,-4.7601,-4.7248,-4.7057,-4.6682,-4.6177,-4.5421,-4.4643,-4.3655,-4.1961,-4.0075,-3.8646,-3.8482,-3.9282,-4.0092,-4.0337,-4.0623,-4.0527,-3.9676,-4.0273,0.0,-4.0721,-4.0096,-3.9759,-3.9954,-3.8833,-3.8068,-3.8068,-3.8032,-3.7397,-3.5856,-3.4987,-3.3465,-3.1061,-3.0206,-2.9396,-2.8574,-2.6069,-2.4301,-2.3424,0.0,0.0,0.0,0.0,0.0,0.0,0.0,0.0,0.0,0.0,0.0,0.0,0.0,0.0,0.0,0.0,0.0,0.0,0.0,0.0,0.0,-3.7566,-3.9276,-4.0288,-4.3204,-4.5847,-4.7462,-4.9627,-5.1206,-5.1793,-5.2894,-5.3665,-5.3943,-5.3943,-5.3628,-5.2931,-5.2858,-5.2821,-5.2637,-5.3995,-5.5133,-5.5904,-5.7299,-5.7997,-5.7997,-5.7997,-5.7881,-5.7631,-5.7252,-5.7102,-5.7163,-5.6884,-5.6342,-5.5618,-5.5328,-5.446,-5.3217,-5.3016,-5.2893,-5.2893,-5.2893,-5.2273,-5.1377,-5.1195,-5.07,-5.0083,-4.9283,-4.9029,-4.8774,-4.7434,-4.6997,-4.6828,-4.5926,-4.5473,-4.5156,-4.4855,-4.4976,-4.4946,-4.4176,-4.3827,-4.3312,-4.2135,-4.0078,-3.8562,-3.8924,-3.8706,-3.8732,-3.9537,-4.0342,-4.0789,-4.0605,-4.0755,-4.0882,-4.0906,-3.9743,-3.9013,-3.9244,-3.8187,-3.7469,-3.7469,-3.6898,-3.6167,-3.5151,-3.3865,-3.2331,-3.0502,-2.9676,-2.8641,-2.7255,-2.6432,-2.527,0.0,0.0,0.0,0.0,0.0,0.0,0.0,0.0,0.0,0.0,0.0,0.0,0.0,0.0,0.0,0.0,0.0,0.0,0.0,0.0,0.0,0.0,-4.0414,-4.2323,-4.3443,-4.5516,-4.7498,-4.915,-5.1206,-5.2821,-5.3628,-5.484,-5.5596,-5.5596,-5.5596,-5.5023,-5.3775,-5.3408,-5.2983,-5.2428,-5.3609,-5.459,-5.535,-5.6912,-5.7655,-5.7655,-5.7655,-5.7486,-5.7127,-5.6731,-5.6555,-5.6537,-5.6582,-5.6089,-5.5329,-5.5336,-5.444,-5.2982,0.0,0.0,0.0,0.0,-5.1872,-5.1179,-5.1179,-5.0833,-5.033,-4.9518,-4.9052,-4.8501,-4.6944,-4.6033,-4.5329,-4.4242,-4.3496,-4.2959,-4.2998,-4.3356,-4.3588,-4.3115,-4.3228,-4.3039,-4.1517,-3.987,-3.8649,-3.8676,-3.8241,0.0,-3.9088,-4.0106,-4.0767,-4.0789,-4.0802,-4.0767,-4.0789,-3.9468,-3.8592,-3.8825,-3.7706,-3.6958,-3.6958,-3.6536,0.0,0.0,0.0,-3.2,-3.0069,-2.9593,0.0,0.0,0.0,0.0,0.0,0.0,0.0,0.0,-2.3782,-2.4364,0.0,0.0,0.0,0.0,0.0,0.0,0.0,0.0,0.0,0.0,0.0,0.0,0.0,0.0,0.0,0.0,-4.2837,-4.5388,-4.7003,-4.8086,-4.926,-5.0765,-5.227,-5.3555,-5.4436,-5.5244,-5.5757,-5.5868,-5.589,-5.5464,-5.4583,-5.3775,0.0,0.0,0.0,-5.4213,-5.4894,-5.6342,-5.7025,-5.7025,-5.7025,-5.6793,-5.6357,-5.6055,-5.5865,-5.5758,-5.5894,-5.5476,-5.4734,-5.4803,-5.3918,-5.2422,-5.2813,-5.2642,-5.2066,-5.1799,-5.1414,-5.1043,-5.1043,0.0,0.0,-5.0072,-4.9392,-4.8533,-4.6848,-4.5352,-4.4009,-4.3007,-4.1869,-4.107,-4.1508,-4.1955,-4.2286,-4.2286,-4.2861,-4.2834,-4.0772,-3.9715,-3.8903,-3.8159,-3.8024,-3.8227,-3.887,-3.9876,-4.0524,-4.0485,-4.05,-4.0524,-4.0461,-3.92,-3.8368,-3.8516,-3.7301,0.0,-3.6492,-3.6422,-3.6076,-3.5327,-3.3906,-3.2085,-2.985,-2.9746,-2.9712,-2.9608,-2.88,-2.8373,-2.8408,-2.7641,-2.8013,-2.9314,-2.7029,-2.681,0.0,0.0,0.0,0.0,0.0,0.0,0.0,0.0,0.0,0.0,0.0,0.0,0.0,0.0,0.0,-4.2396,-4.4415,-4.6214,-4.7865,-4.9921,-5.1389,-5.172,-5.2637,-5.3775,-5.5207,-5.6088,-5.6859,-5.7483,-5.7519,-5.6895,-5.5427,-5.462,-5.3778,-5.2878,-5.3179,-5.3652,-5.4266,-5.5428,-5.5976,-5.5976,-5.5976,0.0,-5.5536,-5.5094,-5.4918,-5.4926,-5.4918,-5.4813,-5.4683,-5.4674,-5.3704,-5.2271,-5.1759,-5.1556,-5.1525,-5.1114,-5.0803,-5.053,-5.053,-5.053,-5.039,-4.9622,-4.9237,-4.8714,-4.6523,-4.5232,0.0,-4.2608,-4.1447,-4.0669,-4.0607,-4.146,-4.2286,-4.2286,-4.2861,-4.3105,-4.2083,-4.0857,-3.9673,-3.8937,-3.8768,-3.8836,-3.8971,-3.9655,-4.0179,-4.0188,-4.0213,-4.0179,-4.0188,-3.8899,-3.8007,-3.8031,-3.6695,-3.5766,-3.5766,-3.5244,-3.4857,-3.4666,-3.3291,-3.174,-3.0088,-3.002,-2.9748,-2.9154,-2.8949,-2.915,-2.9743,-3.0146,-3.0804,-3.1616,-2.9382,-2.945,0.0,0.0,0.0,0.0,0.0,0.0,0.0,0.0,0.0,0.0,0.0,-3.8358,-3.9129,0.0,-4.2837,-4.4452,-4.6397,-4.8306,-4.9921,-5.1903,-5.2894,-5.2087,-5.3408,-5.4671,-5.5434,-5.6539,-5.7348,-5.7679,-5.7667,-5.7072,-5.5869,-5.5043,-5.4249,-5.346,-5.3441,-5.3645,-5.415,-5.4909,-5.5297,-5.5297,-5.5297,-5.5154,-5.4892,-5.4548,-5.4394,-5.4333,-5.4394,-5.4394,-5.4299,-5.3473,-5.2712,-5.1977,-5.0812,-5.0495,-5.0643,-5.0356,-5.0028,-4.9708,-4.9708,-4.9708,-4.9639,-4.9232,-4.8855,-4.8169,-4.6282,-4.491,-4.3649,-4.2048,-4.1016,-4.043,-4.0688,-4.1527,-4.2388,-4.276,-4.3436,-4.3673,-4.2523,-4.1711,-4.0891,-3.9774,-3.9571,-3.9571,-3.9571,-3.9876,-4.0113,-4.0113,-4.0113,-4.0113,-4.0113,-3.8802,-3.7922,-3.7922,-3.6512,-3.56,-3.56,-3.5261,-3.4878,-3.4506,-3.3816,-3.2733,-3.1258,-3.119,-3.0852,-3.0127,-3.0465,-3.0838,-3.119,-3.1935,-3.2679,-3.3376,-3.2293,-3.2158,0.0,0.0,0.0,0.0,0.0,0.0,0.0,-3.4394,-3.5422,-3.6927,-3.9019,-4.0855,-4.1629,-4.3482,-4.5187,-4.6121,-4.819,-5.0204,-5.1632,-5.3243,-5.3719,-5.2254,-5.4173,-5.5603,-5.5592,-5.6598,-5.7231,-5.7239,-5.7025,-5.6608,-5.5995,-5.5346,-5.4784,-5.4331,-5.3973,-5.3929,-5.422,-5.4487,-5.4614,-5.4614,-5.4614,-5.4523,-5.4306,-5.4108,-5.4013,-5.3882,-5.4045,-5.3979,-5.378,-5.2245,-5.1694,-5.1617,-5.0021,-4.9585,-4.978,-4.9644,-4.935,-4.9018,-4.9018,-4.9018,-4.9018,-4.9018,-4.8612,-4.7868,-4.638,-4.4959,-4.3511,-4.2049,-4.1102,-4.0654,-4.1271,-4.1948,-4.2658,-4.324,-4.4012,-4.4242,-4.2794,-4.2388,-4.1914,-4.0587,-4.0214,-4.0113,-4.0113,-4.0113,-4.0113,-4.0113,-3.9977,-3.991,-3.991,-3.8599,-3.7686,-3.7686,-3.6411,-3.56,-3.56,-3.56,-3.5329,-3.4742,-3.4709,-3.41,-3.2801,-3.2598,-3.2192,-3.1447,-3.1989,-3.2361,-3.253,-3.3254,-3.3998,-3.4709,-3.4709,-3.4404,-3.1458,-3.2118,-3.3476,-3.427,-3.5642,-3.7015,0.0,-3.8652,-3.946,-4.0377,-4.1919,-4.3333,-4.4071,-4.4912,-4.595,-4.7361,-4.8929,-5.0264,-5.1171,-5.2658,-5.3347,-5.244,-5.4267,-5.5778,-5.6221,-5.6067,-5.6104,-5.6563,-5.615,-5.5829,-5.5758,-5.5652,-5.5476,-5.5168,-5.4725,-5.4399,-5.4193,-5.3848,-5.3651,-5.3651,-5.3651,-5.3651,-5.3584,-5.3584,-5.3551,-5.3585,-5.3551,-5.3551,-5.3449,-5.1893,-5.1282,-5.1146,-4.9656,-4.9077,-4.9138,-4.9229,-4.9138,-4.9018,-4.9018,-4.9018,-4.9018,-4.9018,-4.8951,-4.8612,-4.7124,-4.6109,-4.5128,-4.3578,-4.2625,-4.2049,-4.2151,-4.2726,-4.3301,-4.3375,-4.4012,-4.435,-4.347,-4.276,-4.2049,-4.1238,-4.0527,-4.0113,-4.0113,-4.0113,-4.0113,-4.0113,-3.9512,-3.9106,-3.9106,-3.7845,-3.6931,-3.6931,-3.6129,-3.56,-3.56,-3.56,-3.5566,-3.5464,-3.5464,-3.5115,-3.4269,-3.3626,-3.2916,-3.2192,-3.2259,-3.2611,-3.3288,-3.3998,-3.4776,-3.5464,-3.5464,-3.543,-3.3844,-3.4357,-3.5569,-3.6853,-3.8726,-4.0377,-4.0708,-4.1772,-4.28,-4.3113,-4.4488,-4.5645,-4.5824,-4.6626,-4.7557,-4.8515,-5.0128,-5.1351,-5.1722,-5.2809,-5.311,-5.1907,-5.2186,-5.2943,-5.4302,-5.4507,-5.4741,-5.5178,-5.5232,-5.5243,-5.5243,-5.5243,-5.5094,-5.483,-5.4551,-5.4235,-5.3913,-5.3651,-5.3518,-5.3518,-5.3518,-5.3518,-5.3518,-5.3518,-5.3518,-5.3518,-5.3518,-5.3518,-5.3382,-5.186,-5.1185,-5.1082,-4.9593,-4.9018,-4.9018,-4.9046,-4.9046,-4.9018,-4.9018,-4.9018,-4.9018,-4.9018,-4.9018,-4.8815,-4.7767,-4.6921,-4.6109,-4.506,-4.4215,-4.3667,-4.3667,-4.3842,-4.4079,-4.4079,-4.435,-4.4378,-4.3544,-4.3139,-4.2591,-4.1441,-4.0933,-4.0595,-4.018,-4.0113,-3.9943,-3.9512,-3.9174,-3.9005,-3.9005,-3.7709,-3.6626,-3.6163,-3.5802,-3.56,-3.56,-3.56,-3.56,-3.56,-3.56,-3.5261,-3.4539,-3.4201,-3.3694,-3.2949,-3.3355,-3.3728,-3.4032,-3.4744,-3.5217,-3.5396,-3.536,-3.5258,-3.5445,-3.6303,-3.7661,-3.9276,-4.1332,-4.3003,-4.3206,-4.4124,-4.5022,-4.5242,-4.6048,-4.6741,-4.7001,-4.7572,-4.8263,-4.9043,-5.0539,-5.1649,-5.1676,-5.2427,-5.2403,-5.0902,-4.9867,-4.9908,-5.1393,-5.2254,-5.2971,-5.3626,-5.3975,-5.4278,-5.4488,-5.4488,-5.4428,-5.4242,-5.4078,-5.3915,-5.3651,-5.3551,-5.3518,-5.3518,-5.3518,-5.3518,-5.3518,-5.3518,-5.3518,-5.3518,-5.3518,-5.3518,-5.3416,-5.2063,-5.1522,-5.1386,-4.9898,-4.9289,-4.9289,-4.9086,-4.9018,-4.9018,-4.9018,-4.9018,-4.9018,-4.9018,-4.9018,-4.8849,-4.8108,-4.7394,-4.665,-4.5906,-4.5162,-4.4615,-4.4615,-4.4615,-4.4615,-4.4615,-4.4615,-4.4445,-4.3876,-4.3572,-4.3071,-4.2016,-4.1474,-4.1035,-4.0519,-4.0248,-3.991,-3.9377,-3.8937,-3.8633,-3.8396,-3.7269,-3.6231,-3.5667,-3.56,-3.56,-3.56,-3.56,-3.56,-3.56,-3.56,-3.5363,-3.4844,-3.4607,-3.4235,-3.3728,-3.4235,-3.4506,-3.4506,-3.5127,-3.5337,-3.5118,-3.493,-3.4763,-3.6046,-3.7991,-4.0157,-4.1772,-4.3424,-4.482,-4.5553,-4.5624,-4.5767,-4.657,-4.6132,-4.6074,-4.7415,-4.7341,-4.7438,-4.8632,-4.974,-5.046,-5.046,-5.1087,-5.1011,-4.9443,-4.7936,-4.7239,-4.781,-4.9299,-5.0732,-5.1993,-5.225,-5.2705,-5.3484,-5.3517,-5.3517,-5.3551,-5.3517,-5.3551,-5.3518,-5.3518,-5.3518,-5.3518,-5.3518,-5.3518,-5.3518,-5.3518,-5.3518,-5.3518,-5.3518,-5.3518,-5.345,-5.2604,-5.2266,-5.2131,-5.0642,-5.0067,-4.9965,-4.9255,-4.9018,-4.9018,-4.9018,-4.9018,-4.9018,-4.9018,-4.9018,-4.8849,-4.8108,-4.7394,-4.665,-4.5906,-4.5162,-4.4615,-4.4615,-4.4615,-4.4615,-4.4615,-4.4615,-4.4615,-4.4581,-4.3944,-4.3375,-4.3341,-4.2185,-4.1204,-4.117,-4.0561,-4.0079,-4.0079,-3.8836,-3.7686,-3.6965,-3.6163,-3.5633,-3.56,-3.56,-3.56,-3.56,-3.56,-3.56,-3.56,-3.56,-3.56,-3.5566,-3.4878,-3.4472,-3.4472,-3.4472,-3.4506,-3.4506,-3.5037,-3.5095,-3.4616,-3.4358,-3.4036,-3.7881,-3.968,-4.1222,-4.3351,-4.5095,-4.6305,-4.6428,-4.665,-4.6721,-4.6524,-4.6214,-4.6277,-4.7183,-4.7759,-4.8438,-4.9616,-5.0454,-5.0738,-5.0256,-4.9983,-4.9124,-4.7107,-4.5979,-4.5029,-4.4204,-4.6213,-4.8295,-4.9991,-5.1038,-5.1928,-5.2672,-5.3213,-5.3518,-5.3518,-5.3518,-5.3518,-5.3518,-5.3518,-5.3518,-5.3518,-5.3518,-5.3518,-5.3518,-5.3518,-5.3518,-5.3518,-5.3518,-5.3518,-5.345,-5.2638,-5.23,-5.2164,-5.0676,-5.0101,-4.9999,-4.9255,-4.9018,-4.9018,-4.9018,-4.9018,-4.9018,-4.9018,-4.9018,-4.8951,-4.8714,-4.7767,-4.6752,-4.6481,-4.5534,-4.4615,-4.4615,-4.4615,-4.4615,-4.4615,-4.4615,-4.4615,-4.4615,-4.4412,-4.4045,-4.3477,-4.3003,-4.2354,-4.1373,-4.1001,-4.0493,-3.9512,-3.8531,-3.7618,-3.6897,-3.6096,-3.5802,-3.6332,-3.5926,-3.56,-3.56,-3.56,-3.56,-3.56,-3.5566,-3.5498,-3.5406,-3.5069,-3.4866,-3.4774,-3.4774,-3.4774,-3.4774,-3.4655,-3.4472,-3.4143,-3.3707,-3.3371,-3.99,-4.1772,-4.3277,-4.5095,-4.6562,-4.7478,-4.7265,-4.7327,-4.7204,-4.6425,-4.5714,-4.5444,-4.6043,-4.6543,-4.7206,-4.8375,-4.9398,-4.9864,-4.939,-4.8917,-4.8105,-4.6684,-4.5602,-4.4587,-4.3606,-4.4865,-4.6317,-4.7848,-4.9455,-5.0845,-5.186,-5.2942,-5.3518,-5.3518,-5.3518,-5.3518,-5.3518,-5.3518,-5.3518,-5.3518,-5.3518,-5.3518,-5.3518,-5.3518,-5.3518,-5.3518,-5.3518,-5.3518,-5.345,-5.2942,-5.257,-5.2198,-5.098,-5.0338,-4.9999,-4.9255,-4.9018,-4.9018,-4.9018,-4.9018,-4.9018,-4.9018,-4.9018,-4.9018,-4.9018,-4.8139,-4.7158,-4.6853,-4.5906,-4.4925,-4.4682,-4.4615,-4.4615,-4.4615,-4.4615,-4.4615,-4.4615,-4.4615,-4.4445,-4.3944,-4.3606,-4.3003,-4.1813,-4.117,-4.0392,-3.9174,-3.8599,-3.8024,-3.728,-3.6738,-3.6535,-3.6761,-3.6332,-3.5904,-3.5633,-3.56,-3.56,-3.56,-3.5498,-3.5314,-3.5038,-3.4883,-3.4658,-3.444,-3.444,-3.444,-3.444,-3.4093,-3.3739,-3.3429,-3.3033,-3.2656,-4.2029,-4.4195,-4.614,-4.6966,-4.7736,-4.8248,-4.8052,-4.771,-4.7162,-4.6248,-4.4683,-4.3578,-4.4037,-4.3803,-4.3951,-4.5165,-4.6755,-4.7838,-4.7872,-4.7906,-4.7906,-4.7906,-4.665,-4.5737,-4.5703,-4.506,-4.4925,-4.5669,-4.7767,-4.9661,-5.115,-5.2672,-5.3518,-5.3518,-5.3518,-5.3518,-5.3518,-5.3518,-5.3518,-5.3518,-5.3518,-5.3518,-5.3518,-5.3518,-5.3518,-5.3518,-5.3518,-5.3518,-5.3518,-5.3518,-5.3044,-5.2266,-5.1522,-5.0777,-5.0067,-4.9289,-4.9018,-4.9018,-4.9018,-4.9018,-4.9018,-4.9018,-4.9018,-4.9018,-4.9018,-4.8477,-4.7736,-4.7056,-4.6312,-4.5602,-4.4852,-4.4682,-4.4649,-4.4615,-4.4615,-4.4615,-4.4615,-4.4615,-4.4615,-4.4615,-4.391,-4.3132,-4.2422,-4.1094,-3.9876,-3.914,-3.9039,-3.8802,-3.8058,-3.7922,-3.7628,-3.6975,-3.6806,-3.6468,-3.5678,-3.5611,-3.56,-3.56,-3.5406,-3.5095,-3.4616,-3.4301,-3.3978,-3.3572,-3.3572,-3.3572,-3.3572,-3.3287,-3.2975,-3.2574,-3.2302,-3.1938,-4.4232,-4.5883,-4.6966,-4.7773,-4.8159,-4.8248,-4.8052,-4.7218,-4.6095,-4.4561,-4.2772,-4.1469,-4.1484,-4.153,-4.2202,-4.4079,-4.588,-4.7259,-4.7804,-4.7906,-4.7906,-4.7906,-4.709,-4.6312,-4.5771,-4.5534,-4.55,-4.5703,-4.7767,-4.9661,-5.115,-5.2672,-5.3518,-5.3518,-5.3518,-5.3518,-5.3518,-5.3518,-5.3518,-5.3518,-5.3518,-5.3518,-5.3518,-5.3518,-5.3518,-5.3518,-5.3518,-5.3518,-5.3518,-5.3518,-5.3382,-5.3078,-5.1725,-5.1116,-5.0777,-4.9492,-4.9018,-4.9018,-4.9018,-4.9018,-4.9018,-4.9018,-4.9018,-4.9018,-4.9018,-4.8477,-4.7838,-4.7669,-4.709,-4.6346,-4.5602,-4.5432,-4.5263,-4.475,-4.4615,-4.4615,-4.4615,-4.4615,-4.4615,-4.4615,-4.3504,-4.2523,-4.232,-4.1094,-4.0045,-3.9842,-3.9842,-3.9571,-3.8802,-3.8154,-3.7831,-3.8102,-3.7163,-3.6424,-3.6165,-3.5755,-3.5543,-3.56,-3.5337,-3.4906,-3.4333,-3.3993,-3.3585,-3.3029,-3.2997,-3.2997,-3.2997,-3.2734,-3.2492,-3.2302,-3.2025,-3.1769,-4.5736,-4.7003,-4.7736,-4.8138,-4.8209,-4.8002,-4.7474,-4.6442,-4.4956,-4.2849,-4.0922,-3.9517,-3.9237,-3.9544,-4.0455,-4.2544,-4.451,-4.6075,-4.6853,-4.665,-4.6684,-4.7361,-4.6786,-4.6278,-4.6177,-4.6481,-4.6684,-4.6684,-4.8139,-4.9492,-5.0676,-5.2503,-5.3518,-5.3518,-5.3518,-5.3518,-5.3518,-5.3518,-5.3518,-5.3518,-5.3518,-5.3518,-5.3518,-5.3518,-5.3518,-5.3518,-5.3518,-5.3518,-5.3518,-5.3518,-5.3281,-5.2875,-5.1691,-5.1014,-5.0574,-4.9424,-4.9018,-4.9018,-4.9018,-4.9018,-4.9018,-4.9018,-4.9018,-4.9018,-4.9018,-4.8714,-4.8342,-4.7973,-4.7597,-4.7056,-4.5974,-4.5703,-4.55,-4.4784,-4.4615,-4.4615,-4.4615,-4.4615,-4.4615,-4.4615,-4.3335,-4.2286,-4.2286,-4.1094,-4.0113,-4.0113,-4.0113,-3.9943,-3.9537,-3.8958,-3.8497,-3.8284,-3.7535,-3.6771,-3.6049,-3.5842,-3.5742,-3.5611,-3.5211,-3.4682,-3.3953,-3.3527,-3.298,-3.2244,-3.2244,-3.2244,-3.2244,-3.2079,-3.1966,-3.1881,-3.1741,-3.1747,-4.6819,-4.7773,-4.8267,-4.8207,-4.7959,-4.749,-4.6488,-4.5168,-4.3421,-4.0907,-3.8788,-3.7271,-3.6955,-3.7359,-3.8424,-4.0585,-4.2833,-4.4553,-4.5297,-4.4925,-4.5122,-4.6481,-4.6075,-4.6075,-4.6989,-4.7767,-4.821,-4.8311,-4.9018,-4.9661,-5.0202,-5.23,-5.3518,-5.3518,-5.3518,-5.3518,-5.3518,-5.3518,-5.3518,-5.3518,-5.3518,-5.3518,-5.3518,-5.3518,-5.3518,-5.3484,-5.3382,-5.3348,-5.3348,-5.3247,-5.2773,-5.2097,-5.1352,-5.0676,-4.9999,-4.9255,-4.9018,-4.9018,-4.9018,-4.9018,-4.9018,-4.9018,-4.9018,-4.9018,-4.9018,-4.9018,-4.8883,-4.824,-4.8041,-4.7733,-4.6244,-4.5838,-4.5635,-4.4818,-4.4615,-4.4615,-4.4615,-4.4615,-4.4615,-4.4615,-4.3403,-4.2455,-4.2455,-4.1204,-4.0248,-4.0248,-4.018,-4.0113,-4.0113,-3.9858,-3.9228,-3.8031,-3.7847,-3.7262,-3.5906,-3.5985,-3.6028,-3.5801,-3.5347,-3.4644,-3.3726,-3.3249,-3.257,-3.163,-3.172,-3.178,-3.178,-3.178,-3.178,-3.178,-3.178,-3.2079,-4.7645,-4.8196,-4.8248,-4.8072,-4.732,-4.6313,-4.5333,-4.2752,0.0,-3.8125,-3.5268,-3.3169,-3.3539,-3.3973,-3.5203,-3.8072,-4.0891,-4.2963,-4.3707,-4.4248,-4.4919,-4.5805,-4.5771,-4.6481,-4.8443,-4.9289,-4.9965,-5.0576,-5.1319,-5.1522,-5.1048,-5.2604,-5.3518,-5.3518,-5.3518,-5.3518,-5.3518,-5.3518,-5.3518,-5.3518,-5.3518,-5.3518,-5.3518,-5.3518,-5.3518,-5.345,-5.2807,-5.2503,-5.2469,-5.186,-5.1522,-5.1319,-5.0574,-5.0202,-4.9999,-4.9255,-4.9018,-4.9018,-4.9018,-4.9018,-4.9018,-4.9018,-4.9018,-4.9018,-4.9018,-4.9018,-4.8984,-4.8849,-4.8815,-4.8477,-4.6989,-4.6616,-4.6244,-4.4919,-4.4615,-4.4615,-4.4615,-4.4615,-4.4615,-4.4615,-4.3842,-4.3206,-4.3206,-4.1982,-4.1001,-4.1001,-4.0493,-4.0113,-4.0113,-3.9755,-3.9242,-3.8449,-3.7796,-3.7204,-3.6777,-3.6501,-3.6474,-3.6746,-3.6266,-3.5427,-3.4233,-3.4135,-3.3566,-3.2347,-3.2886,-3.3155,-3.3155,-3.3155,-3.3155,-3.3155,-3.3155,-3.3215,-4.7976,-4.8636,-4.8725,-4.7591,-4.6395,-4.5039,-4.3212,0.0,0.0,-3.5381,-3.2977,-3.144,-3.1918,-3.2468,-3.3829,-3.684,-3.9478,-4.1407,-4.2151,-4.2929,-4.3673,-4.4418,-4.4857,-4.5838,-4.7665,-4.8883,-4.9661,-5.0033,-5.0744,-5.1352,-5.1758,-5.2875,-5.3518,-5.3518,-5.3518,-5.3518,-5.3518,-5.3518,-5.3518,-5.3518,-5.3518,-5.3518,-5.3518,-5.3518,-5.3518,-5.345,-5.2638,-5.23,-5.2232,-5.1522,-5.1185,-5.115,-5.0371,-5.0101,-4.9999,-4.9255,-4.9018,-4.9018,-4.9018,-4.9018,-4.9018,-4.9018,-4.9018,-4.9018,-4.9018,-4.9018,-4.9018,-4.9018,-4.9018,-4.8646,-4.7192,-4.6786,-4.6413,-4.4953,-4.4615,-4.4615,-4.4615,-4.4615,-4.4615,-4.4615,-4.3944,-4.3375,-4.3375,-4.2185,-4.1204,-4.1204,-4.0561,-4.0113,-4.0113,-3.9677,-3.9034,-3.8222,-3.768,-3.7042,-3.6256,-3.6197,-3.6208,-3.6285,-3.5878,-3.528,-3.4429,-3.4286,-3.3877,-3.3036,-3.3335,-3.3484,-3.3484,-3.3484,-3.3484,-3.3484,-3.3484,-3.3694,-4.8067,-4.8783,-4.8835,-4.6892,-4.5147,-4.3319,-4.0831,-3.7807,-3.4911,-3.28,-3.0967,-2.9932,-3.0428,-3.1114,-3.2564,-3.5577,-3.7956,-3.9715,-4.0595,-4.1508,-4.2354,-4.3098,-4.4012,-4.5258,-4.6887,-4.8376,-4.9289,-4.9458,-4.9999,-5.0845,-5.1995,-5.2672,-5.3078,-5.3247,-5.3247,-5.3348,-5.3518,-5.3518,-5.3518,-5.3518,-5.3348,-5.3247,-5.3247,-5.3078,-5.301,-5.2976,-5.2164,-5.1826,-5.1758,-5.1048,-5.0744,-5.0676,-5.0101,-4.9864,-4.9796,-4.9221,-4.9018,-4.9018,-4.9018,-4.9018,-4.9018,-4.9018,-4.9018,-4.9018,-4.9018,-4.9018,-4.9018,-4.9018,-4.9018,-4.8714,-4.7394,-4.6921,-4.6413,-4.4953,-4.4615,-4.4615,-4.4615,-4.4615,-4.4615,-4.4615,-4.4079,-4.3673,-4.3673,-4.2422,-4.1441,-4.1441,-4.0663,-4.0113,-4.0113,-3.9592,-3.8865,-3.7908,-3.7533,-3.6867,-3.5767,-3.5946,-3.6021,-3.5887,-3.5628,-3.5221,-3.4656,-3.4513,-3.4182,-3.3725,-3.3844,-3.3933,-3.3933,-3.3933,-3.3933,-3.3933,-3.3933,-3.4203,-4.8067,-4.8379,-4.7953,-4.5939,-4.3272,-4.0654,-3.8628,0.0,-3.1458,-3.0556,-2.8605,-2.7284,-2.7977,-2.8755,-3.0262,-3.322,-3.5622,-3.7608,-3.9005,-4.0426,-4.1576,-4.232,-4.3673,-4.5432,-4.7597,-4.912,-5.027,-5.098,-5.1082,-5.1183,-5.1286,-5.1354,-5.1725,-5.2401,-5.2401,-5.2773,-5.3484,-5.3518,-5.3518,-5.3484,-5.2773,-5.2401,-5.2401,-5.1725,-5.1388,-5.1386,-5.0608,-5.0304,-5.0236,-4.9526,-4.9221,-4.9221,-4.912,-4.912,-4.9086,-4.9018,-4.9018,-4.9018,-4.9018,-4.9018,-4.9018,-4.9018,-4.9018,-4.9018,-4.9018,-4.9018,-4.9018,-4.9018,-4.9018,-4.8815,-4.8037,-4.7293,-4.6413,-4.4953,-4.4615,-4.4615,-4.4615,-4.4615,-4.4615,-4.4615,-4.4547,-4.4513,-4.4513,-4.3227,-4.2185,-4.2185,-4.0993,-4.0113,-4.0113,-3.9592,-3.8865,-3.7908,-3.7445,-3.6906,-3.6198,-3.6353,-3.6569,-3.6779,-3.6507,-3.6014,-3.5186,-3.5396,-3.5204,-3.4414,-3.5011,-3.531,-3.531,-3.531,-3.531,-3.531,-3.531,-3.534,-4.7369,-4.792,-4.7696,-4.5193,-4.2318,-3.9498,-3.7061,-3.3427,-3.0345,-2.96,-2.7977,-2.6928,-2.7655,-2.806,-2.9127,-3.1664,-3.3931,-3.5757,-3.6806,-3.9005,-4.0629,-4.0959,-4.2313,-4.3938,-4.5737,-4.7225,-4.8612,-4.9796,-4.9898,-4.9898,-4.9898,-5.0744,-5.1555,-5.2266,-5.23,-5.2706,-5.3484,-5.3518,-5.3518,-5.3484,-5.2672,-5.23,-5.2266,-5.1555,-5.1185,-5.1183,-5.0405,-5.0101,-5.0033,-4.9289,-4.9018,-4.9018,-4.9018,-4.9018,-4.9018,-4.9018,-4.9018,-4.9018,-4.9018,-4.9018,-4.9018,-4.9018,-4.9018,-4.9018,-4.9018,-4.9018,-4.9018,-4.9018,-4.9018,-4.8849,-4.8075,-4.7022,-4.5872,-4.4852,-4.4615,-4.4615,-4.4615,-4.4615,-4.4615,-4.4615,-4.4615,-4.4615,-4.4615,-4.3301,-4.2286,-4.2286,-4.106,-4.0113,-4.0113,-3.9703,-3.9061,-3.8193,-3.7474,-3.6693,-3.5846,-3.5844,-3.5941,-3.6068,-3.5972,-3.5755,-3.5388,-3.5501,-3.5434,-3.51,-3.537,-3.5519,-3.5519,-3.5519,-3.5519,-3.5519,-3.5519,-3.5519,-4.6159,-4.6966,-4.6927,-4.4122,-4.1188,-3.8348,-3.5801,-3.2395,-2.9634,-2.9111,-2.7791,-2.686,-2.7384,-2.7452,-2.8229,-3.0514,-3.2374,-3.3998,-3.5397,-3.7821,-3.9537,-3.9774,-4.1068,-4.2557,-4.4079,-4.5974,-4.7665,-4.8917,-4.9018,-4.9018,-4.9018,-4.9999,-5.0913,-5.1623,-5.1657,-5.2029,-5.2807,-5.2841,-5.2841,-5.2807,-5.2029,-5.1657,-5.1623,-5.0913,-5.0574,-5.0541,-4.9999,-4.9763,-4.9729,-4.9221,-4.9018,-4.9018,-4.9018,-4.9018,-4.9018,-4.9018,-4.9018,-4.9018,-4.9018,-4.9018,-4.9018,-4.9018,-4.9018,-4.9018,-4.9018,-4.9018,-4.9018,-4.9018,-4.9018,-4.8781,-4.7834,-4.6819,-4.5771,-4.4852,-4.4615,-4.4615,-4.4615,-4.4615,-4.4615,-4.4615,-4.4615,-4.4615,-4.4615,-4.3504,-4.2625,-4.2625,-4.1542,-4.0756,-4.0756,-4.0251,-3.9607,-3.8912,-3.7892,-3.6814,-3.5748,-3.5587,-3.5554,-3.5489,-3.5519,-3.5519,-3.5519,-3.5519,-3.5519,-3.5519,-3.5519,-3.5519,-3.5519,-3.5519,-3.5519,-3.5519,-3.5519,-3.5519,-4.4525,-4.5333,-4.526,-4.2505,-3.9553,-3.6804,-3.4872,-3.1604,-2.901,-2.901,-2.7791,-2.6691,-2.6691,-2.6691,-2.7469,-2.9736,-3.0751,-3.2273,-3.5194,-3.6918,-3.8193,-3.8903,-4.0324,-4.1813,-4.3274,-4.6114,-4.8206,-4.8951,-4.9018,-4.9018,-4.9018,-4.9018,-4.9357,-5.0101,-5.0101,-5.0473,-5.1219,-5.1219,-5.1219,-5.1219,-5.0473,-5.0101,-5.0101,-4.9357,-4.9018,-4.9018,-4.9018,-4.9018,-4.9018,-4.9018,-4.9018,-4.9018,-4.9018,-4.9018,-4.9018,-4.9018,-4.9018,-4.9018,-4.9018,-4.9018,-4.9018,-4.9018,-4.9018,-4.9018,-4.9018,-4.9018,-4.9018,-4.9018,-4.9018,-4.8646,-4.7192,-4.6786,-4.6413,-4.4953,-4.4615,-4.4615,-4.4615,-4.4615,-4.4615,-4.4615,-4.4615,-4.4615,-4.4615,-4.3944,-4.3375,-4.3375,-4.276,-4.2286,-4.2286,-4.1405,-4.0615,-4.0139,-3.8902,-3.7504,-3.6132,-3.5816,-3.5653,-3.5489,-3.5519,-3.5519,-3.5519,-3.5519,-3.5519,-3.5519,-3.5519,-3.5519,-3.5519,-3.5519,-3.5519,-3.5519,-3.5519,-3.5519,-4.2012,-4.2837,-4.2898,-4.0706,-3.8295,-3.5828,-3.3368,-3.0829,-2.884,-2.8281,-2.7402,-2.6691,-2.6691,-2.6691,-2.7283,-2.9059,-2.9973,-3.1292,-3.3761,-3.5859,-3.7415,-3.8159,-4.0426,-4.276,-4.479,-4.6312,-4.7665,-4.8917,-4.9018,-4.9018,-4.9018,-4.9018,-4.9323,-5.0067,-5.0101,-5.0439,-5.1185,-5.1185,-5.1185,-5.1217,-5.0439,-5.0101,-5.0067,-4.9323,-4.9018,-4.9018,-4.9018,-4.9018,-4.9018,-4.9018,-4.9018,-4.9018,-4.9018,-4.9018,-4.9018,-4.9018,-4.9018,-4.9018,-4.9018,-4.9018,-4.9018,-4.9018,-4.9018,-4.9018,-4.9018,-4.9018,-4.9018,-4.9018,-4.9018,-4.8781,-4.78,-4.7192,-4.6549,-4.5568,-4.4987,-4.4615,-4.4615,-4.4615,-4.4615,-4.4615,-4.4615,-4.4615,-4.4615,-4.3944,-4.3375,-4.3375,-4.276,-4.2286,-4.2286,-4.1405,-4.0621,-4.0144,-3.8849,-3.7533,-3.6477,-3.6165,-3.591,-3.5522,-3.5519,-3.5519,-3.5519,-3.5519,-3.5519,-3.5519,-3.5519,-3.5519,-3.5519,-3.5519,-3.5519,-3.5519,-3.5519,-3.5519,-3.9334,-4.0341,-4.0553,-3.8908,-3.6841,-3.4677,-3.2564,-3.0245,-2.8416,-2.7891,-2.7215,-2.6691,-2.6691,-2.6691,-2.7199,-2.8739,-2.9397,-3.0649,-3.3423,-3.5543,-3.7506,-3.9343,-4.1677,-4.3809,-4.5534,-4.6616,-4.7699,-4.8917,-4.9018,-4.9018,-4.9018,-4.9018,-4.9221,-4.9661,-4.9661,-4.9898,-5.0371,-5.0371,-5.0371,-5.0371,-4.9898,-4.9661,-4.9661,-4.9221,-4.9018,-4.9018,-4.9018,-4.9018,0.0,-4.9018,-4.9018,-4.9018,-4.9018,-4.9018,-4.9018,-4.9018,-4.9018,-4.9018,-4.9018,-4.9018,-4.9018,-4.9018,-4.9018,-4.9018,-4.9018,-4.9018,-4.9018,-4.9018,-4.9018,-4.8849,-4.8075,-4.7361,-4.6616,-4.5872,-4.5128,-4.4615,-4.4615,-4.4615,-4.4615,-4.4615,-4.4615,-4.4615,-4.4615,-4.4181,-4.3741,-4.3443,-4.3031,-4.2625,-4.232,-4.1405,-4.0621,-4.0144,-3.9048,-3.7973,-3.7064,-3.6444,-3.5941,-3.5522,-3.5519,-3.5519,-3.5519,-3.5519,-3.5519,-3.5519,-3.5519,-3.5519,-3.5519,-3.5519,-3.5519,-3.5519,-3.5519,-3.5519,0.0,-3.7778,-3.8214,-3.708,-3.5228,-3.3402,-3.2197,-2.9781,0.0,-2.7722,-2.7199,-2.6691,-2.6691,-2.6725,-2.7283,-2.8773,-2.9077,-3.0398,-3.3998,-3.6017,-3.8454,-4.2042,-4.3741,-4.4993,-4.5771,-4.7124,-4.821,-4.8951,-4.9018,-4.9018,-4.9018,-4.9018,-4.9018,-4.9018,-4.9018,-4.9018,-4.9018,-4.9018,-4.9018,-4.9018,-4.9018,-4.9018,-4.9018,-4.9018,-4.9018,-4.9018,-4.9018,-4.9018,-4.9018,-4.9018,-4.9018,-4.9018,-4.9018,-4.9018,-4.9018,-4.9018,-4.9018,-4.9018,-4.9018,-4.9018,-4.9018,-4.9018,-4.9018,-4.9018,-4.9018,-4.9018,-4.9018,-4.9018,-4.9018,-4.8849,-4.8173,-4.7394,-4.6616,-4.594,-4.5162,-4.4615,-4.4615,-4.4615,-4.4615,-4.4615,-4.4615,-4.4615,-4.4615,-4.4615,-4.4378,-4.3606,-4.3443,-4.3166,-4.2455,-4.1439,-4.0615,-4.0139,-3.9495,-3.8669,-3.7685,-3.6687,-3.5937,-3.5612,-3.5519,-3.5519,-3.5519,-3.5519,-3.5519,-3.5519,-3.5519,-3.5519,-3.5519,-3.5549,-3.5579,-3.5579,-3.5639,-3.5639,-3.2675,0.0,-3.6209,-3.5078,-3.373,-3.228,0.0,-2.8904,-2.7655,-2.7063,-2.6826,-2.6691,-2.6691,-2.7165,-2.7875,-2.884,-2.9958,-3.1562,-3.4134,-3.7753,-4.1136,-4.3768,-4.4857,-4.594,-4.7229,-4.7703,-4.821,-4.8951,-4.9018,-4.9018,-4.9018,-4.9018,-4.9018,-4.9018,-4.9018,-4.9018,-4.9018,-4.9018,-4.9018,-4.9018,-4.9018,-4.9018,-4.9018,-4.9018,-4.9018,-4.9018,-4.9018,-4.9018,-4.9018,-4.9018,-4.9018,-4.9018,-4.9018,-4.9018,-4.9018,-4.9018,-4.9018,-4.9018,-4.9018,-4.9018,-4.9018,-4.9018,-4.9018,-4.9018,-4.9018,-4.9018,-4.9018,-4.9018,-4.9018,-4.8951,-4.8781,-4.7767,-4.6752,-4.6583,-4.5534,-4.4615,-4.4615,-4.4615,-4.4615,-4.4615,-4.4615,-4.4615,-4.4615,-4.4615,-4.4547,-4.4378,-4.3809,-4.3341,-4.3139,-4.1775,-4.0621,-4.0144,-3.9408,-3.858,-3.7747,-3.7212,-3.6732,-3.6271,-3.5789,-3.5519,-3.5519,-3.5519,-3.5519,-3.5519,-3.5519,-3.5519,-3.5519,-3.5998,-3.6237,-3.6267,-3.6746,-3.6956,-3.0796,-3.2373,-3.3689,-3.3377,-3.2173,-3.0835,-2.9713,-2.834,-2.7199,-2.6759,-2.6691,-2.6793,-2.7131,-2.7519,-2.8263,-2.977,-3.0973,-3.2949,-3.6569,-4.0358,-4.347,-4.5365,-4.6549,-4.753,-4.8342,-4.8379,-4.8578,-4.8984,-4.9018,-4.9018,-4.9018,-4.9018,-4.9018,-4.9018,-4.9018,-4.9018,-4.9018,-4.9018,-4.9018,-4.9018,-4.9018,-4.9018,-4.9018,-4.9018,-4.9018,-4.9018,-4.9018,-4.9018,-4.9018,-4.9018,-4.9018,-4.9018,-4.9018,-4.9018,-4.8951,-4.8612,-4.8511,-4.8443,-4.8105,-4.8003,-4.8037,-4.8409,-4.8511,-4.8578,-4.8917,-4.9018,-4.9018,-4.9018,-4.9018,-4.9018,-4.9018,-4.8173,-4.7293,-4.7293,-4.6177,-4.5094,-4.5094,-4.4852,-4.4615,-4.4615,-4.4615,-4.4615,-4.4615,-4.4615,-4.4479,-4.4079,-4.3673,-4.3139,-4.2489,-4.1775,-4.1015,-4.0177,-4.0021,-3.9594,-3.8678,-3.8319,-3.7646,-3.657,-3.6148,-3.5818,-3.5519,-3.5519,-3.5519,-3.5519,-3.5519,-3.5519,-3.5519,-3.6178,-3.6477,-3.6507,-3.7135,-3.7404,-2.994,-3.0568,-3.124,-3.202,-3.0976,-2.9712,-2.954,-2.8254,-2.7029,-2.7029,-2.7029,-2.7232,-2.7858,-2.8162,-2.8973,-3.1021,-3.2462,-3.4967,-3.9589,-4.276,-4.5156,-4.6616,-4.8003,-4.8883,-4.8984,-4.9018,-4.9018,-4.9018,-4.9018,-4.8951,-4.8849,-4.8951,-4.8951,-4.8849,-4.8951,-4.8951,-4.8849,-4.8951,-4.9018,-4.9018,-4.9018,-4.9018,-4.9018,-4.9018,-4.9018,-4.9018,-4.9018,-4.9018,-4.9018,-4.9018,-4.9018,-4.9018,-4.9018,-4.9018,-4.8917,-4.8142,-4.7906,-4.777,-4.7056,-4.6786,-4.6921,-4.7665,-4.7906,-4.8041,-4.8781,-4.9018,-4.9018,-4.9018,-4.9018,-4.9018,-4.9018,-4.8376,-4.7733,-4.7733,-4.6616,-4.5534,-4.5534,-4.5026,-4.4615,-4.4615,-4.4615,-4.4615,-4.4615,-4.4615,-4.4378,-4.3707,-4.3477,-4.2936,-4.1711,-4.1769,-4.1537,-4.0459,-4.0945,-4.0927,-3.9932,-3.9622,-3.8723,-3.7,-3.672,-3.6387,-3.5818,-3.5789,-3.5789,-3.5789,-3.5789,-3.5789,-3.5789,-3.6447,-3.6776,-3.6776,-3.7434,-3.7704,-2.9489,-2.9592,-2.9759,-3.1457,-3.1128,-3.0296,-3.0113,-2.9338,-2.8637,-2.8637,-2.8637,-2.8671,-2.8807,-2.9837,-3.0987,-3.1989,-3.5441,-3.8667,-4.0764,-4.3098,-4.5156,-4.6616,-4.7564,-4.8311,-4.8951,-4.9018,-4.9018,-4.9018,-4.9018,-4.8748,-4.8075,-4.868,-4.8714,-4.8075,-4.868,-4.8714,-4.8075,-4.8714,-4.9018,-4.9018,-4.9018,-4.9018,-4.9018,-4.9018,-4.9018,-4.9018,-4.9018,-4.9018,-4.9018,-4.9018,-4.9018,-4.9018,-4.9018,-4.9018,-4.8917,-4.8142,-4.7906,-4.777,-4.7056,-4.6786,-4.6921,-4.7665,-4.7906,-4.8041,-4.8781,-4.9018,-4.9018,-4.9018,-4.9018,-4.9018,-4.9018,-4.8003,-4.6955,-4.6955,-4.5838,-4.4784,-4.4784,-4.4682,-4.4615,-4.4615,-4.4615,-4.4615,-4.4615,-4.4615,-4.4581,-4.4418,-4.3842,-4.3308,-4.3071,-4.2463,-4.1902,-4.1499,-4.1683,-4.1547,-4.0674,-4.069,-4.0121,-3.8705,-3.7755,-3.7225,-3.7135,-3.7105,-3.7105,-3.7105,-3.7105,-3.7105,-3.7135,-3.7764,-3.8093,-3.8123,-3.8781,-3.9074,-2.8882,-2.9042,-2.9283,-3.059,-3.0863,-3.084,-3.0745,-3.0451,-3.0093,-2.9668,-2.96,-2.9702,-3.0127,-3.1075,-3.2699,-3.5475,-3.799,-4.0257,-4.2151,-4.3673,-4.5021,-4.6075,-4.6853,-4.7428,-4.7767,-4.78,-4.78,-4.78,-4.78,-4.7665,-4.7327,-4.7631,-4.7665,-4.7327,-4.7631,-4.7665,-4.7327,-4.7631,-4.8003,-4.8409,-4.8409,-4.8612,-4.8984,-4.8612,-4.8409,-4.8376,-4.797,-4.78,-4.78,-4.78,-4.78,-4.78,-4.771,-4.7585,-4.7426,-4.6505,-4.5969,-4.566,-4.5442,-4.5395,-4.5587,-4.6452,-4.6718,-4.6921,-4.8071,-4.8409,-4.8511,-4.8883,-4.9018,-4.9018,-4.9018,-4.8206,-4.7394,-4.7394,-4.6278,-4.5196,-4.5196,-4.4857,-4.4615,-4.4615,-4.4615,-4.4615,-4.4615,-4.4615,-4.4615,-4.4615,-4.4282,-4.391,-4.3443,-4.3449,-4.3232,-4.269,-4.2927,-4.2858,-4.2223,-4.1853,-4.0878,-3.8975,-3.7931,-3.7404,-3.7404,-3.7404,-3.7404,-3.7404,-3.7404,-3.7404,-3.7404,-3.8063,-3.8392,-3.8392,-3.911,-3.9373,-2.8409,-2.8527,-2.8739,-2.9837,-3.0649,-3.1224,-3.1427,-3.1481,-3.1326,-3.0954,-3.0886,-3.1055,-3.1596,-3.2632,-3.4595,-3.8362,-3.9918,-4.1245,-4.3139,-4.4079,-4.4886,-4.5602,-4.621,-4.6616,-4.6786,-4.6786,-4.6786,-4.6786,-4.6786,-4.6718,-4.6549,-4.6718,-4.6718,-4.6549,-4.6718,-4.6718,-4.6549,-4.6549,-4.6989,-4.7906,-4.7906,-4.8308,-4.8984,-4.824,-4.7906,-4.7838,-4.7124,-4.6786,-4.6786,-4.6786,-4.6786,-4.6786,-4.6544,-4.6173,-4.5635,-4.4669,-4.3979,-4.3532,-4.3802,-4.4035,-4.4342,-4.538,-4.5703,-4.5974,-4.7432,-4.7906,-4.8041,-4.8815,-4.8883,-4.8748,-4.8748,-4.8071,-4.7365,-4.7365,-4.6413,-4.5432,-4.5432,-4.4993,-4.4615,-4.4615,-4.4615,-4.4615,-4.4615,-4.4615,-4.4615,-4.4615,-4.4615,-4.4378,-4.3775,-4.4215,-4.435,-4.3741,-4.3962,-4.3889,-4.3292,-4.2584,-4.1337,-3.936,-3.8361,-3.7883,-3.7883,-3.7883,-3.7883,-3.7883,-3.7883,-3.7883,-3.7883,-3.8392,-3.8631,-3.8631,-3.917,-3.9373,-2.827,-2.7754,-2.7368,-2.9567,-3.0649,-3.136,-3.2056,-3.2226,-3.2395,-3.3051,-3.3152,-3.3186,-3.322,-3.5013,-3.7032,-3.87,-4.0764,-4.2455,-4.3274,-4.4079,-4.4886,-4.5602,-4.5771,-4.6041,-4.6718,-4.6786,-4.6786,-4.6786,-4.6786,-4.6481,-4.5838,-4.6413,-4.6481,-4.5805,-4.6447,-4.6481,-4.5805,-4.5771,-4.6515,-4.7906,-4.7906,-4.8308,-4.8984,-4.824,-4.7906,-4.7838,-4.7124,-4.6786,-4.6786,-4.6786,-4.6786,-4.6756,-4.6458,-4.5412,-4.4005,-4.3428,-4.2944,-4.2676,-4.3169,-4.3562,-4.4052,-4.5289,-4.5703,-4.5974,-4.7432,-4.7906,-4.8041,-4.8815,-4.8511,-4.7973,-4.7973,-4.6921,-4.5872,-4.5872,-4.5229,-4.4682,-4.4682,-4.4649,-4.4615,-4.4615,-4.4615,-4.4615,-4.4615,-4.4615,-4.4615,-4.4615,-4.4615,-4.4581,-4.4513,-4.4581,-4.4581,-4.4513,-4.4378,-4.3977,-4.3204,-4.2301,-4.1526,-4.0863,-3.9829,-3.9254,-3.9254,-3.9254,-3.9254,-3.9254,-3.9254,-3.9254,-3.9254,-3.9284,-3.9313,-3.9313,-3.9409,-3.9373,-2.7831,-2.7669,-2.7689,-2.9059,-3.0311,-3.1495,-3.2713,-3.3694,-3.4438,-3.4687,-3.5182,-3.5487,-3.5487,-3.6569,-3.8125,-4.0054,-4.1441,-4.2726,-4.3978,-4.4412,-4.4716,-4.4959,-4.4993,-4.5156,-4.5399,-4.5427,-4.5427,-4.5427,-4.5427,-4.5297,-4.5026,-4.5263,-4.5326,-4.5026,-4.5292,-4.5326,-4.5026,-4.4993,-4.5534,-4.6549,-4.6549,-4.6921,-4.7597,-4.6887,-4.6549,-4.6452,-4.565,-4.5197,-4.511,-4.4993,-4.4871,-4.4753,-4.4085,-4.3264,-4.2396,-4.1971,-4.1912,-4.2141,-4.2771,-4.3292,-4.3805,-4.4721,-4.4993,-4.5196,-4.621,-4.6549,-4.6684,-4.7428,-4.709,-4.6722,-4.7635,-4.6819,-4.5703,-4.5703,-4.5128,-4.4615,-4.4615,-4.4615,-4.4615,-4.4615,-4.4615,-4.4615,-4.4615,-4.4615,-4.4615,-4.4615,-4.4615,-4.4615,-4.4615,-4.4615,-4.4615,-4.4615,-4.4525,-4.4298,-4.3776,-4.3111,-4.2459,-4.1852,-4.0543,-3.9696,-3.9589,-3.9445,-3.9373,-3.9373,-3.9373,-3.9373,-3.9373,-3.9373,-3.9373,-3.9373,-3.9373,-3.9373,-2.7517,-2.7326,-2.7452,-2.8958,-3.0296,-3.1698,-3.366,-3.4856,-3.5667,-3.5926,-3.6603,-3.7168,-3.7168,-3.7753,-3.8903,-4.0899,-4.1813,-4.2855,-4.4378,-4.4615,-4.4615,-4.4615,-4.4615,-4.4615,-4.4615,-4.4615,-4.4615,-4.4615,-4.4615,-4.4615,-4.4615,-4.4615,-4.4615,-4.4615,-4.4525,-4.4468,-4.4412,-4.4384,-4.4596,-4.5043,-4.5043,-4.5664,-4.6752,-4.6041,-4.5703,-4.564,-4.4663,-4.4064,-4.3831,-4.3562,-4.3292,-4.2863,-4.2078,-4.1525,-4.1091,-4.065,-4.0888,-4.1492,-4.2269,-4.2925,-4.3565,-4.4355,-4.4615,-4.475,-4.5466,-4.5703,-4.5838,-4.6583,-4.6278,-4.594,-4.6955,-4.6278,-4.5365,-4.5365,-4.4987,-4.4615,-4.4615,-4.4615,-4.4615,-4.4615,-4.4615,-4.4615,-4.4615,-4.4615,-4.4615,-4.4615,-4.4615,-4.4615,-4.4615,-4.4615,-4.4615,-4.4615,-4.4615,-4.4468,-4.4184,-4.3743,-4.3202,-4.2617,-4.1292,-4.0335,-3.9879,-3.9553,-3.9373,-3.9373,-3.9373,-3.9373,-3.9373,-3.9373,-3.9373,-3.9373,-3.9373,-3.9373,-2.7377,-2.6586,-2.6336,-2.9364,-3.0683,-3.2002,-3.4923,-3.56,-3.5836,-3.6694,-3.7415,-3.7922,-3.7922,-3.8531,-3.9512,-4.0967,-4.1813,-4.2828,-4.4378,-4.4615,-4.4615,-4.4615,-4.4615,-4.4615,-4.4615,-4.4615,-4.4615,-4.4615,-4.4615,-4.4615,-4.4615,-4.4615,-4.4615,-4.4615,-4.4412,-4.4207,-4.4097,-4.3889,-4.3743,-4.3562,-4.3562,-4.4716,-4.6752,-4.6007,-4.5674,-4.5607,-4.4548,-4.3772,-4.3259,-4.2925,-4.2269,-4.1459,-4.0894,-4.0481,-4.0126,-3.9589,-3.9874,-4.0646,-4.1657,-4.249,-4.3265,-4.427,-4.4615,-4.475,-4.5466,-4.5703,-4.5838,-4.6583,-4.6244,-4.5703,-4.5703,-4.5128,-4.4615,-4.4615,-4.4615,-4.4615,-4.4615,-4.4615,-4.4615,-4.4615,-4.4615,-4.4615,-4.4615,-4.4615,-4.4615,-4.4615,-4.4615,-4.4615,-4.4615,-4.4615,-4.4615,-4.4615,-4.4615,-4.4497,-4.4321,-4.4006,-4.3625,-4.3143,-4.2269,-4.1327,-4.0235,-3.9696,-3.9409,-3.9409,-3.9409,-3.9409,-3.9373,-3.9373,-3.9373,-3.9373,-3.9373,-3.9373,-2.8146,-2.7703,-2.7756,-3.0243,-3.1833,-3.3254,-3.516,-3.6445,-3.7753,-3.9512,-4.0087,-4.0223,-4.0223,-4.0392,-4.0865,-4.1813,-4.2591,-4.3436,-4.4479,-4.4615,-4.4615,-4.4615,-4.4615,-4.4615,-4.4615,-4.4615,-4.4615,-4.4615,-4.4615,-4.4615,-4.4615,-4.4615,-4.4615,-4.4615,-4.4298,-4.3948,-4.3532,-4.3229,-4.2894,-4.2458,-4.2458,-4.3182,-4.4523,-4.4323,-4.4223,-4.416,-4.3482,-4.2958,-4.2522,-4.1852,-4.126,-4.0786,-4.0478,-4.013,-3.9809,-3.9517,-3.9874,-4.0646,-4.1657,-4.2427,-4.3115,-4.3981,-4.4241,-4.4308,-4.451,-4.4635,-4.4783,-4.5133,-4.506,-4.4925,-4.4925,-4.4784,-4.4615,-4.4615,-4.4615,-4.4615,-4.4615,-4.4615,-4.4615,-4.4615,-4.4615,-4.4615,-4.4615,-4.4615,-4.4615,-4.4615,-4.4615,-4.4615,-4.4615,-4.4615,-4.4615,-4.4615,-4.4615,-4.4587,-4.4497,-4.4412,-4.4212,-4.3835,-4.3202,-4.2301,-4.1055,-4.0439,-4.0091,-3.9985,-3.9874,-3.9732,-3.9625,-3.9445,-3.9373,-3.9373,-3.9373,-3.9373,-2.8409,-2.8459,-2.8822,-3.1055,-3.2983,-3.4822,-3.6907,-3.7889,-3.8802,-4.0426,-4.1001,-4.1204,-4.1204,-4.1441,-4.188,-4.2625,-4.3132,-4.3673,-4.4513,-4.4615,-4.4615,-4.4615,-4.4525,-4.444,-4.4417,-4.4327,-4.427,-4.4212,-4.4212,-4.4212,-4.4212,-4.4212,-4.4212,-4.4212,-4.3802,-4.3353,-4.2894,-4.2522,-4.2078,-4.1592,-4.1592,-4.1949,-4.2584,-4.2833,-4.2956,-4.2925,-4.2237,-4.1787,-4.1393,-4.0684,-4.0235,-4.0056,-3.995,-3.9737,-3.9553,-3.9445,-3.9874,-4.0646,-4.1657,-4.2332,-4.2898,-4.3565,-4.3772,-4.3772,-4.3772,-4.3948,-4.415,-4.453,-4.4615,-4.4615,-4.4615,-4.4615,-4.4615,-4.4615,-4.4615,-4.4615,-4.4615,-4.4615,-4.4615,-4.4615,-4.4615,-4.4615,-4.4615,-4.4615,-4.4615,-4.4615,-4.4615,-4.4615,-4.4615,-4.4615,-4.4615,-4.4615,-4.4615,-4.4615,-4.4615,-4.4615,-4.4468,-4.4212,-4.3772,-4.3111,-4.2269,-4.1492,-4.099,-4.0721,-4.0409,-4.0161,-3.9879,-3.9553,-3.9373,-3.9373,-3.9373,-3.9373,-2.834,-2.8922,-2.9638,-3.1873,-3.4134,-3.6546,-3.9436,-3.9605,-3.9309,-4.0045,-4.0798,-4.1339,-4.1407,-4.1948,-4.2625,-4.3403,-4.3538,-4.3775,-4.4513,-4.4615,-4.4615,-4.4615,-4.4412,-4.4207,-4.4039,-4.3831,-4.3621,-4.3472,-4.3443,-4.3443,-4.3443,-4.3443,-4.3443,-4.3443,-4.2958,-4.249,-4.2142,-4.1688,-4.1258,-4.0823,-4.0823,-4.0823,-4.0857,-4.1592,-4.1917,-4.182,-4.1028,-4.0481,-4.0126,-3.9625,-3.9373,-3.9373,-3.9373,-3.9373,-3.9373,-3.9373,-3.9874,-4.0646,-4.1657,-4.2269,-4.2648,-4.3111,-4.3262,-4.3262,-4.3262,-4.3502,-4.3889,-4.444,-4.4615,-4.4615,-4.4615,-4.4615,-4.4615,-4.4615,-4.4615,-4.4615,-4.4615,-4.4615,-4.4615,-4.4615,-4.4615,-4.4615,-4.4615,-4.4615,-4.4615,-4.4615,-4.4615,-4.4615,-4.4615,-4.4615,-4.4615,-4.4615,-4.4615,-4.4615,-4.4615,-4.4615,-4.4525,-4.4355,-4.4035,-4.3831,-4.3713,-4.2645,-4.1949,-4.1591,-4.1028,-4.0554,-4.02,-3.9696,-3.9373,-3.9373,-3.9373,-3.9373,-2.9109,-2.9834,-3.0534,-3.2754,-3.5384,-3.7889,-3.9706,-3.9977,-4.0079,-4.0798,-4.1542,-4.2252,-4.2828,-4.3064,-4.3436,-4.4215,-4.4316,-4.4412,-4.4581,-4.4615,-4.4615,-4.4615,-4.4327,-4.3948,-4.3502,-4.3169,-4.2833,-4.2395,-4.2332,-4.2332,-4.2332,-4.2332,-4.2332,-4.2332,-4.1949,-4.1526,-4.1062,-4.0687,-4.0266,-3.9737,-3.9737,-3.9737,-3.9773,-4.0755,-4.106,-4.0789,-4.0478,-4.0095,-3.9803,-3.9517,-3.9373,-3.9373,-3.9373,-3.9373,-3.9373,-3.9373,-3.9874,-4.0646,-4.1657,-4.2205,-4.2492,-4.2802,-4.2927,-4.2959,-4.2925,-4.3229,-4.3772,-4.4412,-4.4615,-4.4615,-4.4615,-4.4615,-4.4615,-4.4615,-4.4615,-4.4615,-4.4615,-4.4615,-4.4615,-4.4615,-4.4615,-4.4615,-4.4615,-4.4615,-4.4615,-4.4615,-4.4615,-4.4615,-4.4615,-4.4615,-4.4615,-4.4615,-4.4615,-4.4615,-4.4615,-4.4615,-4.4587,-4.4525,-4.4468,-4.4412,-4.4384,-4.3383,-4.2648,-4.2142,-4.1461,-4.086,-4.0443,-3.9768,-3.9373,-3.9373,-3.9373,-3.9373,-2.9445,-3.0785,-3.2295,-3.5404,-3.7326,-3.8734,-3.9842,-4.0113,-4.0214,-4.0595,-4.1271,-4.2016,-4.2726,-4.3139,-4.3673,-4.4479,-4.4497,-4.444,-4.4355,-4.427,-4.4212,-4.4155,-4.3743,-4.3292,-4.2863,-4.2459,-4.2045,-4.1559,-4.1526,-4.1526,-4.1526,-4.1526,-4.1526,-4.1526,-4.1194,-4.0823,-4.0447,-4.013,-3.9773,-3.9373,-3.9373,-3.9373,-3.9409,-3.9985,-4.0161,-3.9985,-3.9844,-3.9732,-3.9553,-3.9445,-3.9373,-3.9373,-3.9373,-3.9373,-3.9373,-3.9373,-3.9874,-4.0646,-4.1657,-4.211,-4.227,-4.2396,-4.2459,-4.2492,-4.2459,-4.2863,-4.3535,-4.4355,-4.4615,-4.4615,-4.4615,-4.4615,-4.4615,-4.4615,-4.4615,-4.4615,-4.4615,-4.4615,-4.4615,-4.4615,-4.4615,-4.4615,-4.4615,-4.4615,-4.4615,-4.4615,-4.4615,-4.4615,-4.4615,-4.4615,-4.4615,-4.4615,-4.4615,-4.4615,-4.4615,-4.4615,-4.4615,-4.4615,-4.4615,-4.4615,-4.4615,-4.4097,-4.3535,-4.2925,-4.2046,-4.1295,-4.0752,-3.9844,-3.9373,-3.9373,-3.9373,-3.9373,-2.9575,-3.1706,-3.4011,-3.7838,-3.8802,-3.9039,-3.991,-4.0113,-4.0113,-4.0113,-4.0595,-4.1271,-4.2117,-4.2794,-4.3538,-4.4445,-4.4412,-4.4179,-4.401,-4.3772,-4.3532,-4.3353,-4.2896,-4.2427,-4.2078,-4.1623,-4.1158,-4.0786,-4.0721,-4.0721,-4.0721,-4.0721,-4.0721,-4.0721,-4.0443,-4.02,-4.0056,-3.9803,-3.9553,-3.9373,-3.9373,-3.9373,-3.9373,-3.9373,-3.9373,-3.9373,-3.9373,-3.9373,-3.9373,-3.9373,-3.9373,-3.9373,-3.9373,-3.9373,-3.9373,-3.9373,-3.9839,-4.0578,-4.1559,-4.1917,-4.198,-4.1917,-4.1917,-4.198,-4.1917,-4.2427,-4.3235,-4.4241,-4.4525,-4.4559,-4.4615,-4.4615,-4.4615,-4.4615,-4.4615,-4.4615,-4.4615,-4.4615,-4.4615,-4.4615,-4.4615,-4.4615,-4.4615,-4.4615,-4.4615,-4.4615,-4.4615,-4.4615,-4.4615,-4.4615,-4.4615,-4.4615,-4.4615,-4.4615,-4.4615,-4.4615,-4.4615,-4.4615,-4.4615,-4.4615,-4.4615,-4.4615,-4.4327,-4.3713,-4.2614,-4.1755,-4.1125,-4.0021,-3.9481,-3.9445,-3.9409,-3.9373,-2.9783,-3.2178,-3.4555,-3.7339,-3.8058,-3.8396,-3.9808,-4.0113,-4.0113,-4.0113,-4.018,-4.0688,-4.2049,-4.2388,-4.2895,-4.4378,-4.4327,-4.3948,-4.3472,-4.3139,-4.2738,-4.2269,-4.1885,-4.1461,-4.0961,-4.0585,-4.0196,-3.9661,-3.9625,-3.9625,-3.9625,-3.9625,-3.9625,-3.9625,-3.9589,-3.9517,-3.9517,-3.9445,-3.9409,-3.9373,-3.9373,-3.9373,-3.9373,-3.9373,-3.9373,-3.9373,-3.9373,-3.9373,-3.9373,-3.9373,-3.9373,-3.9373,-3.9373,-3.9373,-3.9373,-3.9373,-3.9768,-4.0374,-4.126,-4.1524,-4.1392,-4.1525,-4.1491,-4.1456,-4.1525,-4.2078,-4.2865,-4.386,-4.4241,-4.4384,-4.4525,-4.4615,-4.4615,-4.4615,-4.4615,-4.4615,-4.4615,-4.4615,-4.4615,-4.4615,-4.4615,-4.4615,-4.4615,-4.4615,-4.4615,-4.4615,-4.4615,-4.4615,-4.4615,-4.4615,-4.4615,-4.4615,-4.4615,-4.4615,-4.4615,-4.4615,-4.4615,-4.4615,-4.4615,-4.4615,-4.4615,-4.4615,-4.4412,-4.4039,-4.2986,-4.2142,-4.1522,-4.047,-3.9803,-3.9661,-3.9481,-3.9373,-3.0442,-3.3123,-3.538,-3.7895,-3.8531,-3.8802,-3.9876,-4.0113,-4.0113,-4.0113,-4.0113,-4.0417,-4.1474,-4.1677,-4.2049,-4.3132,-4.2998,-4.2542,-4.1924,-4.1801,-4.1564,-4.0957,-4.0941,-4.0789,-4.0447,-4.0095,-3.9773,-3.9409,-3.9373,-3.9373,-3.9373,-3.9373,-3.9373,-3.9373,-3.9373,-3.9373,-3.9373,-3.9373,-3.9373,-3.9373,-3.9373,-3.9373,-3.9373,-3.9373,-3.9373,-3.9373,-3.9373,-3.9373,-3.9373,-3.9373,-3.9373,-3.9373,-3.9373,-3.9373,-3.9373,-3.9373,-3.9696,-4.0161,-4.0823,-4.1057,-4.1021,-4.106,-4.1057,-4.1021,-4.106,-4.1591,-4.2364,-4.3383,-4.3831,-4.4093,-4.4497,-4.4615,-4.4615,-4.4615,-4.4615,-4.4615,-4.4615,-4.4925,-4.5331,-4.5766,-4.5805,-4.5805,-4.5805,-4.5805,-4.5805,-4.5805,-4.5805,-4.5805,-4.5805,-4.5805,-4.5805,-4.5805,-4.5805,-4.5805,-4.5805,-4.5805,-4.5805,-4.5805,-4.5805,-4.5805,-4.5805,-4.5432,-4.511,-4.4846,-4.3611,-4.2647,-4.1981,-4.0922,-4.0235,-3.9985,-3.9589,-3.9373,-3.0584,-3.2997,-3.5028,-3.7284,-3.799,-3.8362,-3.9309,-3.9706,-3.9876,-4.0079,-4.0113,-4.0282,-4.0832,-4.1068,-4.1441,-4.2185,-4.1942,-4.1352,-4.059,-4.0634,-4.045,-3.9696,-3.9944,-4.0161,-4.0021,-3.9773,-3.9553,-3.9409,-3.9373,-3.9373,-3.9373,-3.9373,-3.9373,-3.9373,-3.9373,-3.9373,-3.9373,-3.9373,-3.9373,-3.9373,-3.9373,-3.9373,-3.9373,-3.9373,-3.9373,-3.9373,-3.9373,-3.9373,-3.9373,-3.9373,-3.9373,-3.9373,-3.9373,-3.9373,-3.9373,-3.9373,-3.9625,-3.998,-4.0413,-4.0581,-4.0578,-4.0585,-4.0581,-4.0578,-4.0585,-4.1028,-4.1787,-4.2771,-4.3454,-4.4009,-4.4596,-4.4936,-4.5099,-4.5128,-4.5156,-4.5122,-4.4919,-4.5297,-4.594,-4.665,-4.6786,-4.6786,-4.6786,-4.6786,-4.6786,-4.6786,-4.6786,-4.6786,-4.6786,-4.6786,-4.6786,-4.6786,-4.6786,-4.6786,-4.6786,-4.6786,-4.6786,-4.6786,-4.6786,-4.6786,-4.6786,-4.6075,-4.5612,-4.5491,-4.4286,-4.3262,-4.2522,-4.1461,-4.0823,-4.0443,-3.9915,-3.9661,-2.9597,-3.089,-3.2342,-3.424,-3.525,-3.6174,-3.7686,-3.8565,-3.9242,-3.9977,-4.0113,-4.0113,-4.0146,-4.073,-4.1441,-4.2185,-4.1799,-4.1062,-4.0084,-4.0008,-3.966,-3.8637,-3.9062,-3.9445,-3.9445,-3.9409,-3.9409,-3.9373,-3.9373,-3.9373,-3.9373,-3.9373,-3.9373,-3.9373,-3.9373,-3.9373,-3.9373,-3.9373,-3.9373,-3.9373,-3.9373,-3.9373,-3.9373,-3.9373,-3.9373,-3.9373,-3.9373,-3.9373,-3.9373,-3.9373,-3.9373,-3.9373,-3.9373,-3.9373,-3.9373,-3.9373,-3.9517,-3.9737,-4.0126,-4.0126,-4.0051,-4.0196,-4.0126,-4.0051,-4.0196,-4.0615,-4.1227,-4.211,-4.3229,-4.4315,-4.4983,-4.5786,-4.6473,-4.6621,-4.6684,-4.6481,-4.5805,-4.5669,-4.594,-4.665,-4.6786,-4.6786,-4.6786,-4.6786,-4.6786,-4.6786,-4.6786,-4.6786,-4.6786,-4.6786,-4.6786,-4.6786,-4.6786,-4.6786,-4.6786,-4.6786,-4.6786,-4.6786,-4.6786,-4.6786,-4.6786,-4.6075,-4.5703,-4.5674,-4.493,-4.4068,-4.3082,-4.2173,-4.159,-4.1223,-4.0681,-4.0335,-2.7263,-2.878,-3.0569,-3.2035,-3.3288,-3.4742,-3.6738,-3.7753,-3.8633,-3.9842,-4.0113,-4.0113,-4.0113,-4.0316,-4.0561,-4.0857,-4.0361,-3.9649,-3.8675,-3.859,-3.8452,-3.7841,-3.8362,-3.8931,-3.9379,-3.9373,-3.9373,-3.9373,-3.9373,-3.9373,-3.9373,-3.9373,-3.9373,-3.9373,-3.9373,-3.9373,-3.9373,-3.9373,-3.9373,-3.9373,-3.9373,-3.9373,-3.9373,-3.9373,-3.9373,-3.9373,-3.9373,-3.9373,-3.9373,-3.9373,-3.9373,-3.9373,-3.9373,-3.9373,-3.9373,-3.9373,-3.9445,-3.9517,-3.9631,-3.9661,-3.9625,-3.9661,-3.9661,-3.9625,-3.9661,-3.9985,-4.0509,-4.1095,-4.2231,-4.3525,-4.4438,-4.5433,-4.6274,-4.6697,-4.6786,-4.6853,-4.709,-4.7124,-4.7327,-4.8071,-4.8206,-4.8206,-4.8206,-4.8206,-4.8206,-4.8206,-4.8206,-4.8206,-4.8206,-4.8206,-4.8206,-4.8206,-4.8206,-4.8206,-4.8206,-4.8206,-4.8206,-4.8206,-4.8206,-4.8206,-4.8206,-4.7496,-4.7124,-4.7124,-4.594,-4.4769,-4.3713,-4.308,-4.2584,-4.2237,-4.169,-4.1327,-2.5591,-2.7067,-2.8818,-2.9826,-3.136,-3.3119,-3.49,-3.6231,-3.755,-3.9039,-3.9571,-3.9808,-4.0045,-4.0113,-4.0113,-4.0113,-3.9592,-3.8892,-3.7937,-3.7865,-3.7679,-3.7147,-3.7674,-3.8242,-3.8691,-3.8751,-3.8751,-3.8751,-3.8751,-3.8751,-3.8751,-3.8751,-3.8841,-3.908,-3.908,-3.92,-3.9373,-3.9373,-3.9373,-3.9373,-3.9373,-3.9373,-3.9373,-3.9373,-3.9373,-3.9373,-3.9373,-3.9373,-3.9373,-3.9373,-3.9373,-3.9373,-3.9373,-3.9373,-3.9373,-3.9373,-3.9373,-3.9373,-3.9373,-3.9373,-3.9373,-3.9373,-3.9373,-3.9373,-3.9373,-3.9661,-4.0086,-4.0615,-4.1954,-4.352,-4.4552,-4.5872,-4.7105,-4.744,-4.753,-4.7665,-4.8173,-4.8075,-4.8108,-4.8849,-4.9018,-4.9018,-4.9018,-4.9018,-4.9018,-4.9018,-4.9018,-4.9018,-4.9018,-4.9018,-4.9018,-4.9018,-4.9018,-4.9018,-4.9018,-4.9018,-4.9018,-4.9018,-4.9018,-4.9018,-4.9018,-4.8308,-4.7906,-4.7906,-4.6447,-4.5351,-4.4644,-4.3843,-4.3353,-4.3047,-4.2615,-4.2078,0.0,0.0,0.0,-2.7503,-2.9397,-3.1278,-3.2022,-3.3897,-3.5938,-3.755,-3.8464,-3.9174,-3.9977,-4.0113,-4.0113,-4.0113,-3.9592,-3.8892,-3.7937,-3.7834,-3.7557,-3.661,-3.7015,-3.7375,-3.7404,-3.7404,-3.7404,-3.7404,-3.7404,-3.7404,-3.7404,-3.7404,-3.7704,-3.8362,-3.8392,-3.8721,-3.9373,-3.9373,-3.9373,-3.9373,-3.9373,-3.9373,-3.9373,-3.9373,-3.9373,-3.9373,-3.9373,-3.9373,-3.9373,-3.9373,-3.9373,-3.9373,-3.9373,-3.9373,-3.9373,-3.9373,-3.9373,-3.9373,-3.9373,-3.9373,-3.9373,-3.9373,-3.9373,-3.9373,-3.9373,-3.9661,-4.0117,-4.0677,-4.2467,-4.4523,-4.5436,-4.735,-4.9018,-4.9018,-4.9018,-4.9018,-4.9018,-4.8443,-4.8142,-4.8849,-4.9018,-4.9018,-4.9018,-4.9018,-4.9018,-4.9018,-4.9018,-4.9018,-4.9018,-4.9018,-4.9018,-4.9018,-4.9018,-4.9018,-4.9018,-4.9018,-4.9018,-4.9018,-4.9018,-4.9018,-4.9018,-4.8311,-4.7906,-4.7906,-4.6515,-4.5771,-4.5771,-4.4465,-4.3772,-4.3625,-4.3295,-4.2679,-2.3033,0.0,0.0,0.0,0.0,0.0,-2.9619,-3.1616,-3.3931,-3.6592,-3.7686,-3.8599,-3.9876,-4.0113,-4.0113,-4.0113,-3.9592,-3.8892,-3.7937,-3.7454,-3.7033,-3.655,-3.6626,-3.6926,-3.7375,-3.7404,-3.7404,-3.7404,-3.7404,-3.7404,-3.7404,-3.7404,-3.7704,-3.8362,-3.8392,-3.8721,-3.9373,-3.9373,-3.9373,-3.9373,-3.9373,-3.9373,-3.9373,-3.9373,-3.9373,-3.9373,-3.9373,-3.9373,-3.9373,-3.9373,-3.9373,-3.9373,-3.9373,-3.9373,-3.9373,-3.9373,-3.9373,-3.9373,-3.9373,-3.9373,-3.9373,-3.9373,-3.9373,-3.9373,-3.9373,-3.9661,-4.0086,-4.0615,-4.2333,-4.4616,-4.6879,-4.8245,-4.9018,-4.9018,-4.9018,-4.9018,-4.9018,-4.8849,-4.8781,-4.8951,-4.9018,-4.9018,-4.9018,-4.9018,-4.9018,-4.9018,-4.9018,-4.9018,-4.9018,-4.9018,-4.9018,-4.9018,-4.9018,-4.9018,-4.9018,-4.9018,-4.9018,-4.9018,-4.9018,-4.9018,-4.9018,-4.8815,-4.8714,-4.8714,-4.7767,-4.7263,-4.7263,-4.5351,-4.4355,-4.4327,-4.3981,-4.3505,-2.3308,-2.3748,-2.4323,-2.4323,0.0,0.0,-2.8281,-3.0209,-3.2429,-3.4493,-3.5994,-3.7313,-3.8522,-3.8996,-3.9174,-3.9174,-3.874,-3.8288,-3.7841,-3.7265,-3.6693,-3.616,-3.6088,-3.6207,-3.6567,-3.6626,-3.6626,-3.6626,-3.6626,-3.6626,-3.6626,-3.6626,-3.7045,-3.7943,-3.7973,-3.8452,-3.9373,-3.9373,-3.9373,-3.9373,-3.9373,-3.9373,-3.9373,-3.9373,-3.9373,-3.9373,-3.9373,-3.9373,-3.9373,-3.9373,-3.9373,-3.9373,-3.9373,-3.9373,-3.9373,-3.9373,-3.9373,-3.9373,-3.9373,-3.9373,-3.9373,-3.9373,-3.9373,-3.9373,-3.9373,-3.9943,-4.0654,-4.1258,-4.3285,-4.5832,-4.7894,-4.8704,-4.9018,-4.9018,-4.9018,-4.9018,-4.9018,-4.9018,-4.9018,-4.9018,-4.9018,-4.9018,-4.9018,-4.9018,-4.9018,-4.9018,-4.9018,-4.9018,-4.9018,-4.9018,-4.9018,-4.9018,-4.9018,-4.9018,-4.9018,-4.9018,-4.9018,-4.9018,-4.9018,-4.9018,-4.9018,-4.9018,-4.9018,-4.9018,-4.8274,-4.7601,-4.6959,-4.5669,-4.4919,-4.4615,-4.4241,-4.3802,-2.455,-2.4982,-2.5473,-2.5473,-2.6539,0.0,-2.7553,-2.9244,-3.1055,-3.1887,-3.3694,-3.5385,-3.6265,-3.6941,-3.7415,-3.7415,-3.7215,-3.7213,-3.7673,-3.7229,-3.6538,-3.5651,-3.5522,-3.5522,-3.5519,-3.5519,-3.5519,-3.5519,-3.5519,-3.5519,-3.5519,-3.5519,-3.6058,-3.7255,-3.7375,-3.8033,-3.929,-3.9343,-3.9373,-3.9373,-3.9373,-3.9373,-3.9373,-3.9373,-3.9373,-3.9373,-3.9373,-3.9373,-3.9373,-3.9373,-3.9373,-3.9373,-3.9373,-3.9373,-3.9373,-3.9373,-3.9373,-3.9373,-3.9373,-3.9373,-3.9373,-3.9373,-3.9373,-3.9373,-3.9373,-4.0323,-4.155,-4.2551,-4.4984,-4.7517,-4.8536,-4.8925,-4.9018,-4.9018,-4.9018,-4.9018,-4.9018,-4.9018,-4.9018,-4.9018,-4.9018,-4.9018,-4.9018,-4.9018,-4.9018,-4.9018,-4.9018,-4.9018,-4.9018,-4.9018,-4.9018,-4.9018,-4.9018,-4.9018,-4.9018,-4.9018,-4.9018,-4.9018,-4.9018,-4.9018,-4.9018,-4.9018,-4.9018,-4.9018,-4.8376,-4.7361,-4.594,-4.5805,-4.5331,-4.4615,-4.4241,-4.3802,-2.455,-2.4609,-2.4711,-2.4711,-2.5372,0.0,-2.6032,-2.7283,-2.8838,-3.0243,-3.1326,-3.2476,-3.3829,-3.4201,-3.4303,-3.4303,-3.5014,-3.6009,-3.7177,-3.6791,-3.6313,-3.5944,-3.5782,-3.5621,-3.5489,-3.5519,-3.5519,-3.5519,-3.5519,-3.5519,-3.5519,-3.5519,-3.5848,-3.6656,-3.7135,-3.7793,-3.8571,-3.914,-3.9373,-3.9373,-3.9373,-3.9373,-3.9373,-3.9373,-3.9373,-3.9373,-3.9373,-3.9373,-3.9373,-3.9373,-3.9373,-3.9373,-3.9373,-3.9373,-3.9373,-3.9373,-3.9373,-3.9373,-3.9373,-3.9373,-3.9373,-3.9373,-3.9373,-3.9373,-3.9373,-4.04,-4.2093,-4.4847,-4.6674,-4.795,-4.8754,-4.8987,-4.9018,-4.9018,-4.9018,-4.9018,-4.9018,-4.9018,-4.9018,-4.9018,-4.9018,-4.9018,-4.9018,-4.9018,-4.9018,-4.9018,-4.9018,-4.9018,-4.9018,-4.9018,-4.9018,-4.9018,-4.9018,-4.9018,-4.9018,-4.9018,-4.9018,-4.9018,-4.9018,-4.9018,-4.9018,-4.9018,-4.9018,-4.9018,-4.8849,-4.8376,-4.7496,-4.6278,-4.5331,-4.4615,-4.4241,-4.3802,-2.6792,-2.6471,-2.615,-2.615,-2.615,0.0,0.0,-2.7012,-2.8027,-2.8804,-2.9871,-3.0886,-3.163,-3.207,-3.2307,-3.2307,-3.3064,-3.4095,-3.5391,-3.6206,-3.6566,-3.6322,-3.6101,-3.5846,-3.5522,-3.5519,-3.5519,-3.5519,-3.5519,-3.5519,-3.5519,-3.5519,-3.5818,-3.6477,-3.6776,-3.7404,-3.8392,-3.8721,-3.908,-3.9373,-3.9373,-3.9373,-3.9373,-3.9373,-3.9373,-3.9373,-3.9373,-3.9373,-3.9373,-3.9373,-3.9373,-3.9373,-3.9373,-3.9373,-3.9373,-3.9373,-3.9373,-3.9373,-3.9373,-3.9373,-3.9373,-3.9373,-3.9373,-3.9373,-3.9373,-4.0934,-4.3183,-4.5785,-4.721,-4.8048,-4.8478,-4.8673,-4.8767,-4.8894,-4.8956,-4.9018,-4.9018,-4.9018,-4.9018,-4.9018,-4.9018,-4.9018,-4.9018,-4.9018,-4.9018,-4.9018,-4.9018,-4.9018,-4.9018,-4.9018,-4.9018,-4.9018,-4.9018,-4.9018,-4.9018,-4.9018,-4.9018,-4.9018,-4.9018,-4.9018,-4.9018,-4.9018,-4.9018,-4.9018,-4.9018,-4.8646,-4.7906,-4.7158,-4.6413,-4.5669,-4.535,-4.49,-2.9028,-2.8518,-2.7993,-2.7858,-2.735,-2.686,0.0,0.0,0.0,-2.7587,-2.8586,-2.9465,-2.9465,-2.9939,-3.0311,-3.0311,-3.1092,-3.2093,-3.3217,-3.5152,-3.6433,-3.6374,-3.6106,-3.5796,-3.5409,-3.5342,-3.537,-3.5489,-3.537,-3.537,-3.5489,-3.5519,-3.5759,-3.6267,-3.6417,-3.7045,-3.8182,-3.8332,-3.8751,-3.9373,-3.9373,-3.9373,-3.9373,-3.9373,-3.9373,-3.9373,-3.9373,-3.9373,-3.9373,-3.9373,-3.9373,-3.9373,-3.9373,-3.9373,-3.9373,-3.9373,-3.9373,-3.9373,-3.9373,-3.9373,-3.9373,-3.9373,-3.9373,-3.9469,-3.9781,-4.1581,-4.3899,-4.585,-4.6997,-4.7704,-4.7869,-4.8129,-4.842,-4.8644,-4.8863,-4.9018,-4.9018,-4.9018,-4.9018,-4.9018,-4.9018,-4.9018,-4.9018,-4.9018,-4.9018,-4.9018,-4.9018,-4.9018,-4.9018,-4.9018,-4.9018,-4.9018,-4.9018,-4.9018,-4.9018,-4.9018,-4.9018,-4.9018,-4.9018,-4.9018,-4.9018,-4.9018,-4.9018,-4.9018,-4.9018,-4.8714,-4.8108,-4.8108,-4.7665,-4.6786,-4.6458,-4.6029,-2.901,-2.8942,-2.8687,-2.7993,-2.7756,-2.7486,-2.686,0.0,-2.6826,-2.6826,0.0,-2.7097,-2.7097,0.0,0.0,-2.7199,-2.8973,-3.061,-3.1401,-3.3193,-3.4717,-3.5522,-3.5211,-3.4935,-3.497,-3.4749,-3.4831,-3.5459,-3.4951,-3.4861,-3.5459,-3.5519,-3.5549,-3.5609,-3.6178,-3.6836,-3.7524,-3.8093,-3.8751,-3.9373,-3.9373,-3.9373,-3.9373,-3.9373,-3.9373,-3.9373,-3.9373,-3.9373,-3.9373,-3.9373,-3.9373,-3.9373,-3.9373,-3.9373,-3.9373,-3.9373,-3.9373,-3.9373,-3.9373,-3.9373,-3.9373,-3.9373,-3.9373,-3.9721,-4.123,-4.2247,-4.3265,-4.5033,-4.5953,-4.6486,-4.6864,-4.7339,-4.7803,-4.8194,-4.8642,-4.9018,-4.9018,-4.9018,-4.9018,-4.9018,-4.9018,-4.9018,-4.9018,-4.9018,-4.9018,-4.9018,-4.9018,-4.9018,-4.9018,-4.9018,-4.9018,-4.9018,-4.9018,-4.9018,-4.9018,-4.9018,-4.9018,-4.9018,-4.9018,-4.9018,-4.9018,-4.9018,-4.9018,-4.9018,-4.9018,-4.8951,-4.8883,-4.8883,-4.8173,-4.6786,-4.6458,-4.5996,-3.0905,-3.0296,-2.9465,-2.8687,-2.8146,-2.7621,-2.686,-2.6691,-2.6826,-2.7266,0.0,0.0,0.0,0.0,0.0,0.0,-2.8128,-2.9176,-3.0412,-3.1571,-3.294,-3.472,-3.4851,-3.4704,-3.4454,-3.4482,-3.4474,-3.4352,-3.4412,-3.4623,-3.4891,-3.528,-3.5519,-3.5519,-3.5759,-3.6387,-3.7404,-3.7674,-3.8362,-3.9373,-3.9373,-3.9373,-3.9373,-3.9373,-3.9373,-3.9373,-3.9373,-3.9373,-3.9373,-3.9373,-3.9373,-3.9373,-3.9373,-3.9373,-3.9373,-3.9373,-3.9373,-3.9373,-3.9373,-3.9373,-3.9373,-3.9373,-3.9679,-4.0194,-4.1459,-4.2419,-4.3347,-4.4564,-4.5258,-4.5665,-4.606,-4.6553,-4.7069,-4.7472,-4.8,-4.8421,-4.8421,-4.8421,-4.842,-4.8515,-4.861,-4.8736,-4.8863,-4.8956,-4.9018,-4.9018,-4.9018,-4.9018,-4.9018,-4.9018,-4.9018,-4.9018,-4.9018,-4.9018,-4.9018,-4.9018,-4.9018,-4.9018,-4.9018,-4.9018,-4.9018,-4.9018,-4.9018,-4.9018,-4.9018,-4.9018,-4.9018,-4.9018,-4.868,-4.8071,-4.7858,-4.7515,-3.2361,-3.1515,-3.0412,-2.9281,-2.8552,-2.7875,-2.6928,-2.686,-2.7165,-2.7689,-2.7993,0.0,0.0,0.0,-2.806,0.0,0.0,-2.8432,-2.9345,-3.0032,-3.1361,-3.374,-3.4187,-3.4112,-3.3652,-3.3668,-3.3634,-3.3514,-3.3604,-3.3934,-3.4474,-3.4951,-3.531,-3.5489,-3.5519,-3.6118,-3.7404,-3.7404,-3.8093,-3.9373,-3.9373,-3.9373,-3.9373,-3.9373,-3.9373,-3.9373,-3.9373,-3.9373,-3.9373,-3.9373,-3.9373,-3.9373,-3.9373,-3.9373,-3.9373,-3.9373,-3.9373,-3.9373,-3.9373,-3.9373,-3.9439,-3.9619,-4.0008,-4.0583,-4.1573,-4.244,-4.3221,-4.4006,-4.4427,-4.4699,-4.511,-4.566,-4.6131,-4.655,-4.7067,-4.7505,-4.7505,-4.7505,-4.7572,-4.777,-4.8065,-4.8322,-4.8578,-4.8863,-4.9018,-4.9018,-4.9018,-4.9018,-4.9018,-4.9018,-4.9018,-4.9018,-4.9018,-4.9018,-4.9018,-4.9018,-4.9018,-4.9018,-4.9018,-4.9018,-4.9018,-4.9018,-4.9018,-4.9018,-4.9018,-4.9018,-4.9018,-4.9018,-4.9018,-4.9018,-4.8894,-4.8673,-3.2496,-3.2259,-3.1718,-2.9551,-2.8976,-2.857,-2.7029,-2.7266,-2.7756,-2.779,-2.8416,-2.8976,-2.901,-2.8976,0.0,0.0,0.0,0.0,0.0,-2.8552,-3.0008,-3.2552,-3.2898,-3.2796,-3.2388,-3.1915,-3.2108,-3.3395,-3.2318,-3.2437,-3.4414,-3.4533,-3.4831,-3.5489,-3.5519,-3.6118,-3.7404,-3.7404,-3.8093,-3.9373,-3.9373,-3.9373,-3.9373,-3.9373,-3.9373,-3.9373,-3.9373,-3.9373,-3.9373,-3.9373,-3.9373,-3.9373,-3.9373,-3.9373,-3.9373,-3.9373,-3.9373,-3.9373,-3.9373,-3.9373,-3.9493,-4.0157,-4.0397,-4.0636,-4.1991,-4.2381,-4.2569,-4.3189,-4.3329,-4.3448,-4.3918,-4.4427,-4.4962,-4.5369,-4.585,-4.6244,-4.6244,-4.6244,-4.6381,-4.6761,-4.7272,-4.777,-4.8162,-4.8673,-4.9018,-4.9018,-4.9018,-4.9018,-4.9018,-4.9018,-4.9018,-4.9018,-4.9018,-4.9018,-4.9018,-4.9018,-4.9018,-4.9018,-4.9018,-4.9018,-4.9018,-4.9018,-4.9018,-4.9018,-4.9018,-4.9018,-4.9018,-4.9018,-4.9018,-4.9018,-4.9018,-4.9018,-3.3816,-3.3389,-3.2611,-3.0905,-3.0465,-3.0059,-2.857,-2.8434,-2.8721,-2.921,-2.9533,-2.9871,-3.0364,0.0,0.0,0.0,0.0,0.0,0.0,-2.9262,-2.9974,-3.0608,-3.0965,-3.1168,-3.1285,-3.1025,-3.0881,-3.0911,-3.1271,-3.1809,-3.2497,-3.3754,-3.4623,-3.4831,-3.528,-3.6118,-3.7404,-3.7404,-3.8093,-3.9373,-3.9373,-3.9373,-3.9373,-3.9373,-3.9373,-3.9373,-3.9373,-3.9373,-3.9373,-3.9373,-3.9373,-3.9373,-3.9373,-3.9373,-3.9373,-3.9373,-3.9373,-3.9433,-3.9918,-4.0337,-4.0756,-4.0965,-4.1354,-4.1811,-4.2261,-4.2671,-4.306,-4.323,-4.329,-4.3369,-4.3714,-4.4112,-4.4472,-4.4805,-4.5184,-4.5483,-4.5483,-4.5483,-4.5593,-4.602,-4.6518,-4.7035,-4.7605,-4.8226,-4.8736,-4.8987,-4.9018,-4.9018,-4.9018,-4.9018,-4.9018,-4.9018,-4.9018,-4.9018,-4.9018,-4.9018,-4.9018,-4.9018,-4.9018,-4.9018,-4.9018,-4.9018,-4.9018,-4.9018,-4.9018,-4.9018,-4.9018,-4.9018,-4.9018,-4.9018,-4.9018,-4.9018,-3.4573,-3.4134,-3.3423,-3.1935,-3.1582,-3.121,-2.9754,-2.9585,-2.9924,-3.0378,-3.0717,-3.1123,-3.1833,-3.1393,0.0,0.0,0.0,0.0,0.0,-2.9161,-2.9387,-2.9602,-3.0087,-3.0466,-3.0535,-3.0204,-2.988,-2.9675,-3.0191,-3.0763,-3.1481,-3.2976,-3.3993,-3.4503,-3.537,-3.6357,-3.7404,-3.7644,-3.8302,-3.9373,-3.9373,-3.9373,-3.9373,-3.9373,-3.9373,-3.9373,-3.9373,-3.9373,-3.9373,-3.9373,-3.9373,-3.9373,-3.9373,-3.9373,-3.9373,-3.9373,-3.9559,-3.9858,-4.0516,-4.1025,-4.1452,-4.1692,-4.2051,-4.244,-4.2641,-4.3,-4.329,-4.329,-4.329,-4.3329,-4.3518,-4.3723,-4.3927,-4.4112,-4.4312,-4.4472,-4.4472,-4.4472,-4.4586,-4.503,-4.5551,-4.6095,-4.6793,-4.7605,-4.8354,-4.8829,-4.8987,-4.9018,-4.9018,-4.9018,-4.9018,-4.9018,-4.9018,-4.9018,-4.9018,-4.9018,-4.9018,-4.9018,-4.9018,-4.9018,-4.9018,-4.9018,-4.9018,-4.9018,-4.9018,-4.9018,-4.9018,-4.9018,-4.9018,-4.9018,-4.9018,-4.9018]},{"header":{"parameterUnit":"m.s-1","parameterCategory":1,"la1":30.6,"la2":29.2853,"lo1":-89.7004,"lo2":-87.6739,"dy":0.0162,"dx":0.0183,"nx":112,"ny":82,"refTime":"2026-04-11T00:00:00:Z","depth":0,"parameterNumber":3,"parameterNumberName":"V-component_of_WINDS"},"data":[0.0,0.0,0.0,0.0,0.0,0.0,0.0,0.0,0.0,0.0,0.0,0.0,0.0,0.0,0.0,0.0,0.0,0.0,0.0,0.0,0.0,0.0,0.0,0.0,0.0,0.0,0.0,0.0,0.0,0.0,0.0,0.0,0.0,0.0,0.0,0.0,0.0,0.0,0.0,0.0,0.0,0.0,0.0,0.0,0.0,0.0,0.0,0.0,0.0,0.0,0.0,0.0,0.0,0.0,0.0,0.0,0.0,0.0,0.0,0.0,0.0,0.0,0.0,0.0,0.0,0.0,0.0,0.0,0.0,0.0,0.0,0.0,0.0,0.0,0.0,0.0,0.0,0.0,0.0,0.0,0.0,0.0,0.0,0.0,0.0,0.0,0.0,0.0,0.0,0.0,0.6426,0.6846,0.7455,0.7733,0.7461,0.7027,0.658,0.6087,0.0,0.0,0.0,0.0,0.0,0.0,0.0,0.0,0.0,0.0,0.0,0.0,0.0,0.0,0.0,0.0,0.0,0.0,0.0,0.0,0.0,0.0,0.0,0.0,0.0,0.0,0.0,0.0,0.0,0.0,0.0,0.0,0.0,0.0,0.0,0.0,0.0,0.0,0.0,0.0,0.0,0.0,0.0,0.0,0.0,0.0,0.0,0.0,0.0,0.0,0.0,0.0,0.0,0.0,0.0,0.0,0.0,0.0,0.0,0.0,0.0,0.0,0.0,0.0,0.0,0.0,0.0,0.0,0.0,0.0,0.0,0.0,0.0,0.0,0.0,0.0,0.0,0.0,0.0,0.0,0.0,0.0,0.0,0.0,0.0,0.0,0.0,0.0,0.0,0.0,0.0,0.0,0.0,0.0,0.0,0.0,0.0,0.0,0.0,0.0,0.0,0.0,0.0,0.0,0.7109,0.7596,0.7813,0.7887,0.776,0.7287,0.6878,0.643,0.0,0.0,0.0,0.0,0.0,0.0,0.0,0.0,0.0,0.0,0.0,0.0,0.0,0.0,0.0,0.0,0.0,0.0,0.0,0.0,0.0,0.0,0.0,0.0,0.0,0.0,0.0,0.0,0.0,0.0,0.0,0.0,0.0,0.0,0.0,0.0,0.0,0.0,0.0,0.0,0.0,0.0,0.0,0.0,0.0,0.0,0.0,0.0,0.0,0.0,0.0,0.0,0.0,0.0,0.0,0.0,0.0,0.0,0.0,0.0,0.0,0.0,0.0,0.0,0.0,0.0,0.0,0.0,0.0,0.0,0.0,0.0,0.0,0.0,0.0,0.0,0.0,0.0,0.0,0.0,0.0,0.0,0.0,0.0,0.0,0.0,0.0,0.0,0.0,0.0,0.0,0.0,0.0,0.0,0.0,0.0,0.0,0.0,0.0,0.0,0.0,0.0,0.0,0.7349,0.758,0.7767,0.8024,0.8038,0.7726,0.7307,0.6919,0.6429,0.5664,0.0,0.0,0.0,0.0,0.0,0.0,0.0,0.0,0.0,0.0,0.0,0.0,0.0,0.0,0.0,0.0,0.0,0.0,0.0,0.0,0.0,0.0,0.0,0.0,0.0,0.0,0.0,0.0,0.0,0.0,0.0,0.0,0.0,0.0,0.0,0.0,0.0,0.0,0.0,0.0,0.0,0.0,0.0,0.0,0.0,0.0,0.0,0.0,0.0,0.0,0.0,0.0,0.0,0.0,0.0,0.0,0.0,0.0,0.0,0.0,0.0,0.0,0.0,0.0,0.0,0.0,0.0,0.0,0.0,0.0,0.0,0.0,0.0,0.0,0.0,0.0,0.0,0.0,0.0,0.0,0.0,0.0,0.0,0.0,0.0,0.0,0.0,0.0,0.0,0.0,0.0,0.0,0.0,0.0,0.0,0.0,0.0,0.0,0.0,0.0,0.0,0.0,0.7925,0.7882,0.7916,0.8133,0.8106,0.7685,0.726,0.6837,0.6286,0.5672,0.0,0.0,0.0,0.0,0.0,0.0,0.0,0.0,0.0,0.0,0.0,0.0,0.0,0.0,0.0,0.0,0.0,0.0,0.0,0.0,0.0,0.0,0.0,0.0,0.0,0.0,0.0,0.0,0.0,0.0,0.0,0.0,0.0,0.0,0.0,0.0,0.0,0.0,0.0,0.0,0.0,0.0,0.0,0.0,0.0,0.0,0.0,0.0,0.0,0.0,0.0,0.0,0.0,0.0,0.0,0.0,0.0,0.0,0.0,0.0,0.0,0.0,0.0,0.0,0.0,0.0,0.0,0.0,0.0,0.0,0.0,0.0,0.0,0.0,0.0,0.0,0.0,0.0,0.0,0.0,0.0,0.0,0.0,0.0,0.0,0.0,0.0,0.0,0.0,0.0,0.0,0.0,0.0,0.0,0.0,0.0,0.0,0.0,0.0,0.0,0.0,0.0,0.8259,0.8079,0.8221,0.8306,0.814,0.7821,0.7227,0.6647,0.6047,0.5447,0.0,0.0,0.0,0.0,0.0,0.0,0.0,0.0,0.0,0.0,0.0,0.0,0.0,0.0,0.0,0.0,0.0,0.0,0.0,0.0,0.0,0.0,0.0,0.0,0.0,0.0,0.0,0.0,0.0,0.0,0.0,0.0,0.0,0.0,0.0,0.0,0.0,0.0,0.0,0.0,0.0,0.0,0.0,0.0,0.0,0.0,0.0,0.0,0.0,0.0,0.0,0.0,0.0,0.0,0.0,0.0,0.0,0.0,0.0,0.0,0.0,0.0,0.0,0.0,0.0,0.0,0.0,0.0,0.0,0.0,0.0,0.0,0.0,0.0,0.0,0.0,0.0,0.0,0.0,0.0,0.0,0.0,0.0,0.0,0.0,0.0,0.0,0.0,0.0,0.0,0.0,0.0,0.0,0.0,0.0,0.0,0.0,0.0,0.0,0.0,0.0,0.0,0.9468,0.9239,0.8894,0.8955,0.8708,0.8006,0.7389,0.6768,0.6213,0.0,0.0,0.0,0.0,0.0,0.0,0.0,0.0,0.0,0.0,0.0,0.0,0.0,0.0,0.0,0.0,0.0,0.0,0.0,0.0,0.0,0.0,0.0,0.0,0.0,0.0,0.0,0.0,0.0,0.0,0.0,0.0,0.0,0.0,0.0,0.0,0.0,0.0,0.0,0.0,0.0,0.0,0.0,0.0,0.0,0.0,0.0,0.0,0.0,0.0,0.0,0.0,0.0,0.0,0.0,0.0,0.0,0.0,0.0,0.0,0.0,0.0,0.0,0.0,0.0,0.0,0.0,0.0,0.0,0.0,0.0,0.0,0.0,0.0,0.0,0.0,0.0,0.0,0.0,0.0,0.0,0.0,0.0,0.0,0.0,0.0,0.0,0.0,0.0,0.0,0.0,0.0,0.0,0.0,0.0,0.0,0.0,0.0,0.0,0.0,0.0,0.0,1.0472,1.0731,1.0587,0.9979,0.9764,0.9314,0.8372,0.7524,0.6817,0.6227,0.0,0.0,0.0,0.0,0.0,0.0,0.0,0.0,0.0,0.0,0.0,0.0,0.0,0.0,0.0,0.0,0.0,0.0,0.0,0.0,0.0,0.0,0.0,0.0,0.0,0.0,0.0,0.0,0.0,0.0,0.0,0.0,0.0,0.0,0.0,0.0,0.0,0.0,0.0,0.0,0.0,0.0,0.0,0.0,0.0,0.0,0.0,0.0,0.0,0.0,0.0,0.0,0.0,0.0,0.0,0.0,0.0,0.0,0.0,0.0,0.0,0.0,0.0,0.0,0.0,0.0,0.0,0.0,0.0,0.0,0.0,0.0,0.0,0.0,0.0,0.0,0.0,0.0,0.0,0.0,0.0,0.0,0.0,0.0,0.0,0.0,0.0,0.0,0.0,0.0,0.0,0.0,0.0,0.0,0.0,0.0,0.0,0.0,0.0,0.0,0.0,0.0,1.1411,1.1916,1.2024,1.1482,1.0718,0.9871,0.9091,0.7721,0.6675,0.0,0.0,0.0,0.0,0.0,0.0,0.0,0.0,0.0,0.0,0.0,0.0,0.0,0.0,0.0,0.0,0.0,0.0,0.0,0.0,0.0,0.0,0.0,0.0,0.0,0.0,0.0,0.0,0.0,0.0,0.0,0.0,0.0,0.0,0.0,0.0,0.0,0.0,0.0,0.0,0.0,0.0,0.0,0.0,0.0,0.0,0.0,0.0,0.0,0.0,0.0,0.0,0.0,0.0,0.0,0.0,0.0,0.0,0.0,0.0,0.0,0.0,0.0,0.0,0.0,0.0,0.0,0.0,0.0,0.0,0.0,0.0,0.0,0.0,0.0,0.0,0.0,0.0,0.0,0.0,0.0,0.0,0.0,0.0,0.0,0.0,0.0,0.0,0.0,0.0,0.0,0.0,0.0,0.0,0.0,0.0,0.0,0.0,0.0,0.0,0.0,0.0,0.0,1.2174,1.2866,1.3078,1.2415,1.1795,1.1009,0.9994,0.8784,0.7793,0.7103,0.0,0.0,0.0,0.0,0.0,0.0,0.0,0.0,0.0,0.0,0.0,0.0,0.0,0.0,0.0,0.0,0.0,0.0,0.0,0.0,0.0,0.0,0.0,0.0,0.0,0.0,0.0,0.0,0.0,0.0,0.0,0.0,0.0,0.0,0.0,0.0,0.0,0.0,0.0,0.0,0.0,0.0,0.0,0.0,0.0,0.0,0.0,0.0,0.0,0.0,0.0,0.0,0.0,0.0,0.0,0.0,0.0,0.0,0.0,0.0,0.0,0.0,0.0,0.0,0.0,0.0,0.0,0.0,0.0,0.0,0.0,0.0,0.0,0.0,0.0,0.0,0.0,0.0,0.0,0.0,0.0,0.0,0.0,0.0,0.0,0.0,0.0,0.0,0.0,0.0,0.0,0.0,0.0,0.0,0.0,0.0,0.0,0.0,0.0,0.0,0.0,0.0,1.3058,1.3906,1.4256,1.3715,1.2975,1.2107,1.1149,0.9881,0.8796,0.7976,0.0,0.0,0.0,0.0,0.0,0.0,0.0,0.0,0.0,0.0,0.0,0.0,0.0,0.0,0.0,0.0,0.0,0.0,0.0,0.0,0.0,0.0,0.0,0.0,0.0,0.0,0.0,0.0,0.0,0.0,0.0,0.0,0.0,0.0,0.0,0.0,0.0,0.0,0.0,0.0,0.0,0.0,0.0,0.0,0.0,0.0,0.0,0.0,0.0,0.0,0.0,0.0,0.0,0.0,0.0,0.0,0.0,0.0,0.0,0.0,0.0,0.0,0.0,0.0,0.0,0.0,0.0,0.0,0.0,0.0,0.0,0.0,0.0,0.0,0.0,0.0,0.0,0.0,0.0,0.0,0.0,0.0,0.0,0.0,0.0,0.0,0.0,0.0,0.0,0.0,0.0,0.0,0.0,0.0,0.0,0.0,0.0,0.0,0.0,0.0,0.0,0.0,1.3895,1.4856,1.5325,1.5153,1.4133,1.3159,1.2369,1.098,0.9756,0.8817,0.0,0.0,0.0,0.0,0.0,0.0,0.0,0.0,0.0,0.0,0.0,0.0,0.0,0.0,0.0,0.0,0.0,0.0,0.0,0.0,0.0,0.0,0.0,0.0,0.0,0.0,0.0,0.0,0.0,0.0,0.0,0.0,0.0,0.0,0.0,0.0,0.0,0.0,0.0,0.0,0.0,0.0,0.0,0.0,0.0,0.0,0.0,0.0,0.0,0.0,0.0,0.0,0.0,0.0,0.0,0.0,0.0,0.0,0.0,0.0,1.1166,1.0589,0.0,0.0,0.0,0.0,0.0,0.0,0.0,0.0,0.0,0.0,0.0,0.0,0.0,0.0,0.0,0.0,0.0,0.0,0.0,0.0,0.0,0.0,0.0,0.0,0.0,0.0,0.0,0.0,0.0,0.0,0.0,0.0,0.0,0.0,0.0,0.0,0.0,0.0,0.0,0.0,1.3895,1.4856,1.5418,1.5425,1.4581,1.3831,1.328,1.2029,1.0932,1.0147,0.9031,0.0,0.0,0.0,0.0,0.0,0.0,0.0,0.0,0.0,0.0,0.0,0.0,0.0,0.0,0.0,0.0,0.0,0.0,0.0,0.0,0.0,0.0,0.0,0.0,0.0,0.0,0.0,0.0,0.0,0.0,0.0,0.0,0.0,0.0,0.0,0.0,0.0,0.0,0.0,0.0,0.0,0.0,0.0,0.0,0.0,0.0,0.0,0.0,0.0,0.0,0.0,0.0,0.0,0.0,0.0,0.0,0.0,0.0,0.0,1.2906,1.2038,0.0,0.0,0.0,0.0,0.0,0.0,0.0,0.0,0.0,0.0,0.0,0.0,0.0,0.0,0.0,0.0,0.0,0.0,0.0,0.0,0.0,0.0,0.0,0.0,0.0,0.0,0.0,0.0,0.0,0.0,0.0,0.0,0.0,0.0,0.0,0.0,0.0,0.0,0.0,0.0,1.3881,1.4736,1.5305,1.5589,1.5027,1.4423,1.3996,1.2999,1.2018,1.123,1.0052,0.0,0.0,0.0,0.0,0.0,0.0,0.0,0.0,0.0,0.0,0.0,0.0,0.0,0.0,0.0,0.0,0.0,0.0,0.0,0.0,0.0,0.0,0.0,0.0,0.0,0.0,0.0,0.0,0.0,0.0,0.0,0.0,0.0,0.0,0.0,0.0,0.0,0.0,0.0,0.0,0.0,0.0,0.0,0.0,0.0,0.0,0.0,0.0,0.0,0.0,0.0,0.0,0.0,1.5397,1.5618,1.6126,1.5885,1.5912,1.6072,1.4812,1.3824,1.2975,1.2838,0.0,0.0,0.0,0.0,0.0,0.0,0.0,0.0,0.0,0.0,0.0,0.0,0.0,0.0,0.0,0.0,0.0,0.0,0.0,0.0,0.0,0.0,1.3454,1.3507,1.3694,1.3493,1.2305,0.0,0.0,0.0,0.0,0.0,0.0,0.0,0.0,0.0,0.0,0.0,1.3868,1.4687,1.5217,1.5698,1.5284,1.4843,1.4549,1.372,1.2919,1.2114,1.0969,1.003,0.0,0.0,0.0,0.0,0.0,0.0,0.0,0.0,0.0,0.0,0.0,0.0,0.0,0.0,0.0,0.0,0.0,0.0,0.0,0.0,0.0,0.0,0.0,0.0,0.0,0.0,0.0,0.0,0.0,0.0,0.0,0.0,1.1195,1.1269,0.0,0.0,0.0,0.0,0.0,0.0,0.0,0.0,0.0,0.0,0.0,0.0,0.0,1.495,1.5491,1.6086,1.6526,1.6911,1.6911,1.7085,1.7355,1.7315,1.7315,1.7341,1.7154,0.0,1.4958,1.4449,0.0,0.0,0.0,0.0,0.0,0.0,0.0,0.0,0.0,0.0,0.0,0.0,0.0,0.0,0.0,0.0,0.0,0.0,0.0,0.0,0.0,0.0,1.4416,1.4669,1.4807,1.478,1.4579,1.3694,1.2812,1.2238,1.165,1.1076,0.0,0.0,0.0,0.0,0.0,0.0,1.3895,1.4816,1.5364,1.5444,1.5164,1.4843,1.4549,1.3906,1.3307,1.2717,1.177,1.0843,1.0003,0.9138,0.0,0.0,0.0,0.0,0.0,0.0,0.0,0.0,0.0,0.0,0.0,0.0,0.0,0.0,0.0,0.0,0.0,0.0,0.0,0.0,0.0,0.0,0.0,0.0,0.0,0.0,0.0,0.0,0.0,1.1114,1.173,1.1904,1.2037,1.2064,0.0,0.0,0.0,0.0,0.0,0.0,0.0,0.0,0.0,1.4616,1.5692,1.6473,1.7048,1.7822,1.8357,1.8637,1.8637,1.8784,1.9065,1.9065,1.8985,1.8824,1.8824,1.8277,1.7288,1.6192,1.5311,1.4576,0.0,0.0,0.0,0.0,1.3923,1.4057,1.4218,1.4084,1.3748,1.3454,0.0,0.0,0.0,0.0,0.0,0.0,0.0,1.3066,1.388,1.4652,1.5244,1.5217,1.5458,1.5705,1.5683,1.5236,1.4555,1.3494,1.2692,1.202,1.143,1.0568,0.0,0.0,0.0,1.2652,1.4135,1.4816,1.5217,1.5378,1.499,1.4656,1.4536,1.4135,1.3641,1.3039,1.2171,1.1356,1.0635,0.9766,0.9085,0.0,0.0,0.0,0.0,0.0,0.0,0.0,0.0,0.0,0.0,0.0,0.0,0.0,0.0,0.0,0.0,0.0,0.0,0.0,0.0,0.0,0.0,0.0,0.0,0.0,0.0,0.0,0.0,1.1997,1.2398,1.2625,1.2839,1.2919,0.0,0.0,0.0,0.0,0.0,0.0,1.4252,1.4736,1.5311,1.6046,1.7045,1.7809,1.8464,1.9212,1.9693,1.9907,1.9907,2.0027,2.0167,2.0167,2.0107,1.9907,1.9826,1.9546,1.9038,1.7716,1.6687,1.5912,1.5551,1.5137,1.4816,1.5244,1.5404,1.5491,1.5738,1.5651,1.5303,1.5044,1.4322,1.3507,1.3306,0.0,0.0,0.0,0.0,1.4186,1.4816,1.5511,1.5992,1.5778,1.6005,1.6316,1.6375,1.6392,1.6024,1.4831,1.4008,1.3278,1.2636,1.1819,0.0,1.2163,1.2597,1.3289,1.4521,1.5021,1.5305,1.5362,1.4874,1.4496,1.4416,1.4215,1.3841,1.3253,1.2543,1.1832,1.1129,1.0341,0.9659,0.9152,0.0,0.0,0.0,0.0,0.0,0.0,0.0,0.0,0.0,0.0,0.0,0.0,0.0,0.0,0.0,0.0,0.0,0.0,0.0,0.0,0.0,0.0,0.0,0.0,0.0,0.0,0.0,0.0,0.0,1.3533,1.4322,0.0,0.0,0.0,0.0,1.4847,1.4914,1.529,1.6147,1.6166,1.6714,1.7849,1.8237,1.8838,1.9706,2.0027,2.0201,2.0153,2.0153,2.0214,2.0167,2.0167,2.0167,2.0201,1.992,1.9786,1.9693,1.8771,1.8036,1.7408,1.6847,1.6607,1.658,1.6607,1.662,1.666,1.7005,1.6737,1.6254,1.6192,1.5404,1.4456,1.4442,1.3973,0.0,0.0,1.5084,1.5444,1.6032,1.642,1.666,1.6647,1.6446,1.6419,1.6877,1.708,1.6921,1.6153,1.5704,1.5186,1.433,0.0,1.3068,1.3308,1.387,1.4502,1.5076,1.5676,1.585,1.5349,1.4828,1.4402,1.4135,1.4095,1.3841,1.3253,1.2931,1.2342,1.1402,1.0835,1.0399,1.003,0.9218,0.0,0.0,0.0,0.0,0.0,0.0,0.0,0.0,0.0,0.0,0.0,0.0,0.0,0.0,0.0,0.0,0.0,0.0,0.0,0.0,0.0,0.0,0.0,0.0,0.0,0.0,0.0,0.0,1.4723,1.5378,0.0,1.5558,1.5544,1.5785,1.6375,1.6589,1.6874,1.7382,1.7956,1.845,1.8865,1.9546,2.004,2.0361,2.0655,2.0802,2.0802,2.0802,2.0802,2.0802,2.0802,2.0695,2.0508,2.0414,2.0147,1.9773,1.9466,1.8878,1.813,1.7729,1.7448,1.7288,1.7488,1.7516,1.7529,1.7689,1.7462,1.7021,1.6509,1.5992,1.5618,1.5418,1.5172,1.5164,1.5906,1.6265,1.6621,1.7232,1.7718,1.796,1.7548,1.752,1.7624,1.7859,1.7949,1.8198,1.8685,1.812,1.7265,1.6474,1.5549,1.5008,1.5268,1.5504,1.5845,1.6463,1.6551,1.6388,1.5887,1.487,1.4202,1.4095,1.4082,1.3841,1.3253,1.2958,1.2382,1.1429,1.1049,1.0608,1.0097,0.9404,0.9018,0.0,0.0,0.0,0.0,0.0,0.0,0.0,0.0,0.0,0.0,0.0,0.0,0.0,0.0,0.0,0.0,0.0,0.0,0.0,0.0,0.0,0.0,0.0,0.0,0.0,1.4349,1.5177,1.5765,1.6353,1.6764,1.6764,1.6764,1.6914,1.7408,1.7635,1.7916,1.8262,1.8905,1.9305,1.9506,2.0174,2.0575,2.0681,2.0962,2.1109,2.1109,2.1109,2.1172,2.1299,2.1362,2.1317,2.1189,2.1094,2.0767,2.0232,2.0137,1.9676,1.9038,1.8626,1.837,1.821,1.841,1.8368,1.8275,1.8182,1.8063,1.7782,1.7088,1.6874,1.682,1.6513,1.642,1.6509,1.7122,1.7612,1.8087,1.8705,1.9315,1.9648,1.9082,1.9036,1.9074,1.8939,1.8999,1.9293,2.0289,1.9747,1.8972,1.8367,1.7467,1.6916,1.7099,1.7106,1.7296,1.7866,1.7528,1.7092,1.6624,1.5362,1.4545,1.4545,1.4545,1.4283,1.3636,1.3344,1.2751,1.1806,1.1476,1.1122,1.0612,1.0009,0.9708,0.9666,0.0,0.0,0.0,0.0,0.0,0.0,0.0,0.0,0.0,0.0,0.0,0.0,0.0,0.0,0.0,0.0,0.0,0.0,0.0,0.0,0.0,0.0,0.0,1.4028,1.5124,1.6072,1.666,1.7261,1.7622,1.7635,1.7649,1.7796,1.8035,1.8062,1.8302,1.8905,1.8945,1.9199,1.976,2.0067,2.0361,2.0655,2.0962,2.1109,2.1109,2.1109,2.1299,2.1614,2.1978,2.2167,2.2153,2.1858,2.1549,2.124,2.0931,2.0623,2.0284,1.9649,1.943,1.943,1.943,1.9229,1.8934,1.8653,1.8559,1.8492,1.8143,1.805,1.7983,1.7715,1.7621,1.7726,1.829,1.8991,1.9752,2.04,2.1151,2.1594,2.118,2.0817,2.0531,2.0183,2.0035,2.0171,2.0731,2.0558,2.0263,1.9947,1.9268,1.8737,1.8712,1.8726,0.0,1.9151,1.8644,1.8067,1.7632,1.6284,1.5477,1.5477,1.5462,1.5157,1.4487,1.4136,1.3521,1.2589,1.2204,1.1914,1.1654,1.1066,1.0724,1.0675,0.0,0.0,0.0,0.0,0.0,0.0,0.0,0.0,0.0,0.0,0.0,0.0,0.0,0.0,0.0,0.0,0.0,0.0,0.0,0.0,0.0,1.3626,1.4295,1.4713,1.5725,1.6687,1.7275,1.8063,1.8637,1.8851,1.9252,1.9533,1.9567,1.9567,1.9519,1.9265,1.9239,1.9225,1.9158,1.9653,2.0067,2.0347,2.0855,2.1109,2.1109,2.1109,2.1425,2.1978,2.2841,2.3216,2.3168,2.3127,2.2907,2.2612,2.2495,2.2142,2.1569,2.0484,2.004,2.004,2.004,2.0131,2.0173,2.0102,1.9971,1.9728,1.9413,1.9313,1.9213,1.8565,1.8394,1.8505,1.8964,1.9537,2.0164,2.0916,2.1754,2.2348,2.1965,2.1791,2.1772,2.1759,2.1142,2.0829,2.1632,2.1621,2.1414,2.1244,2.0889,2.0615,2.0634,2.0598,2.0606,2.073,2.0087,1.9451,1.8982,1.7655,1.678,1.678,1.6525,1.615,1.5742,1.5078,1.4395,1.37,1.3251,1.2789,1.2349,1.2361,1.2257,0.0,0.0,0.0,0.0,0.0,0.0,0.0,0.0,0.0,0.0,0.0,0.0,0.0,0.0,0.0,0.0,0.0,0.0,0.0,0.0,0.0,0.0,1.471,1.5404,1.5866,1.6567,1.7288,1.7889,1.8637,1.9225,1.9519,1.996,2.0167,2.0167,2.0167,2.0027,1.9573,1.9439,1.935,1.9277,1.9911,2.041,2.0832,2.1562,2.1915,2.1915,2.1915,2.2355,2.3153,2.4008,2.4517,2.4656,2.4456,2.4315,2.4201,2.3989,2.3601,2.3037,0.0,0.0,0.0,0.0,2.1553,2.1988,2.1988,2.1905,2.1689,2.1403,2.1201,2.09,2.0169,1.9718,1.9475,1.9814,2.0225,2.0721,2.1614,2.263,2.336,2.3167,2.3288,2.3308,2.2836,2.21,2.1644,2.1993,2.1967,0.0,2.2059,2.1833,2.1676,2.1802,2.1695,2.1676,2.1802,2.1041,2.0358,1.9996,1.8748,1.7876,1.7876,1.7672,0.0,0.0,0.0,1.5478,1.4625,1.4354,0.0,0.0,0.0,0.0,0.0,0.0,0.0,0.0,1.3013,1.3332,0.0,0.0,0.0,0.0,0.0,0.0,0.0,0.0,0.0,0.0,0.0,0.0,0.0,0.0,0.0,0.0,1.5591,1.6576,1.7166,1.7502,1.7929,1.8477,1.9025,1.9492,1.9813,2.0107,2.0294,2.0334,2.0273,2.0187,1.9867,1.9573,0.0,0.0,0.0,2.1287,2.19,2.2907,2.3402,2.3402,2.3402,2.3961,2.4871,2.5546,2.605,2.6371,2.5989,2.5869,2.5887,2.5555,2.5142,2.4654,2.3032,2.2142,2.19,2.2523,2.3295,2.4005,2.4005,0.0,0.0,2.3682,2.3295,2.2825,2.2095,2.1329,2.0697,2.0802,2.0989,2.1437,2.2362,2.3496,2.4414,2.4414,2.4746,2.4793,2.3599,2.293,2.2461,2.2031,2.1953,2.207,2.2441,2.2331,2.229,2.2441,2.2334,2.229,2.2485,2.1617,2.0941,2.075,1.9625,0.0,1.8895,1.8859,1.868,1.8341,1.7603,1.6702,1.558,1.5526,1.5508,1.5454,1.5394,1.5445,1.5626,1.5559,1.6011,1.6882,1.5605,1.5517,0.0,0.0,0.0,0.0,0.0,0.0,0.0,0.0,0.0,0.0,0.0,0.0,0.0,0.0,0.0,1.5431,1.6166,1.682,1.7422,1.817,1.8704,1.8824,1.9158,1.9573,2.0094,2.0414,2.0695,2.0922,2.0935,2.0708,2.0174,1.988,1.9906,2.0298,2.1351,2.2361,2.3315,2.4751,2.5436,2.5436,2.5436,0.0,2.6564,2.7469,2.7907,2.8062,2.7907,2.7853,2.7937,2.7783,2.7364,2.6562,2.4411,2.336,2.3143,2.4039,2.4778,2.5331,2.5331,2.5331,2.5261,2.4876,2.4683,2.4421,2.3386,2.2737,0.0,2.2121,2.198,2.2024,2.2625,2.3577,2.4414,2.4414,2.4746,2.4949,2.4297,2.353,2.2847,2.248,2.2383,2.2422,2.25,2.2722,2.2906,2.2969,2.2925,2.2906,2.2969,2.2233,2.1668,2.1627,2.0814,2.0235,2.0235,1.9889,1.9621,1.9563,1.8739,1.7912,1.7023,1.6985,1.6831,1.6453,1.642,1.6619,1.6999,1.7317,1.774,1.8208,1.6921,1.696,0.0,0.0,0.0,0.0,0.0,0.0,0.0,0.0,0.0,0.0,0.0,1.3961,1.4242,0.0,1.5591,1.6179,1.6887,1.7582,1.817,1.8891,1.9252,1.8958,1.9439,1.9966,2.0382,2.0999,2.1513,2.1853,2.1992,2.1908,2.1446,2.1198,2.1301,2.2007,2.296,2.3954,2.5107,2.6337,2.697,2.697,2.697,2.7349,2.8044,2.8623,2.8998,2.9194,2.8998,2.8998,2.9176,2.8732,2.8249,2.7636,2.624,2.5313,2.4837,2.5588,2.6391,2.6989,2.6989,2.6989,2.6952,2.6801,2.6595,2.6222,2.5194,2.4447,2.3823,2.3248,2.2853,2.27,2.3196,2.3855,2.4473,2.4687,2.5078,2.5215,2.4551,2.4082,2.3549,2.2906,2.2789,2.2789,2.2789,2.2964,2.3101,2.3101,2.3101,2.3101,2.3101,2.2402,2.1894,2.1894,2.1134,2.0605,2.0605,2.041,2.0137,1.9922,1.9475,1.8851,1.8047,1.8008,1.7812,1.735,1.7545,1.7759,1.8008,1.8437,1.8867,1.9221,1.8598,1.852,0.0,0.0,0.0,0.0,0.0,0.0,0.0,1.2518,1.2893,1.344,1.4202,1.487,1.5255,1.5987,1.667,1.7072,1.7898,1.8646,1.9176,1.9775,1.9951,1.9407,1.9851,2.0375,2.0854,2.1726,2.2472,2.2981,2.3402,2.3593,2.3337,2.3067,2.3395,2.4332,2.5025,2.594,2.7033,2.8063,2.8582,2.8582,2.8582,2.8838,2.9409,2.9608,2.9863,3.0098,2.9804,2.9844,3.0041,2.9184,2.8728,2.8465,2.7799,2.7133,2.6608,2.7025,2.7638,2.8301,2.8301,2.8301,2.8301,2.8301,2.8066,2.7637,2.6777,2.5957,2.5184,2.4277,2.373,2.3413,2.3828,2.4219,2.4629,2.5028,2.541,2.5479,2.4707,2.4473,2.4199,2.3374,2.3159,2.3101,2.3101,2.3101,2.3101,2.3101,2.3023,2.2984,2.2984,2.2285,2.1758,2.1758,2.1075,2.0605,2.0605,2.0605,2.0449,2.0059,2.0039,1.9687,1.889,1.8773,1.8539,1.811,1.8422,1.8637,1.8734,1.9199,1.9629,2.0039,2.0039,1.9863,1.145,1.169,1.2184,1.2516,1.2973,1.3427,0.0,1.4068,1.4362,1.4696,1.5257,1.5826,1.6423,1.696,1.7638,1.8537,1.9459,2.0117,2.048,2.1075,2.1351,2.0988,2.0492,2.0578,2.1511,2.2439,2.3382,2.4301,2.5146,2.5664,2.5631,2.5582,2.5869,2.661,2.7509,2.8318,2.9043,3.0079,3.0587,3.0587,3.0587,3.0587,3.0704,3.0704,3.0762,3.0782,3.0762,3.0762,3.0704,2.9885,2.9458,2.9381,2.8524,2.8121,2.8014,2.7853,2.8014,2.8301,2.8301,2.8301,2.8301,2.8301,2.8262,2.8066,2.7207,2.6621,2.6055,2.5223,2.4609,2.4277,2.4336,2.4668,2.5,2.5106,2.541,2.5605,2.5098,2.4687,2.4277,2.3809,2.3398,2.3101,2.3101,2.3101,2.3101,2.3101,2.2812,2.2578,2.2578,2.1795,2.1268,2.1268,2.0859,2.0605,2.0605,2.0605,2.0586,2.0527,2.0527,2.0273,1.9785,1.9414,1.9004,1.8539,1.8578,1.8828,1.9219,1.9629,2.0078,2.0527,2.0527,2.0507,1.2318,1.2505,1.2946,1.3414,1.4095,1.4696,1.4816,1.5204,1.5578,1.5745,1.6192,1.6783,1.7419,1.8484,1.9517,2.0469,2.1861,2.2863,2.2893,2.3237,2.3231,2.257,2.2017,2.193,2.2423,2.3348,2.4372,2.5583,2.6566,2.7168,2.7168,2.7168,2.7469,2.8164,2.8701,2.9294,2.9962,3.0587,3.0898,3.0898,3.0898,3.0898,3.0898,3.0898,3.0898,3.0898,3.0898,3.0898,3.082,2.9941,2.9626,2.9492,2.8633,2.8301,2.8301,2.8174,2.8174,2.8301,2.8301,2.8301,2.8301,2.8301,2.8301,2.8184,2.7578,2.709,2.6621,2.6016,2.5527,2.5148,2.5148,2.5312,2.5449,2.5449,2.5605,2.5557,2.5204,2.4969,2.459,2.3926,2.3633,2.3437,2.314,2.3101,2.3003,2.2812,2.2617,2.2519,2.2519,2.1717,2.1093,2.0879,2.0723,2.0605,2.0605,2.0605,2.0605,2.0605,2.0605,2.041,1.9941,1.9746,1.9453,1.9023,1.9258,1.9473,1.9648,2.0211,2.0641,2.0954,2.1089,2.1185,1.2945,1.3213,1.3707,1.4295,1.5044,1.5705,1.5833,1.6278,1.6665,1.6747,1.7045,1.7534,1.8278,1.9583,2.086,2.19,2.3701,2.4913,2.4856,2.5007,2.4785,2.3939,2.3386,2.3206,2.3624,2.4367,2.5408,2.6737,2.7948,2.8633,2.882,2.882,2.9016,2.9527,2.9745,3.0039,3.0509,3.0762,3.0898,3.0898,3.0898,3.0898,3.0898,3.0898,3.0898,3.0898,3.0898,3.0898,3.084,3.0059,2.9746,2.9668,2.8809,2.8457,2.8457,2.834,2.8301,2.8301,2.8301,2.8301,2.8301,2.8301,2.8301,2.8203,2.7845,2.7363,2.6934,2.6504,2.6074,2.5693,2.5693,2.5693,2.5693,2.5693,2.5693,2.5596,2.5332,2.5156,2.493,2.4258,2.3945,2.3691,2.3335,2.3179,2.2984,2.2734,2.248,2.2305,2.2168,2.1463,2.0918,2.0644,2.0605,2.0605,2.0605,2.0605,2.0605,2.0605,2.0605,2.0468,2.0117,1.998,1.9766,1.9473,1.9766,1.9922,1.9922,2.064,2.1128,2.1415,2.1721,2.1987,1.312,1.3828,1.4616,1.5204,1.5805,1.6424,1.6919,1.7285,1.7568,1.7876,1.7708,1.7859,1.9037,2.0034,2.1183,2.2613,2.4462,2.5641,2.5641,2.596,2.5851,2.5057,2.4227,2.4134,2.5154,2.5595,2.648,2.7937,2.9336,3.0353,3.0801,3.082,3.082,3.084,3.082,3.084,3.0898,3.0898,3.0898,3.0898,3.0898,3.0898,3.0898,3.0898,3.0898,3.0898,3.0898,3.0898,3.0859,3.0371,3.0176,3.0098,2.9238,2.8906,2.8848,2.8437,2.8301,2.8301,2.8301,2.8301,2.8301,2.8301,2.8301,2.8203,2.7845,2.7363,2.6934,2.6504,2.6074,2.5693,2.5693,2.5693,2.5693,2.5693,2.5693,2.5693,2.5674,2.5371,2.5106,2.5086,2.4355,2.3789,2.3769,2.3418,2.3081,2.3081,2.2422,2.1758,2.1288,2.0879,2.0625,2.0605,2.0605,2.0605,2.0605,2.0605,2.0605,2.0605,2.0605,2.0605,2.0586,2.0137,1.9902,1.9902,1.9902,1.9922,1.9922,2.0793,2.1454,2.2,2.2472,2.2957,1.3788,1.4442,1.5003,1.5778,1.6469,1.7025,1.759,1.8317,1.8877,1.8738,1.8672,1.8932,1.9907,2.1326,2.2845,2.4535,2.6756,2.8197,2.7858,2.7706,2.716,2.6045,2.5421,2.496,2.4755,2.5157,2.6154,2.7853,2.9097,2.998,3.041,3.0723,3.0898,3.0898,3.0898,3.0898,3.0898,3.0898,3.0898,3.0898,3.0898,3.0898,3.0898,3.0898,3.0898,3.0898,3.0898,3.0898,3.0859,3.0391,3.0195,3.0117,2.9258,2.8926,2.8867,2.8437,2.8301,2.8301,2.8301,2.8301,2.8301,2.8301,2.8301,2.8262,2.8125,2.7578,2.6992,2.6836,2.6289,2.5693,2.5693,2.5693,2.5693,2.5693,2.5693,2.5693,2.5693,2.5577,2.543,2.5165,2.4891,2.4453,2.3887,2.3672,2.3379,2.2812,2.2246,2.1719,2.1249,2.084,2.0723,2.0977,2.0742,2.0605,2.0605,2.0605,2.0605,2.0605,2.0741,2.0858,2.1012,2.0968,2.1002,2.1154,2.1154,2.1154,2.1154,2.1866,2.244,2.2868,2.3438,2.3913,1.4522,1.5204,1.5752,1.6469,1.7005,1.7457,1.8025,1.8941,1.9553,1.9289,1.9169,1.9407,2.0379,2.1641,2.3152,2.4915,2.7311,2.8789,2.8516,2.8242,2.7773,2.6953,2.6328,2.5742,2.5176,2.5254,2.5939,2.7278,2.8481,2.9355,2.9941,3.0566,3.0898,3.0898,3.0898,3.0898,3.0898,3.0898,3.0898,3.0898,3.0898,3.0898,3.0898,3.0898,3.0898,3.0898,3.0898,3.0898,3.0859,3.0566,3.0351,3.0137,2.9434,2.9062,2.8867,2.8437,2.8301,2.8301,2.8301,2.8301,2.8301,2.8301,2.8301,2.8301,2.8301,2.7793,2.7226,2.7051,2.6504,2.5937,2.5732,2.5693,2.5693,2.5693,2.5693,2.5693,2.5693,2.5693,2.5596,2.5371,2.5176,2.4891,2.4141,2.3769,2.332,2.2617,2.2285,2.1953,2.1523,2.1211,2.1094,2.1171,2.0977,2.0781,2.0625,2.0605,2.0605,2.0605,2.0858,2.1167,2.1471,2.1797,2.208,2.2419,2.2419,2.2419,2.2419,2.2942,2.346,2.39,2.4443,2.4945,1.5297,1.6086,1.6794,1.7152,1.7434,1.774,1.8265,1.9034,1.9656,1.9512,1.9197,1.9288,2.036,2.1128,2.2153,2.3889,2.6117,2.7689,2.7708,2.7728,2.7728,2.7728,2.6934,2.6406,2.6387,2.6016,2.5937,2.6367,2.7578,2.8672,2.9531,3.041,3.0898,3.0898,3.0898,3.0898,3.0898,3.0898,3.0898,3.0898,3.0898,3.0898,3.0898,3.0898,3.0898,3.0898,3.0898,3.0898,3.0898,3.0898,3.0625,3.0176,2.9746,2.9316,2.8906,2.8457,2.8301,2.8301,2.8301,2.8301,2.8301,2.8301,2.8301,2.8301,2.8301,2.7988,2.763,2.7168,2.6738,2.6328,2.583,2.5732,2.5713,2.5693,2.5693,2.5693,2.5693,2.5693,2.5693,2.5693,2.5352,2.4902,2.4492,2.3666,2.2964,2.2598,2.2539,2.2402,2.1973,2.1894,2.1779,2.1348,2.125,2.1055,2.0703,2.0664,2.0605,2.0605,2.1012,2.1454,2.2,2.2489,2.2973,2.3562,2.3562,2.3562,2.3562,2.3963,2.4456,2.5052,2.5465,2.5921,1.6099,1.67,1.7152,1.7447,1.7528,1.774,1.8265,1.8898,1.927,1.9087,1.8987,1.9118,1.9731,2.0706,2.1969,2.3684,2.576,2.7285,2.7669,2.7728,2.7728,2.7728,2.7187,2.6738,2.6426,2.6289,2.6269,2.6387,2.7578,2.8672,2.9531,3.041,3.0898,3.0898,3.0898,3.0898,3.0898,3.0898,3.0898,3.0898,3.0898,3.0898,3.0898,3.0898,3.0898,3.0898,3.0898,3.0898,3.0898,3.0898,3.082,3.0644,2.9863,2.9512,2.9316,2.8574,2.8301,2.8301,2.8301,2.8301,2.8301,2.8301,2.8301,2.8301,2.8301,2.7988,2.7689,2.7591,2.7187,2.6758,2.6328,2.623,2.6133,2.5771,2.5693,2.5693,2.5693,2.5693,2.5693,2.5693,2.5117,2.4551,2.4434,2.3666,2.3062,2.2945,2.2945,2.2789,2.2402,2.2195,2.2284,2.2669,2.2109,2.167,2.157,2.1114,2.078,2.0605,2.1128,2.1759,2.251,2.3091,2.368,2.4384,2.4361,2.4361,2.4361,2.4779,2.5158,2.5465,2.5875,2.6188,1.6647,1.7166,1.7434,1.7699,1.7845,1.8067,1.8462,1.8941,1.9256,1.891,1.8811,1.8955,1.9616,2.0476,2.168,2.3401,2.5247,2.6602,2.7051,2.6934,2.6953,2.7344,2.7012,2.6719,2.666,2.6836,2.6953,2.6953,2.7793,2.8574,2.9258,3.0312,3.0898,3.0898,3.0898,3.0898,3.0898,3.0898,3.0898,3.0898,3.0898,3.0898,3.0898,3.0898,3.0898,3.0898,3.0898,3.0898,3.0898,3.0898,3.0762,3.0527,2.9844,2.9453,2.9199,2.8535,2.8301,2.8301,2.8301,2.8301,2.8301,2.8301,2.8301,2.8301,2.8301,2.8125,2.791,2.7767,2.748,2.7168,2.6543,2.6387,2.6269,2.5791,2.5693,2.5693,2.5693,2.5693,2.5693,2.5693,2.5019,2.4414,2.4414,2.3666,2.3101,2.3101,2.3101,2.3003,2.2769,2.2834,2.3074,2.3576,2.3227,2.2755,2.2362,2.1803,2.1212,2.0664,2.1262,2.2042,2.301,2.3694,2.4515,2.5476,2.5476,2.5476,2.5476,2.5746,2.5886,2.599,2.6223,2.6521,1.7099,1.7447,1.7687,1.7964,1.829,1.8528,1.8723,1.9056,1.9162,1.875,1.8397,1.8481,1.9443,2.0179,2.1244,2.2903,2.4481,2.5723,2.6152,2.5937,2.5986,2.6836,2.6602,2.6602,2.7129,2.7578,2.7904,2.7963,2.8301,2.8672,2.8984,3.0195,3.0898,3.0898,3.0898,3.0898,3.0898,3.0898,3.0898,3.0898,3.0898,3.0898,3.0898,3.0898,3.0898,3.0879,3.082,3.0801,3.0801,3.0742,3.0469,3.0078,2.9648,2.9258,2.8867,2.8437,2.8301,2.8301,2.8301,2.8301,2.8301,2.8301,2.8301,2.8301,2.8301,2.8301,2.8223,2.7851,2.7806,2.7559,2.6699,2.6465,2.6348,2.581,2.5693,2.5693,2.5693,2.5693,2.5693,2.5693,2.5059,2.4512,2.4512,2.3789,2.3179,2.3179,2.314,2.3101,2.3101,2.3537,2.398,2.4345,2.4344,2.4025,2.3317,2.276,2.2024,2.1036,2.1714,2.2606,2.3615,2.4547,2.5504,2.66,2.6675,2.6725,2.6725,2.6725,2.6725,2.6725,2.6725,2.6977,1.7341,1.7542,1.774,1.8213,1.864,1.8947,1.9068,1.8645,0.0,1.7879,1.7154,1.69,1.788,1.888,2.012,2.187,2.3549,2.4805,2.5234,2.5547,2.5869,2.6445,2.6426,2.6836,2.7969,2.8457,2.8848,2.9274,2.9629,2.9746,2.9473,3.0371,3.0898,3.0898,3.0898,3.0898,3.0898,3.0898,3.0898,3.0898,3.0898,3.0898,3.0898,3.0898,3.0898,3.0859,3.0488,3.0312,3.0293,2.9941,2.9746,2.9629,2.9199,2.8984,2.8867,2.8437,2.8301,2.8301,2.8301,2.8301,2.8301,2.8301,2.8301,2.8301,2.8301,2.8301,2.8281,2.8203,2.8184,2.7988,2.7129,2.6914,2.6699,2.5869,2.5693,2.5693,2.5693,2.5693,2.5693,2.5693,2.5312,2.5008,2.5008,2.4238,2.3672,2.3672,2.3379,2.3101,2.3101,2.3711,2.4402,2.5209,2.5135,2.5036,2.504,2.4331,2.3517,2.2795,2.3551,2.4178,2.4588,2.584,2.67,2.7143,2.7595,2.7821,2.7821,2.7821,2.7821,2.7821,2.7821,2.7871,1.7462,1.7702,1.7915,1.8268,1.8745,1.906,1.8957,0.0,0.0,1.7544,1.6848,1.6585,1.7511,1.837,1.9531,2.1269,2.2793,2.3906,2.4336,2.4785,2.5215,2.5644,2.5898,2.6465,2.7519,2.8223,2.8672,2.8887,2.9297,2.9648,2.9883,3.0527,3.0898,3.0898,3.0898,3.0898,3.0898,3.0898,3.0898,3.0898,3.0898,3.0898,3.0898,3.0898,3.0898,3.0859,3.0391,3.0195,3.0156,2.9746,2.9626,2.9531,2.9082,2.8926,2.8867,2.8437,2.8301,2.8301,2.8301,2.8301,2.8301,2.8301,2.8301,2.8301,2.8301,2.8301,2.8301,2.8301,2.8301,2.8086,2.7246,2.7012,2.6797,2.5888,2.5693,2.5693,2.5693,2.5693,2.5693,2.5693,2.5371,2.5106,2.5106,2.4355,2.3789,2.3789,2.3418,2.3101,2.3101,2.3841,2.4807,2.5902,2.614,2.63,2.6523,2.5938,2.5177,2.4302,2.4831,2.534,2.5709,2.6607,2.725,2.772,2.7971,2.8097,2.8097,2.8097,2.8097,2.8097,2.8097,2.8273,1.7554,1.7756,1.7956,1.8235,1.8701,1.9005,1.8823,1.8542,1.8125,1.744,1.6726,1.6421,1.7216,1.7828,1.8754,2.0489,2.1914,2.293,2.3437,2.3965,2.4453,2.4883,2.541,2.6064,2.707,2.793,2.8457,2.8555,2.8867,2.9355,3.0019,3.041,3.0644,3.0742,3.0742,3.0801,3.0898,3.0898,3.0898,3.0898,3.0801,3.0742,3.0742,3.0644,3.0605,3.0586,3.0117,2.9922,2.9883,2.9473,2.9297,2.9258,2.8926,2.8789,2.875,2.8418,2.8301,2.8301,2.8301,2.8301,2.8301,2.8301,2.8301,2.8301,2.8301,2.8301,2.8301,2.8301,2.8301,2.8125,2.7363,2.709,2.6797,2.5888,2.5693,2.5693,2.5693,2.5693,2.5693,2.5693,2.5449,2.5215,2.5215,2.4492,2.3926,2.3926,2.3477,2.3101,2.3101,2.3907,2.4999,2.6359,2.6958,2.7405,2.7756,2.7396,2.6776,2.5835,2.6124,2.6541,2.6894,2.7392,2.7866,2.8236,2.8398,2.8473,2.8473,2.8473,2.8473,2.8473,2.8473,2.8699,1.7554,1.7609,1.775,1.8096,1.8424,1.8742,1.8997,0.0,1.7934,1.7464,1.6391,1.5633,1.6152,1.6602,1.7428,1.918,2.0566,2.1658,2.2519,2.334,2.4004,2.4434,2.5215,2.623,2.748,2.8359,2.9023,2.9434,2.9492,2.9551,2.9685,2.9724,2.9863,3.0254,3.0254,3.0469,3.0879,3.0898,3.0898,3.0879,3.0469,3.0254,3.0254,2.9863,2.9744,2.9668,2.9219,2.9043,2.9004,2.8594,2.8418,2.8418,2.8359,2.8359,2.834,2.8301,2.8301,2.8301,2.8301,2.8301,2.8301,2.8301,2.8301,2.8301,2.8301,2.8301,2.8301,2.8301,2.8301,2.8184,2.7734,2.7305,2.6797,2.5888,2.5693,2.5693,2.5693,2.5693,2.5693,2.5693,2.5654,2.5635,2.5635,2.4894,2.4355,2.4355,2.3608,2.3101,2.3101,2.3907,2.4999,2.6359,2.708,2.781,2.86,2.8466,2.8124,2.7589,2.8012,2.8138,2.7863,2.8727,2.9084,2.8813,2.9377,2.9628,2.9628,2.9628,2.9628,2.9628,2.9628,2.9654,1.73,1.7501,1.7655,1.7859,1.8072,1.8261,1.8377,1.8008,1.7519,1.709,1.6152,1.5547,1.6007,1.6242,1.6816,1.8281,1.959,2.0644,2.125,2.2519,2.3457,2.3588,2.4368,2.5304,2.6406,2.7266,2.8066,2.875,2.8809,2.8809,2.8809,2.9297,2.9766,3.0176,3.0195,3.043,3.0879,3.0898,3.0898,3.0879,3.041,3.0195,3.0176,2.9766,2.9626,2.9551,2.9101,2.8926,2.8887,2.8457,2.8301,2.8301,2.8301,2.8301,2.8301,2.8301,2.8301,2.8301,2.8301,2.8301,2.8301,2.8301,2.8301,2.8301,2.8301,2.8301,2.8301,2.8301,2.8301,2.8203,2.7826,2.7148,2.6484,2.583,2.5693,2.5693,2.5693,2.5693,2.5693,2.5693,2.5693,2.5693,2.5693,2.5,2.4414,2.4414,2.3647,2.3101,2.3101,2.3797,2.4765,2.5944,2.704,2.8155,2.9287,2.9351,2.917,2.9013,2.9194,2.9213,2.9107,2.946,2.9601,2.9453,2.9679,2.9804,2.9804,2.9804,2.9804,2.9804,2.9804,2.9804,1.6857,1.7152,1.7371,1.738,1.7536,1.7679,1.7752,1.7452,1.7109,1.6765,1.6005,1.5508,1.585,1.5889,1.6339,1.7617,1.8691,1.9629,2.0488,2.1836,2.2769,2.2906,2.3711,2.457,2.5449,2.6543,2.7519,2.8242,2.8301,2.8301,2.8301,2.8867,2.9394,2.9805,2.9824,3.0039,3.0488,3.0508,3.0508,3.0488,3.0039,2.9824,2.9805,2.9394,2.9199,2.918,2.8867,2.873,2.8711,2.8418,2.8301,2.8301,2.8301,2.8301,2.8301,2.8301,2.8301,2.8301,2.8301,2.8301,2.8301,2.8301,2.8301,2.8301,2.8301,2.8301,2.8301,2.8301,2.8301,2.8164,2.7617,2.7031,2.6426,2.583,2.5693,2.5693,2.5693,2.5693,2.5693,2.5693,2.5693,2.5693,2.5693,2.5117,2.4609,2.4609,2.3984,2.3471,2.3471,2.3947,2.4629,2.5572,2.6655,2.7931,2.9468,2.9663,2.9702,2.9779,2.9804,2.9804,2.9804,2.9804,2.9804,2.9804,2.9804,2.9804,2.9804,2.9804,2.9804,2.9804,2.9804,2.9804,1.6206,1.65,1.6697,1.669,1.6789,1.7015,1.7339,1.7026,1.6707,1.6707,1.6005,1.541,1.541,1.541,1.5859,1.7168,1.7754,1.8633,2.037,2.1368,2.2051,2.2461,2.3281,2.4141,2.5047,2.6691,2.7832,2.8262,2.8301,2.8301,2.8301,2.8301,2.8496,2.8926,2.8926,2.9141,2.9646,2.9646,2.9646,2.9646,2.9141,2.8926,2.8926,2.8496,2.8301,2.8301,2.8301,2.8301,2.8301,2.8301,2.8301,2.8301,2.8301,2.8301,2.8301,2.8301,2.8301,2.8301,2.8301,2.8301,2.8301,2.8301,2.8301,2.8301,2.8301,2.8301,2.8301,2.8301,2.8301,2.8086,2.7246,2.7012,2.6797,2.5888,2.5693,2.5693,2.5693,2.5693,2.5693,2.5693,2.5693,2.5693,2.5693,2.5371,2.5106,2.5106,2.4687,2.4414,2.4414,2.4451,2.4706,2.5326,2.5871,2.6999,2.8934,2.9263,2.9521,2.9779,2.9804,2.9804,2.9804,2.9804,2.9804,2.9804,2.9804,2.9804,2.9804,2.9804,2.9804,2.9804,2.9804,2.9804,1.5343,1.5591,1.5879,1.6034,1.6354,1.6612,1.6591,1.6652,1.6609,1.6328,1.582,1.541,1.541,1.541,1.5712,1.6777,1.7305,1.8066,1.9492,2.0703,2.1602,2.2031,2.334,2.4687,2.5859,2.6738,2.7519,2.8242,2.8301,2.8301,2.8301,2.8301,2.8476,2.8906,2.8926,2.9121,2.9626,2.9626,2.9626,2.957,2.9121,2.8926,2.8906,2.8476,2.8301,2.8301,2.8301,2.8301,2.8301,2.8301,2.8301,2.8301,2.8301,2.8301,2.8301,2.8301,2.8301,2.8301,2.8301,2.8301,2.8301,2.8301,2.8301,2.8301,2.8301,2.8301,2.8301,2.8301,2.8301,2.8164,2.7598,2.7246,2.6875,2.6309,2.5908,2.5693,2.5693,2.5693,2.5693,2.5693,2.5693,2.5693,2.5693,2.5371,2.5106,2.5106,2.4687,2.4414,2.4414,2.4451,2.4771,2.539,2.602,2.6958,2.8307,2.8767,2.9209,2.974,2.9804,2.9804,2.9804,2.9804,2.9804,2.9804,2.9804,2.9804,2.9804,2.9804,2.9804,2.9804,2.9804,2.9804,1.4365,1.4683,1.5011,1.5375,1.578,1.6124,1.6191,1.6336,1.6406,1.6144,1.5752,1.541,1.541,1.541,1.5703,1.6551,1.6973,1.7695,1.9297,2.0469,2.16,2.2715,2.4062,2.5293,2.6289,2.6914,2.7539,2.8242,2.8301,2.8301,2.8301,2.8301,2.8418,2.8672,2.8672,2.8809,2.9082,2.9082,2.9082,2.9082,2.8809,2.8672,2.8672,2.8418,2.8301,2.8301,2.8301,2.8301,0.0,2.8301,2.8301,2.8301,2.8301,2.8301,2.8301,2.8301,2.8301,2.8301,2.8301,2.8301,2.8301,2.8301,2.8301,2.8301,2.8301,2.8301,2.8301,2.8301,2.8301,2.8203,2.7826,2.7344,2.6914,2.6484,2.6055,2.5693,2.5693,2.5693,2.5693,2.5693,2.5693,2.5693,2.5693,2.5508,2.5254,2.5145,2.4844,2.4609,2.4434,2.4451,2.4771,2.539,2.6214,2.7148,2.8312,2.873,2.917,2.974,2.9804,2.9804,2.9804,2.9804,2.9804,2.9804,2.9804,2.9804,2.9804,2.9804,2.9804,2.9804,2.9804,2.9804,0.0,1.3843,1.424,1.4793,1.5181,1.5531,1.6053,1.6128,0.0,1.6046,1.5703,1.541,1.541,1.543,1.5712,1.657,1.6746,1.7506,1.9629,2.0742,2.2146,2.4212,2.5254,2.5977,2.6426,2.7207,2.7904,2.8262,2.8301,2.8301,2.8301,2.8301,2.8301,2.8301,2.8301,2.8301,2.8301,2.8301,2.8301,2.8301,2.8301,2.8301,2.8301,2.8301,2.8301,2.8301,2.8301,2.8301,2.8301,2.8301,2.8301,2.8301,2.8301,2.8301,2.8301,2.8301,2.8301,2.8301,2.8301,2.8301,2.8301,2.8301,2.8301,2.8301,2.8301,2.8301,2.8301,2.8301,2.8301,2.8203,2.7812,2.7363,2.6914,2.6523,2.6074,2.5693,2.5693,2.5693,2.5693,2.5693,2.5693,2.5693,2.5693,2.5693,2.5557,2.5176,2.5145,2.4922,2.4512,2.447,2.4706,2.5326,2.639,2.7518,2.8786,2.9052,2.9361,2.9816,2.9804,2.9804,2.9804,2.9804,2.9804,2.9804,2.9804,2.9804,2.9804,2.9829,2.9854,2.9854,2.9905,2.9905,1.3493,0.0,1.4446,1.4935,1.5283,1.5527,0.0,1.5939,1.6007,1.5625,1.5488,1.541,1.541,1.5684,1.6094,1.6609,1.7252,1.8223,1.9707,2.1797,2.375,2.5206,2.5898,2.6523,2.7337,2.7611,2.7904,2.8262,2.8301,2.8301,2.8301,2.8301,2.8301,2.8301,2.8301,2.8301,2.8301,2.8301,2.8301,2.8301,2.8301,2.8301,2.8301,2.8301,2.8301,2.8301,2.8301,2.8301,2.8301,2.8301,2.8301,2.8301,2.8301,2.8301,2.8301,2.8301,2.8301,2.8301,2.8301,2.8301,2.8301,2.8301,2.8301,2.8301,2.8301,2.8301,2.8301,2.8301,2.8301,2.8262,2.8164,2.7578,2.6992,2.6894,2.6289,2.5693,2.5693,2.5693,2.5693,2.5693,2.5693,2.5693,2.5693,2.5693,2.5654,2.5557,2.5293,2.5086,2.4969,2.4669,2.4771,2.539,2.6519,2.771,2.8899,2.927,2.9745,3.0367,3.003,2.9804,2.9804,2.9804,2.9804,2.9804,2.9804,2.9804,2.9804,3.0206,3.0407,3.0432,3.0834,3.1009,1.3711,1.4202,1.4605,1.5211,1.5389,1.5458,1.5674,1.5749,1.5703,1.5449,1.541,1.5469,1.5664,1.5928,1.6359,1.7187,1.7837,1.9023,2.1113,2.3301,2.5098,2.6191,2.6875,2.7441,2.791,2.8002,2.8047,2.8281,2.8301,2.8301,2.8301,2.8301,2.8301,2.8301,2.8301,2.8301,2.8301,2.8301,2.8301,2.8301,2.8301,2.8301,2.8301,2.8301,2.8301,2.8301,2.8301,2.8301,2.8301,2.8301,2.8301,2.8301,2.8301,2.8301,2.8262,2.8066,2.8008,2.7969,2.7773,2.7715,2.7734,2.7949,2.8008,2.8047,2.8242,2.8301,2.8301,2.8301,2.8301,2.8301,2.8301,2.7812,2.7305,2.7305,2.666,2.6035,2.6035,2.583,2.5693,2.5693,2.5693,2.5693,2.5693,2.5693,2.5615,2.5449,2.5215,2.4969,2.4531,2.4669,2.495,2.5411,2.6868,2.8307,2.9545,3.0073,3.0417,3.0618,3.0331,3.0055,2.9804,2.9804,2.9804,2.9804,2.9804,2.9804,2.9804,3.0357,3.0608,3.0633,3.116,3.1386,1.4081,1.458,1.4985,1.5704,1.5698,1.5591,1.5997,1.5823,1.5605,1.5605,1.5605,1.5723,1.6124,1.63,1.677,1.791,1.8695,2.0138,2.2914,2.4687,2.6005,2.6914,2.7715,2.8223,2.8281,2.8301,2.8301,2.8301,2.8301,2.8262,2.8203,2.8262,2.8262,2.8203,2.8262,2.8262,2.8203,2.8262,2.8301,2.8301,2.8301,2.8301,2.8301,2.8301,2.8301,2.8301,2.8301,2.8301,2.8301,2.8301,2.8301,2.8301,2.8301,2.8301,2.8242,2.7865,2.7728,2.765,2.7168,2.7012,2.709,2.7519,2.7728,2.7806,2.8164,2.8301,2.8301,2.8301,2.8301,2.8301,2.8301,2.793,2.7559,2.7559,2.6914,2.6289,2.6289,2.5996,2.5693,2.5693,2.5693,2.5693,2.5693,2.5693,2.5557,2.5234,2.5165,2.4851,2.4082,2.4604,2.5144,2.5404,2.7101,2.8791,3.0091,3.0817,3.1009,3.0773,3.0743,3.0532,3.0055,3.003,3.003,3.003,3.003,3.003,3.003,3.0583,3.0859,3.0859,3.1411,3.1637,1.4743,1.5735,1.6411,1.6638,1.6508,1.6407,1.6821,1.6683,1.6492,1.6492,1.6492,1.6512,1.659,1.7227,1.7891,1.8422,2.0411,2.2324,2.3535,2.4883,2.6005,2.6914,2.7461,2.7963,2.8262,2.8301,2.8301,2.8301,2.8301,2.8144,2.7826,2.8105,2.8125,2.7826,2.8105,2.8125,2.7826,2.8125,2.8301,2.8301,2.8301,2.8301,2.8301,2.8301,2.8301,2.8301,2.8301,2.8301,2.8301,2.8301,2.8301,2.8301,2.8301,2.8301,2.8242,2.7865,2.7728,2.765,2.7168,2.7012,2.709,2.7519,2.7728,2.7806,2.8164,2.8301,2.8301,2.8301,2.8301,2.8301,2.8301,2.7715,2.7109,2.7109,2.6465,2.5791,2.5791,2.5732,2.5693,2.5693,2.5693,2.5693,2.5693,2.5693,2.5674,2.5644,2.5312,2.5067,2.493,2.4888,2.4991,2.5431,2.6683,2.7958,2.9214,3.0316,3.1065,3.1343,3.1331,3.1235,3.116,3.1135,3.1135,3.1135,3.1135,3.1135,3.116,3.1687,3.1964,3.1989,3.2541,3.286,1.4558,1.5769,1.6779,1.7087,1.724,1.736,1.7528,1.7492,1.733,1.7129,1.709,1.7148,1.735,1.7896,1.8831,2.043,2.1934,2.3242,2.4336,2.5215,2.5927,2.6602,2.7051,2.7383,2.7578,2.7598,2.7598,2.7598,2.7598,2.7519,2.7324,2.75,2.7519,2.7324,2.75,2.7519,2.7324,2.75,2.7715,2.7949,2.7949,2.8066,2.8281,2.8066,2.7949,2.793,2.7695,2.7598,2.7598,2.7598,2.7598,2.7598,2.7754,2.789,2.8006,2.7874,2.7553,2.7232,2.6834,2.6606,2.6586,2.6887,2.6973,2.709,2.7754,2.7949,2.8008,2.8223,2.8301,2.8301,2.8301,2.7832,2.7363,2.7363,2.6719,2.6094,2.6094,2.5898,2.5693,2.5693,2.5693,2.5693,2.5693,2.5693,2.5693,2.5693,2.5566,2.5352,2.5145,2.5212,2.5275,2.5272,2.6241,2.7238,2.8212,2.9306,3.0456,3.1631,3.1547,3.1386,3.1386,3.1386,3.1386,3.1386,3.1386,3.1386,3.1386,3.1938,3.2215,3.2215,3.2817,3.3111,1.4281,1.5489,1.6551,1.7227,1.7695,1.8027,1.8144,1.813,1.8086,1.7871,1.7832,1.793,1.8242,1.8792,1.9923,2.2148,2.3047,2.3873,2.4969,2.5449,2.5849,2.6328,2.668,2.6914,2.7012,2.7012,2.7012,2.7012,2.7012,2.6973,2.6875,2.6973,2.6973,2.6875,2.6973,2.6973,2.6875,2.6875,2.7129,2.7728,2.7728,2.7891,2.8281,2.7851,2.7728,2.7689,2.7207,2.7012,2.7012,2.7012,2.7012,2.7012,2.7348,2.7744,2.8102,2.8321,2.795,2.7268,2.6907,2.6524,2.6315,2.6399,2.6387,2.6543,2.7454,2.7728,2.7806,2.8184,2.8223,2.8144,2.8144,2.7754,2.7415,2.7415,2.6797,2.623,2.623,2.5977,2.5693,2.5693,2.5693,2.5693,2.5693,2.5693,2.5693,2.5693,2.5693,2.5557,2.5273,2.5527,2.5605,2.5254,2.596,2.6764,2.7647,2.8656,2.9964,3.159,3.1763,3.1788,3.1788,3.1788,3.1788,3.1788,3.1788,3.1788,3.1788,3.2215,3.2416,3.2416,3.2867,3.3111,1.4211,1.503,1.5801,1.707,1.7695,1.8105,1.8461,1.8559,1.8656,1.9082,1.9141,1.916,1.918,2.0215,2.1327,2.2344,2.3535,2.4512,2.5047,2.5449,2.5849,2.6328,2.6426,2.6582,2.6973,2.7012,2.7012,2.7012,2.7012,2.6836,2.6465,2.6797,2.6836,2.6445,2.6816,2.6836,2.6445,2.6426,2.6855,2.7728,2.7728,2.7891,2.8281,2.7851,2.7728,2.7689,2.7207,2.7012,2.7012,2.7012,2.7012,2.7063,2.7571,2.8239,2.8988,2.9639,2.9308,2.8448,2.7767,2.722,2.6797,2.6478,2.6387,2.6543,2.7454,2.7728,2.7806,2.8184,2.8008,2.7767,2.7767,2.709,2.6484,2.6484,2.6113,2.5732,2.5732,2.5713,2.5693,2.5693,2.5693,2.5693,2.5693,2.5693,2.5693,2.5693,2.5693,2.5674,2.5635,2.5674,2.5674,2.5635,2.5945,2.662,2.7857,2.9073,3.0102,3.0932,3.2253,3.3011,3.3011,3.3011,3.3011,3.3011,3.3011,3.3011,3.3011,3.3036,3.3061,3.3061,3.3068,3.3111,1.3952,1.5023,1.6026,1.6777,1.75,1.8184,1.8887,1.9453,1.9883,2.0077,2.0312,2.0488,2.0488,2.1113,2.2012,2.3125,2.3926,2.4668,2.5391,2.5577,2.5752,2.5957,2.5977,2.6005,2.6211,2.6161,2.6161,2.6161,2.6161,2.6152,2.5996,2.6133,2.6103,2.5996,2.6083,2.6103,2.5996,2.5977,2.6289,2.6875,2.6875,2.709,2.748,2.707,2.6875,2.6887,2.6556,2.6557,2.6705,2.6901,2.7028,2.7224,2.822,2.9045,2.9824,3.0354,3.0034,2.9235,2.8376,2.7647,2.6976,2.6211,2.5977,2.6094,2.668,2.6875,2.6953,2.7383,2.7187,2.7043,2.7571,2.7031,2.6387,2.6387,2.6055,2.5693,2.5693,2.5693,2.5693,2.5693,2.5693,2.5693,2.5693,2.5693,2.5693,2.5693,2.5693,2.5693,2.5693,2.5693,2.5693,2.5693,2.5771,2.6159,2.7023,2.793,2.8841,2.9715,3.1605,3.2723,3.2853,3.3025,3.3111,3.3111,3.3111,3.3111,3.3111,3.3111,3.3111,3.3111,3.3111,3.3111,1.3795,1.4837,1.5889,1.6719,1.7447,1.8301,1.9434,2.0175,2.0644,2.0742,2.1133,2.1405,2.1405,2.1797,2.2461,2.3613,2.4141,2.468,2.5557,2.5693,2.5693,2.5693,2.5693,2.5693,2.5693,2.5693,2.5693,2.5693,2.5693,2.5693,2.5693,2.5693,2.5693,2.5693,2.5771,2.5868,2.5965,2.6014,2.6269,2.6665,2.6665,2.6764,2.6992,2.6582,2.6387,2.6417,2.6309,2.6476,2.686,2.722,2.7647,2.8236,2.9326,3.017,3.0824,3.1403,3.1092,3.0215,2.905,2.8143,2.7289,2.6062,2.5693,2.5771,2.625,2.6387,2.6465,2.6894,2.6719,2.6523,2.7109,2.6719,2.6191,2.6191,2.5908,2.5693,2.5693,2.5693,2.5693,2.5693,2.5693,2.5693,2.5693,2.5693,2.5693,2.5693,2.5693,2.5693,2.5693,2.5693,2.5693,2.5693,2.5693,2.5868,2.6352,2.7003,2.7788,2.8678,3.0554,3.1869,3.2438,3.2896,3.3111,3.3111,3.3111,3.3111,3.3111,3.3111,3.3111,3.3111,3.3111,3.3111,1.3725,1.4398,1.5244,1.6953,1.7715,1.8477,2.0214,2.0605,2.0742,2.1132,2.1602,2.1894,2.1894,2.2246,2.2812,2.3652,2.4141,2.4727,2.5557,2.5693,2.5693,2.5693,2.5693,2.5693,2.5693,2.5693,2.5693,2.5693,2.5693,2.5693,2.5693,2.5693,2.5693,2.5693,2.5965,2.6235,2.6496,2.6764,2.7003,2.722,2.722,2.7134,2.6992,2.6562,2.6436,2.6397,2.6503,2.6955,2.7626,2.8143,2.905,3.026,3.0956,3.1557,3.2133,3.2853,3.2506,3.1472,2.992,2.8795,2.7762,2.6207,2.5693,2.5771,2.625,2.6387,2.6465,2.6894,2.6699,2.6387,2.6387,2.6055,2.5693,2.5693,2.5693,2.5693,2.5693,2.5693,2.5693,2.5693,2.5693,2.5693,2.5693,2.5693,2.5693,2.5693,2.5693,2.5693,2.5693,2.5693,2.5693,2.5693,2.5693,2.582,2.6042,2.6572,2.7194,2.7951,2.9119,3.0441,3.1933,3.2723,3.3068,3.3068,3.3068,3.3068,3.3111,3.3111,3.3111,3.3111,3.3111,3.3111,1.411,1.5042,1.6065,1.7461,1.8379,1.9199,2.0351,2.1094,2.1797,2.2812,2.3144,2.3223,2.3223,2.332,2.3594,2.4141,2.459,2.5078,2.5615,2.5693,2.5693,2.5693,2.5693,2.5693,2.5693,2.5693,2.5693,2.5693,2.5693,2.5693,2.5693,2.5693,2.5693,2.5693,2.6159,2.6668,2.7268,2.7673,2.819,2.8773,2.8773,2.8177,2.715,2.7028,2.6967,2.6995,2.7568,2.8164,2.8749,2.9715,3.0531,3.1226,3.1625,3.2064,3.2525,3.2939,3.2506,3.1472,2.992,2.8888,2.8066,2.6688,2.6255,2.6295,2.6415,2.6357,2.6182,2.6123,2.6016,2.5937,2.5937,2.5791,2.5693,2.5693,2.5693,2.5693,2.5693,2.5693,2.5693,2.5693,2.5693,2.5693,2.5693,2.5693,2.5693,2.5693,2.5693,2.5693,2.5693,2.5693,2.5693,2.5693,2.5693,2.5742,2.582,2.5965,2.6304,2.6928,2.7788,2.9073,3.0937,3.1737,3.2176,3.2307,3.2506,3.268,3.281,3.3025,3.3111,3.3111,3.3111,3.3111,1.4281,1.5452,1.6641,1.793,1.9043,2.0155,2.1309,2.1875,2.2402,2.334,2.3672,2.3789,2.3789,2.3926,2.418,2.4609,2.4902,2.5215,2.5635,2.5693,2.5693,2.5693,2.5771,2.5917,2.6033,2.611,2.6207,2.6304,2.6304,2.6304,2.6304,2.6304,2.6304,2.6304,2.6907,2.7552,2.819,2.8749,2.9395,3.0011,3.0011,2.951,2.8656,2.8283,2.8096,2.8143,2.9096,2.9806,3.0351,3.1359,3.1933,3.222,3.2351,3.2612,3.2896,3.3025,3.2506,3.1472,2.992,2.9026,2.8326,2.7289,2.6955,2.6955,2.6955,2.6668,2.6332,2.5839,2.5693,2.5693,2.5693,2.5693,2.5693,2.5693,2.5693,2.5693,2.5693,2.5693,2.5693,2.5693,2.5693,2.5693,2.5693,2.5693,2.5693,2.5693,2.5693,2.5693,2.5693,2.5693,2.5693,2.5693,2.5693,2.5693,2.5693,2.5693,2.5868,2.6304,2.6955,2.793,2.9187,3.0215,3.0958,3.1247,3.1713,3.2089,3.2438,3.2896,3.3111,3.3111,3.3111,3.3111,1.4246,1.5662,1.7025,1.8309,1.9707,2.1153,2.2711,2.2808,2.2695,2.3062,2.3555,2.3867,2.3906,2.4219,2.4609,2.5059,2.5137,2.5273,2.5635,2.5693,2.5693,2.5693,2.5965,2.6235,2.6592,2.686,2.7125,2.7363,2.741,2.741,2.741,2.741,2.741,2.741,2.8164,2.8795,2.9303,3.0011,3.0599,3.1113,3.1113,3.1113,3.1069,3.0011,2.9555,2.9692,3.0777,3.1557,3.2133,3.281,3.3111,3.3111,3.3111,3.3111,3.3111,3.3111,3.2506,3.1472,2.992,2.9119,2.8631,2.793,2.7694,2.7694,2.7694,2.7315,2.6764,2.5917,2.5693,2.5693,2.5693,2.5693,2.5693,2.5693,2.5693,2.5693,2.5693,2.5693,2.5693,2.5693,2.5693,2.5693,2.5693,2.5693,2.5693,2.5693,2.5693,2.5693,2.5693,2.5693,2.5693,2.5693,2.5693,2.5693,2.5693,2.5693,2.5771,2.6062,2.6524,2.686,2.7051,2.8495,2.951,3.0079,3.0777,3.14,3.1977,3.2723,3.3111,3.3111,3.3111,3.3111,1.4276,1.578,1.7187,1.8579,2.0275,2.1875,2.2867,2.3023,2.3081,2.3555,2.3984,2.4394,2.4727,2.4863,2.5078,2.5527,2.5586,2.5577,2.5674,2.5693,2.5693,2.5693,2.611,2.6668,2.7315,2.7767,2.8283,2.8866,2.8958,2.8958,2.8958,2.8958,2.8958,2.8958,2.951,3.0102,3.0732,3.1291,3.1957,3.2612,3.2612,3.2612,3.2568,3.1202,3.08,3.1158,3.1625,3.2108,3.2593,3.2939,3.3111,3.3111,3.3111,3.3111,3.3111,3.3111,3.2506,3.1472,2.992,2.9211,2.8932,2.833,2.8211,2.8233,2.8143,2.7673,2.6955,2.5965,2.5693,2.5693,2.5693,2.5693,2.5693,2.5693,2.5693,2.5693,2.5693,2.5693,2.5693,2.5693,2.5693,2.5693,2.5693,2.5693,2.5693,2.5693,2.5693,2.5693,2.5693,2.5693,2.5693,2.5693,2.5693,2.5693,2.5693,2.5693,2.5742,2.5771,2.5868,2.5965,2.6014,2.7505,2.8631,2.9303,3.0192,3.1,3.1669,3.2636,3.3111,3.3111,3.3111,3.3111,1.3848,1.5728,1.7718,2.0082,2.1442,2.2363,2.2945,2.3101,2.3159,2.3437,2.3828,2.4258,2.4668,2.4969,2.5215,2.5615,2.582,2.5917,2.6062,2.6207,2.6304,2.64,2.7003,2.7647,2.8236,2.8841,2.9441,3.0056,3.0102,3.0102,3.0102,3.0102,3.0102,3.0102,3.0621,3.1113,3.1601,3.2064,3.2568,3.3111,3.3111,3.3111,3.3068,3.2307,3.2089,3.2307,3.2481,3.268,3.2896,3.3025,3.3111,3.3111,3.3111,3.3111,3.3111,3.3111,3.2506,3.1472,2.992,2.9349,2.9255,2.8934,2.8841,2.8932,2.8841,2.8236,2.7336,2.6062,2.5693,2.5693,2.5693,2.5693,2.5693,2.5693,2.5693,2.5693,2.5693,2.5693,2.5693,2.5693,2.5693,2.5693,2.5693,2.5693,2.5693,2.5693,2.5693,2.5693,2.5693,2.5693,2.5693,2.5693,2.5693,2.5693,2.5693,2.5693,2.5693,2.5693,2.5693,2.5693,2.5693,2.6496,2.7336,2.8143,2.9372,3.0418,3.127,3.2481,3.3111,3.3111,3.3111,3.3111,1.3284,1.5636,1.8323,2.1571,2.2402,2.2539,2.2984,2.3101,2.3101,2.3101,2.3437,2.3828,2.4316,2.4707,2.5137,2.5596,2.5965,2.6284,2.664,2.6955,2.7268,2.7552,2.8258,2.8888,2.9395,3.0102,3.0734,3.1226,3.1247,3.1247,3.1247,3.1247,3.1247,3.1247,3.1669,3.1977,3.222,3.2593,3.2896,3.3111,3.3111,3.3111,3.3111,3.3111,3.3111,3.3111,3.3111,3.3111,3.3111,3.3111,3.3111,3.3111,3.3111,3.3111,3.3111,3.3111,3.255,3.156,3.0056,2.9624,2.9669,2.9555,2.9624,2.9669,2.9555,2.8888,2.7809,2.6255,2.5771,2.5791,2.5693,2.5693,2.5693,2.5693,2.5693,2.5693,2.5693,2.5693,2.5693,2.5693,2.5693,2.5693,2.5693,2.5693,2.5693,2.5693,2.5693,2.5693,2.5693,2.5693,2.5693,2.5693,2.5693,2.5693,2.5693,2.5693,2.5693,2.5693,2.5693,2.5693,2.5693,2.5693,2.611,2.7051,2.8541,2.9784,3.0779,3.2264,3.2982,3.3025,3.3068,3.3111,1.2911,1.5738,1.8713,2.1341,2.1973,2.2168,2.2925,2.3101,2.3101,2.3101,2.314,2.3432,2.4277,2.4473,2.4766,2.5557,2.611,2.6668,2.7363,2.7814,2.8355,2.905,2.9601,3.0192,3.0866,3.1424,3.2045,3.2766,3.281,3.281,3.281,3.281,3.281,3.281,3.2853,3.2939,3.2939,3.3025,3.3068,3.3111,3.3111,3.3111,3.3111,3.3111,3.3111,3.3111,3.3111,3.3111,3.3111,3.3111,3.3111,3.3111,3.3111,3.3111,3.3111,3.3111,3.2636,3.1757,3.0531,3.0238,3.0419,3.017,3.0283,3.0397,3.017,2.9395,2.8305,2.6812,2.6255,2.6014,2.5771,2.5693,2.5693,2.5693,2.5693,2.5693,2.5693,2.5693,2.5693,2.5693,2.5693,2.5693,2.5693,2.5693,2.5693,2.5693,2.5693,2.5693,2.5693,2.5693,2.5693,2.5693,2.5693,2.5693,2.5693,2.5693,2.5693,2.5693,2.5693,2.5693,2.5693,2.5693,2.5965,2.6592,2.8049,2.9303,3.0306,3.1761,3.2593,3.2766,3.2982,3.3111,1.3833,1.647,1.8911,2.1549,2.2246,2.2402,2.2964,2.3101,2.3101,2.3101,2.3101,2.3276,2.3945,2.4062,2.4277,2.4902,2.5518,2.6197,2.7031,2.793,2.8834,2.9689,3.0503,3.1158,3.1601,3.2108,3.2568,3.3068,3.3111,3.3111,3.3111,3.3111,3.3111,3.3111,3.3111,3.3111,3.3111,3.3111,3.3111,3.3111,3.3111,3.3111,3.3111,3.3111,3.3111,3.3111,3.3111,3.3111,3.3111,3.3111,3.3111,3.3111,3.3111,3.3111,3.3111,3.3111,3.2723,3.2089,3.1113,3.0869,3.0982,3.08,3.0869,3.0982,3.08,3.0079,2.898,2.7505,2.686,2.6428,2.582,2.5693,2.5693,2.5693,2.5693,2.5693,2.5693,2.5937,2.6172,2.6356,2.6445,2.6445,2.6445,2.6445,2.6445,2.6445,2.6445,2.6445,2.6445,2.6445,2.6445,2.6445,2.6445,2.6445,2.6445,2.6445,2.6445,2.6445,2.6445,2.6445,2.6445,2.623,2.6241,2.6614,2.7583,2.8563,2.96,3.1048,3.1933,3.2307,3.2853,3.3111,1.4547,1.6722,1.8576,2.1202,2.1934,2.2148,2.2695,2.2867,2.2964,2.3081,2.3101,2.3198,2.3574,2.3711,2.3926,2.4355,2.5077,2.5965,2.693,2.8255,2.9456,3.0529,3.1419,3.2089,3.2264,3.2568,3.2896,3.3068,3.3111,3.3111,3.3111,3.3111,3.3111,3.3111,3.3111,3.3111,3.3111,3.3111,3.3111,3.3111,3.3111,3.3111,3.3111,3.3111,3.3111,3.3111,3.3111,3.3111,3.3111,3.3111,3.3111,3.3111,3.3111,3.3111,3.3111,3.3111,3.281,3.2376,3.1645,3.1492,3.156,3.1424,3.1492,3.156,3.1424,3.0777,2.9806,2.8376,2.7683,2.7167,2.6269,2.6075,2.6104,2.6055,2.6005,2.5986,2.5869,2.6152,2.6523,2.6934,2.7012,2.7012,2.7012,2.7012,2.7012,2.7012,2.7012,2.7012,2.7012,2.7012,2.7012,2.7012,2.7012,2.7012,2.7012,2.7012,2.7012,2.7012,2.7012,2.7012,2.7012,2.6602,2.6467,2.6596,2.6939,2.7694,2.8817,3.0192,3.1113,3.1669,3.2394,3.2766,1.4435,1.5952,1.7469,1.9521,2.0352,2.0938,2.1758,2.2266,2.2656,2.3023,2.3101,2.3101,2.312,2.3516,2.3926,2.4355,2.524,2.6349,2.7678,2.9134,3.0639,3.1921,3.2632,3.3025,3.3025,3.3068,3.3068,3.3111,3.3111,3.3111,3.3111,3.3111,3.3111,3.3111,3.3111,3.3111,3.3111,3.3111,3.3111,3.3111,3.3111,3.3111,3.3111,3.3111,3.3111,3.3111,3.3111,3.3111,3.3111,3.3111,3.3111,3.3111,3.3111,3.3111,3.3111,3.3111,3.2939,3.2612,3.2133,3.2133,3.2288,3.2045,3.2133,3.2288,3.2045,3.1448,3.0576,2.9349,2.8816,2.8368,2.7296,2.7172,2.7238,2.6984,2.6953,2.6836,2.6445,2.6367,2.6523,2.6934,2.7012,2.7012,2.7012,2.7012,2.7012,2.7012,2.7012,2.7012,2.7012,2.7012,2.7012,2.7012,2.7012,2.7012,2.7012,2.7012,2.7012,2.7012,2.7012,2.7012,2.7012,2.6602,2.6387,2.6436,2.6006,2.6544,2.8045,2.9257,3.0147,3.0713,3.1427,3.1869,1.3779,1.5182,1.6641,1.8263,1.9219,2.0059,2.1211,2.1797,2.2305,2.2945,2.3101,2.3101,2.3101,2.3218,2.3418,2.353,2.4371,2.5442,2.683,2.8295,2.984,3.1472,3.219,3.2667,3.3043,3.3111,3.3111,3.3111,3.3111,3.3111,3.3111,3.3111,3.3111,3.3111,3.3111,3.3111,3.3111,3.3111,3.3111,3.3111,3.3111,3.3111,3.3111,3.3111,3.3111,3.3111,3.3111,3.3111,3.3111,3.3111,3.3111,3.3111,3.3111,3.3111,3.3111,3.3111,3.3025,3.2939,3.2742,3.2766,3.281,3.2766,3.2766,3.281,3.2766,3.2307,3.1649,3.0687,3.0193,2.9566,2.8174,2.7909,2.7804,2.7165,2.7012,2.7051,2.7187,2.7207,2.7324,2.7754,2.7832,2.7832,2.7832,2.7832,2.7832,2.7832,2.7832,2.7832,2.7832,2.7832,2.7832,2.7832,2.7832,2.7832,2.7832,2.7832,2.7832,2.7832,2.7832,2.7832,2.7832,2.7422,2.7207,2.7207,2.6523,2.6437,2.7051,2.7977,2.8656,2.9165,2.9875,3.0441,1.3357,1.4658,1.5933,1.709,1.8105,1.9121,2.0099,2.0918,2.168,2.2539,2.2789,2.2925,2.3062,2.3101,2.3101,2.3101,2.3907,2.4956,2.6318,2.7764,2.9306,3.0963,3.1612,3.2089,3.2466,3.2516,3.2516,3.2516,3.2516,3.2516,3.2516,3.2516,3.2591,3.2792,3.2792,3.2893,3.3111,3.3111,3.3111,3.3111,3.3111,3.3111,3.3111,3.3111,3.3111,3.3111,3.3111,3.3111,3.3111,3.3111,3.3111,3.3111,3.3111,3.3111,3.3111,3.3111,3.3111,3.3111,3.3111,3.3111,3.3111,3.3111,3.3111,3.3111,3.3111,3.2766,3.2245,3.1448,3.0973,3.0331,2.8794,2.8387,2.8164,2.7597,2.7441,2.7519,2.7812,2.7826,2.7845,2.8203,2.8301,2.8301,2.8301,2.8301,2.8301,2.8301,2.8301,2.8301,2.8301,2.8301,2.8301,2.8301,2.8301,2.8301,2.8301,2.8301,2.8301,2.8301,2.8301,2.8301,2.8301,2.7891,2.7728,2.7728,2.6816,2.6448,2.6495,2.7064,2.7552,2.7955,2.8609,2.9326,0.0,0.0,0.0,1.5879,1.6973,1.8013,1.8442,1.957,2.0801,2.168,2.2207,2.2617,2.3023,2.3101,2.3101,2.3101,2.3907,2.4956,2.6318,2.7741,2.9145,3.0448,3.106,3.1361,3.1386,3.1386,3.1386,3.1386,3.1386,3.1386,3.1386,3.1386,3.1637,3.219,3.2215,3.2491,3.3111,3.3111,3.3111,3.3111,3.3111,3.3111,3.3111,3.3111,3.3111,3.3111,3.3111,3.3111,3.3111,3.3111,3.3111,3.3111,3.3111,3.3111,3.3111,3.3111,3.3111,3.3111,3.3111,3.3111,3.3111,3.3111,3.3111,3.3111,3.3111,3.2766,3.2269,3.1496,3.1067,3.0528,2.9225,2.8591,2.8301,2.8301,2.8301,2.8301,2.8301,2.7969,2.7865,2.8203,2.8301,2.8301,2.8301,2.8301,2.8301,2.8301,2.8301,2.8301,2.8301,2.8301,2.8301,2.8301,2.8301,2.8301,2.8301,2.8301,2.8301,2.8301,2.8301,2.8301,2.8301,2.7963,2.7728,2.7728,2.6855,2.6426,2.6426,2.6718,2.6955,2.7194,2.7715,2.8585,1.2833,0.0,0.0,0.0,0.0,0.0,1.7058,1.8208,1.959,2.1073,2.1758,2.2285,2.2964,2.3101,2.3101,2.3101,2.3907,2.4956,2.6318,2.74,2.8674,3.0398,3.0733,3.0984,3.1361,3.1386,3.1386,3.1386,3.1386,3.1386,3.1386,3.1386,3.1637,3.219,3.2215,3.2491,3.3111,3.3111,3.3111,3.3111,3.3111,3.3111,3.3111,3.3111,3.3111,3.3111,3.3111,3.3111,3.3111,3.3111,3.3111,3.3111,3.3111,3.3111,3.3111,3.3111,3.3111,3.3111,3.3111,3.3111,3.3111,3.3111,3.3111,3.3111,3.3111,3.2766,3.2245,3.1448,3.1182,3.0807,2.965,2.8846,2.8301,2.8301,2.8301,2.8301,2.8301,2.8203,2.8164,2.8262,2.8301,2.8301,2.8301,2.8301,2.8301,2.8301,2.8301,2.8301,2.8301,2.8301,2.8301,2.8301,2.8301,2.8301,2.8301,2.8301,2.8301,2.8301,2.8301,2.8301,2.8301,2.8184,2.8125,2.8125,2.7578,2.7356,2.7356,2.6448,2.6062,2.611,2.6688,2.7384,1.3221,1.3711,1.4043,1.4043,0.0,0.0,1.6328,1.7441,1.8676,1.9865,2.0781,2.1543,2.2185,2.2457,2.2617,2.2617,2.3277,2.4451,2.6251,2.7261,2.8411,3.0074,3.0281,3.0382,3.0683,3.0733,3.0733,3.0733,3.0733,3.0733,3.0733,3.0733,3.1085,3.1838,3.1863,3.2265,3.3111,3.3111,3.3111,3.3111,3.3111,3.3111,3.3111,3.3111,3.3111,3.3111,3.3111,3.3111,3.3111,3.3111,3.3111,3.3111,3.3111,3.3111,3.3111,3.3111,3.3111,3.3111,3.3111,3.3111,3.3111,3.3111,3.3111,3.3111,3.3111,3.2854,3.241,3.1445,3.0733,3.0049,2.935,2.8761,2.8301,2.8301,2.8301,2.8301,2.8301,2.8301,2.8301,2.8301,2.8301,2.8301,2.8301,2.8301,2.8301,2.8301,2.8301,2.8301,2.8301,2.8301,2.8301,2.8301,2.8301,2.8301,2.8301,2.8301,2.8301,2.8301,2.8301,2.8301,2.8301,2.8301,2.8301,2.8301,2.7871,2.7552,2.718,2.6367,2.5869,2.5693,2.6255,2.6907,1.3961,1.4387,1.4707,1.4707,1.5361,0.0,1.5948,1.6926,1.793,1.8364,1.9453,2.043,2.0937,2.1328,2.1602,2.1602,2.2251,2.3594,2.6013,2.7111,2.8164,2.9585,2.974,2.974,2.9804,2.9804,2.9804,2.9804,2.9804,2.9804,2.9804,2.9804,3.0256,3.126,3.1361,3.1913,3.2968,3.3086,3.3111,3.3111,3.3111,3.3111,3.3111,3.3111,3.3111,3.3111,3.3111,3.3111,3.3111,3.3111,3.3111,3.3111,3.3111,3.3111,3.3111,3.3111,3.3111,3.3111,3.3111,3.3111,3.3111,3.3111,3.3111,3.3111,3.3111,3.2945,3.2536,3.1414,2.9916,2.8692,2.8661,2.8461,2.8301,2.8301,2.8301,2.8301,2.8301,2.8301,2.8301,2.8301,2.8301,2.8301,2.8301,2.8301,2.8301,2.8301,2.8301,2.8301,2.8301,2.8301,2.8301,2.8301,2.8301,2.8301,2.8301,2.8301,2.8301,2.8301,2.8301,2.8301,2.8301,2.8301,2.8301,2.8301,2.793,2.7344,2.6523,2.6445,2.6172,2.5693,2.6255,2.6907,1.3961,1.4172,1.4231,1.4231,1.4648,0.0,1.5067,1.5791,1.6692,1.7461,1.8086,1.875,1.9531,1.9746,1.9805,1.9805,2.0831,2.2501,2.5076,2.6182,2.7364,2.9042,2.9365,2.956,2.9779,2.9804,2.9804,2.9804,2.9804,2.9804,2.9804,2.9804,3.008,3.0758,3.116,3.1712,3.2365,3.2842,3.3111,3.3111,3.3111,3.3111,3.3111,3.3111,3.3111,3.3111,3.3111,3.3111,3.3111,3.3111,3.3111,3.3111,3.3111,3.3111,3.3111,3.3111,3.3111,3.3111,3.3111,3.3111,3.3111,3.3111,3.3111,3.3111,3.3111,3.2788,3.2153,3.0678,2.9095,2.7963,2.829,2.8354,2.8301,2.8301,2.8301,2.8301,2.8301,2.8301,2.8301,2.8301,2.8301,2.8301,2.8301,2.8301,2.8301,2.8301,2.8301,2.8301,2.8301,2.8301,2.8301,2.8301,2.8301,2.8301,2.8301,2.8301,2.8301,2.8301,2.8301,2.8301,2.8301,2.8301,2.8301,2.8301,2.8203,2.793,2.7422,2.6719,2.6172,2.5693,2.6255,2.6907,1.5313,1.5245,1.5098,1.5098,1.5098,0.0,0.0,1.5635,1.6222,1.6672,1.7246,1.7832,1.8262,1.8516,1.8652,1.8652,1.9525,2.0842,2.2819,2.4768,2.6628,2.8378,2.891,2.9287,2.974,2.9804,2.9804,2.9804,2.9804,2.9804,2.9804,2.9804,3.0055,3.0608,3.0859,3.1386,3.2215,3.2491,3.2792,3.3111,3.3111,3.3111,3.3111,3.3111,3.3111,3.3111,3.3111,3.3111,3.3111,3.3111,3.3111,3.3111,3.3111,3.3111,3.3111,3.3111,3.3111,3.3111,3.3111,3.3111,3.3111,3.3111,3.3111,3.3111,3.3111,3.256,3.1808,3.1174,2.9931,2.887,2.8913,2.8814,2.8654,2.8514,2.8408,2.8301,2.8301,2.8301,2.8301,2.8301,2.8301,2.8301,2.8301,2.8301,2.8301,2.8301,2.8301,2.8301,2.8301,2.8301,2.8301,2.8301,2.8301,2.8301,2.8301,2.8301,2.8301,2.8301,2.8301,2.8301,2.8301,2.8301,2.8301,2.8301,2.8301,2.8086,2.7728,2.7226,2.6797,2.6367,2.6913,2.7582,1.6675,1.6465,1.6202,1.6124,1.5831,1.5508,0.0,0.0,0.0,1.5968,1.6504,1.7012,1.7012,1.7285,1.75,1.75,1.8178,1.9094,2.0256,2.2828,2.5333,2.7348,2.802,2.8665,2.9449,2.959,2.9679,2.9779,2.9679,2.9679,2.9779,2.9804,3.0005,3.0432,3.0557,3.1085,3.2039,3.2164,3.2516,3.3111,3.3111,3.3111,3.3111,3.3111,3.3111,3.3111,3.3111,3.3111,3.3111,3.3111,3.3111,3.3111,3.3111,3.3111,3.3111,3.3111,3.3111,3.3111,3.3111,3.3111,3.3111,3.3111,3.3111,3.3119,3.3233,3.256,3.1821,3.2179,3.1403,3.0391,3.0057,2.9638,2.9237,2.894,2.8568,2.8301,2.8301,2.8301,2.8301,2.8301,2.8301,2.8301,2.8301,2.8301,2.8301,2.8301,2.8301,2.8301,2.8301,2.8301,2.8301,2.8301,2.8301,2.8301,2.8301,2.8301,2.8301,2.8301,2.8301,2.8301,2.8301,2.8301,2.8301,2.8301,2.8301,2.8125,2.7845,2.7845,2.7519,2.7012,2.7571,2.8207,1.6707,1.6668,1.6562,1.6202,1.6065,1.5909,1.5508,0.0,1.5488,1.5488,0.0,1.5644,1.5644,0.0,0.0,1.5703,1.677,1.7762,1.8267,1.9994,2.2277,2.5338,2.6294,2.7172,2.8445,2.8837,2.9227,2.9754,2.9327,2.9252,2.9754,2.9804,2.9829,2.988,3.0357,3.0909,3.1486,3.1964,3.2516,3.3111,3.3111,3.3111,3.3111,3.3111,3.3111,3.3111,3.3111,3.3111,3.3111,3.3111,3.3111,3.3111,3.3111,3.3111,3.3111,3.3111,3.3111,3.3111,3.3111,3.3111,3.3111,3.3111,3.3111,3.3183,3.3687,3.323,3.2677,3.3247,3.2778,3.1949,3.1462,3.0742,3.0016,2.9533,2.8867,2.8301,2.8301,2.8301,2.8301,2.8301,2.8301,2.8301,2.8301,2.8301,2.8301,2.8301,2.8301,2.8301,2.8301,2.8301,2.8301,2.8301,2.8301,2.8301,2.8301,2.8301,2.8301,2.8301,2.8301,2.8301,2.8301,2.8301,2.8301,2.8301,2.8301,2.8262,2.8223,2.8223,2.7812,2.7012,2.7571,2.8186,1.7798,1.7447,1.7012,1.6562,1.625,1.5987,1.5508,1.541,1.5488,1.5742,0.0,0.0,0.0,0.0,0.0,0.0,1.6281,1.6887,1.7559,1.8596,2.0334,2.3199,2.446,2.5797,2.7529,2.8425,2.8863,2.8825,2.8875,2.8988,2.9277,2.9603,2.9804,2.9804,3.0005,3.0532,3.1386,3.1612,3.219,3.3111,3.3111,3.3111,3.3111,3.3111,3.3111,3.3111,3.3111,3.3111,3.3111,3.3111,3.3111,3.3111,3.3111,3.3111,3.3111,3.3111,3.3111,3.3111,3.3111,3.3111,3.3111,3.3111,3.3294,3.3652,3.4024,3.3893,3.379,3.4195,3.3796,3.3178,3.2627,3.192,3.1154,3.0608,2.9848,2.9311,2.9311,2.9311,2.9237,2.9079,2.892,2.8708,2.8568,2.8408,2.8301,2.8301,2.8301,2.8301,2.8301,2.8301,2.8301,2.8301,2.8301,2.8301,2.8301,2.8301,2.8301,2.8301,2.8301,2.8301,2.8301,2.8301,2.8301,2.8301,2.8301,2.8301,2.8301,2.8301,2.8105,2.7754,2.812,2.862,1.8637,1.8149,1.7559,1.6863,1.6484,1.6094,1.5547,1.5508,1.5684,1.6026,1.6202,0.0,0.0,0.0,1.6242,0.0,0.0,1.6457,1.6985,1.7514,1.8797,2.134,2.3222,2.4955,2.6529,2.7631,2.8222,2.8122,2.8197,2.8411,2.8863,2.9327,2.9628,2.9779,2.9804,3.0306,3.1386,3.1386,3.1964,3.3111,3.3111,3.3111,3.3111,3.3111,3.3111,3.3111,3.3111,3.3111,3.3111,3.3111,3.3111,3.3111,3.3111,3.3111,3.3111,3.3111,3.3111,3.3111,3.3111,3.3111,3.3093,3.3244,3.3571,3.3978,3.4499,3.4675,3.4766,3.5161,3.4945,3.4532,3.3993,3.325,3.2527,3.1993,3.1227,3.063,3.063,3.063,3.0526,3.0214,2.9743,2.9323,2.8973,2.8568,2.8301,2.8301,2.8301,2.8301,2.8301,2.8301,2.8301,2.8301,2.8301,2.8301,2.8301,2.8301,2.8301,2.8301,2.8301,2.8301,2.8301,2.8301,2.8301,2.8301,2.8301,2.8301,2.8301,2.8301,2.8301,2.8301,2.8514,2.8814,1.8715,1.8578,1.8266,1.7019,1.6687,1.6453,1.5605,1.5742,1.6065,1.6085,1.6406,1.6687,1.6707,1.6687,0.0,0.0,0.0,0.0,0.0,1.6484,1.7632,1.9997,2.2822,2.4826,2.5419,2.6134,2.7002,2.8021,2.7178,2.7278,2.8813,2.8913,2.9227,2.9779,2.9804,3.0306,3.1386,3.1386,3.1964,3.3111,3.3111,3.3111,3.3111,3.3111,3.3111,3.3111,3.3111,3.3111,3.3111,3.3111,3.3111,3.3111,3.3111,3.3111,3.3111,3.3111,3.3111,3.3111,3.3111,3.3111,3.3212,3.3696,3.3897,3.4098,3.5157,3.5483,3.5562,3.616,3.6358,3.6216,3.5644,3.4945,3.419,3.3648,3.2855,3.223,3.223,3.223,3.2101,3.1615,3.0845,3.0068,2.9586,2.8814,2.8301,2.8301,2.8301,2.8301,2.8301,2.8301,2.8301,2.8301,2.8301,2.8301,2.8301,2.8301,2.8301,2.8301,2.8301,2.8301,2.8301,2.8301,2.8301,2.8301,2.8301,2.8301,2.8301,2.8301,2.8301,2.8301,2.8301,2.8301,1.9475,1.9277,1.8828,1.7798,1.7545,1.7311,1.6453,1.6375,1.6582,1.6907,1.7051,1.7246,1.7486,0.0,0.0,0.0,0.0,0.0,0.0,1.6894,1.7612,1.8757,2.1083,2.2958,2.3844,2.5124,2.5912,2.5937,2.6298,2.6751,2.7268,2.8323,2.8988,2.9227,2.9603,3.0306,3.1386,3.1386,3.1964,3.3111,3.3111,3.3111,3.3111,3.3111,3.3111,3.3111,3.3111,3.3111,3.3111,3.3111,3.3111,3.3111,3.3111,3.3111,3.3111,3.3111,3.3111,3.3162,3.3495,3.3847,3.4198,3.4374,3.47,3.5006,3.5382,3.5805,3.6132,3.6355,3.6405,3.631,3.5955,3.5404,3.4824,3.4458,3.3895,3.3426,3.3426,3.3426,3.3277,3.275,3.1971,3.1206,3.0474,2.9481,2.8708,2.8354,2.8301,2.8301,2.8301,2.8301,2.8301,2.8301,2.8301,2.8301,2.8301,2.8301,2.8301,2.8301,2.8301,2.8301,2.8301,2.8301,2.8301,2.8301,2.8301,2.8301,2.8301,2.8301,2.8301,2.8301,2.8301,2.8301,1.9961,1.9707,1.9297,1.8437,1.8188,1.7974,1.7135,1.7038,1.7233,1.7539,1.7734,1.7969,1.8379,1.8125,0.0,0.0,0.0,0.0,0.0,1.6836,1.7224,1.8007,2.0009,2.1731,2.2698,2.4025,2.4796,2.4736,2.5277,2.5871,2.6474,2.767,2.8524,2.8888,2.9679,3.0507,3.1386,3.1587,3.2139,3.3111,3.3111,3.3111,3.3111,3.3111,3.3111,3.3111,3.3111,3.3111,3.3111,3.3111,3.3111,3.3111,3.3111,3.3111,3.3111,3.3111,3.3194,3.3445,3.3997,3.4424,3.4705,3.4906,3.5207,3.5533,3.578,3.6081,3.6405,3.6405,3.6405,3.6358,3.6193,3.5883,3.5571,3.5404,3.509,3.4824,3.4824,3.4824,3.4678,3.4164,3.34,3.2577,3.1637,3.0401,2.927,2.8548,2.8354,2.8301,2.8301,2.8301,2.8301,2.8301,2.8301,2.8301,2.8301,2.8301,2.8301,2.8301,2.8301,2.8301,2.8301,2.8301,2.8301,2.8301,2.8301,2.8301,2.8301,2.8301,2.8301,2.8301,2.8301,2.8301]}]]